[[{"header":{"parameterUnit":"m.s-1","parameterCategory":1,"la1":31.0,"la2":29.5877,"lo1":-88.7671,"lo2":-86.6584,"dy":0.0162,"dx":0.0185,"nx":115,"ny":88,"refTime":"2024-04-17T12:00:00:Z","depth":0,"parameterNumber":2,"parameterNumberName":"U-component_of_WINDS"},"data":[0.0,0.0,0.0,0.0,0.0,0.0,0.0,0.0,0.0,0.0,0.0,0.0,0.0,0.0,0.0,0.0,0.0,0.0,0.0,0.0,0.0,0.0,0.0,0.0,0.0,0.0,0.0,0.0,0.0,0.0,0.0,0.0,0.0,0.0,0.0,0.0,0.0,0.0,0.0,0.0,0.0,0.0,0.0,0.0,0.0,0.0,0.0,0.0,0.0,0.0,0.0,0.0,0.0,0.0,0.0,0.0,0.0,0.0,0.0,0.0,0.0,0.0,0.0,0.0,0.0,0.0,0.0,0.0,0.0,0.0,0.0,0.0,0.0,0.0,0.0,0.0,0.0,0.0,0.0,0.0,0.0,0.0,0.0,0.0,0.0,0.0,0.0,0.0,0.0,0.0,0.0,0.0,0.0,0.0,0.0,0.0,0.0,0.0,0.0,0.0,0.0,0.0,0.0,0.0,0.0,0.0,0.0,0.0,0.0,0.0,0.0,0.0,0.0,0.0,0.0,0.0,0.0,0.0,0.0,0.0,0.0,0.0,0.0,0.0,0.0,0.0,0.0,0.0,0.0,0.0,0.0,0.0,0.0,0.0,0.0,0.0,0.0,0.0,0.0,0.0,0.0,0.0,0.0,0.0,0.0,0.0,0.0,0.0,0.0,0.0,0.0,0.0,0.0,0.0,0.0,0.0,0.0,0.0,0.0,0.0,0.0,0.0,0.0,0.0,0.0,0.0,0.0,0.0,0.0,0.0,0.0,0.0,0.0,0.0,0.0,0.0,0.0,0.0,0.0,0.0,0.0,0.0,0.0,0.0,0.0,0.0,0.0,0.0,0.0,0.0,0.0,0.0,0.0,0.0,0.0,0.0,0.0,0.0,0.0,0.0,0.0,0.0,0.0,0.0,0.0,0.0,0.0,0.0,0.0,0.0,0.0,0.0,0.0,0.0,0.0,0.0,0.0,0.0,0.0,0.0,0.0,0.0,0.0,0.0,0.0,0.0,0.0,0.0,0.0,0.0,0.0,0.0,0.0,0.0,0.0,0.0,0.0,0.0,0.0,0.0,0.0,0.0,0.0,0.0,0.0,0.0,0.0,0.0,0.0,0.0,0.0,0.0,0.0,0.0,0.0,0.0,0.0,0.0,0.0,0.0,0.0,0.0,0.0,0.0,0.0,0.0,0.0,0.0,0.0,0.0,0.0,0.0,0.0,0.0,0.0,0.0,0.0,0.0,0.0,0.0,0.0,0.0,0.0,0.0,0.0,0.0,0.0,0.0,0.0,0.0,0.0,0.0,0.0,0.0,0.0,0.0,0.0,0.0,0.0,0.0,0.0,0.0,0.0,0.0,0.0,0.0,0.0,0.0,0.0,0.0,0.0,0.0,0.0,0.0,0.0,0.0,0.0,0.0,0.0,0.0,0.0,0.0,0.0,0.0,0.0,0.0,0.0,0.0,0.0,0.0,0.0,0.0,0.0,0.0,0.0,0.0,0.0,0.0,0.0,0.0,0.0,0.0,0.0,0.0,0.0,0.0,0.0,0.0,0.0,0.0,0.0,0.0,0.0,0.0,0.0,0.0,0.0,0.0,0.0,0.0,0.0,0.0,0.0,0.0,0.0,0.0,0.0,0.0,0.0,0.0,0.0,0.0,0.0,0.0,0.0,0.0,0.0,0.0,0.0,0.0,0.0,0.0,0.0,0.0,0.0,0.0,0.0,0.0,0.0,0.0,0.0,0.0,0.0,0.0,0.0,0.0,0.0,0.0,0.0,0.0,0.0,0.0,0.0,0.0,0.0,0.0,0.0,0.0,0.0,0.0,0.0,0.0,0.0,0.0,0.0,0.0,0.0,0.0,0.0,0.0,0.0,0.0,0.0,0.0,0.0,0.0,0.0,0.0,0.0,0.0,0.0,0.0,0.0,0.0,0.0,0.0,0.0,0.0,0.0,0.0,0.0,0.0,0.0,0.0,0.0,0.0,0.0,0.0,0.0,0.0,0.0,0.0,0.0,0.0,0.0,0.0,0.0,0.0,0.0,0.0,0.0,0.0,0.0,0.0,0.0,0.0,0.0,0.0,0.0,0.0,0.0,0.0,0.0,0.0,0.0,0.0,0.0,0.0,0.0,0.0,0.0,0.0,0.0,0.0,0.0,0.0,0.0,0.0,0.0,0.0,0.0,0.0,0.0,0.0,0.0,0.0,0.0,0.0,0.0,0.0,0.0,0.0,0.0,0.0,0.0,0.0,0.0,0.0,0.0,0.0,0.0,0.0,0.0,0.0,0.0,0.0,0.0,0.0,0.0,0.0,0.0,0.0,0.0,0.0,0.0,0.0,0.0,0.0,0.0,0.0,0.0,0.0,0.0,0.0,0.0,0.0,0.0,0.0,0.0,0.0,0.0,0.0,0.0,0.0,0.0,0.0,0.0,0.0,0.0,0.0,0.0,0.0,0.0,0.0,0.0,0.0,0.0,0.0,0.0,0.0,0.0,0.0,0.0,0.0,0.0,0.0,0.0,0.0,0.0,0.0,0.0,0.0,0.0,0.0,0.0,0.0,0.0,0.0,0.0,0.0,0.0,0.0,0.0,0.0,0.0,0.0,0.0,0.0,0.0,0.0,0.0,0.0,0.0,0.0,0.0,0.0,0.0,0.0,0.0,0.0,0.0,0.0,0.0,0.0,0.0,0.0,0.0,0.0,0.0,0.0,0.0,0.0,0.0,0.0,0.0,0.0,0.0,0.0,0.0,0.0,0.0,0.0,0.0,0.0,0.0,0.0,0.0,0.0,0.0,0.0,0.0,0.0,0.0,0.0,0.0,0.0,0.0,0.0,0.0,0.0,0.0,0.0,0.0,0.0,0.0,0.0,0.0,0.0,0.0,0.0,0.0,0.0,0.0,0.0,0.0,0.0,0.0,0.0,0.0,0.0,0.0,0.0,0.0,0.0,0.0,0.0,0.0,0.0,0.0,0.0,0.0,0.0,0.0,0.0,0.0,0.0,0.0,0.0,0.0,0.0,0.0,0.0,0.0,0.0,0.0,0.0,0.0,0.0,0.0,0.0,0.0,0.0,0.0,0.0,0.0,0.0,0.0,0.0,0.0,0.0,0.0,0.0,0.0,0.0,0.0,0.0,0.0,0.0,0.0,0.0,0.0,0.0,0.0,0.0,0.0,0.0,0.0,0.0,0.0,0.0,0.0,0.0,0.0,0.0,0.0,0.0,0.0,0.0,0.0,0.0,0.0,0.0,0.0,0.0,0.0,0.0,0.0,0.0,0.0,0.0,0.0,0.0,0.0,0.0,0.0,0.0,0.0,0.0,0.0,0.0,0.0,0.0,0.0,0.0,0.0,0.0,0.0,0.0,0.0,0.0,0.0,0.0,0.0,0.0,0.0,0.0,0.0,0.0,0.0,0.0,0.0,0.0,0.0,0.0,0.0,0.0,0.0,0.0,0.0,0.0,0.0,0.0,0.0,0.0,0.0,0.0,0.0,0.0,0.0,0.0,0.0,0.0,0.0,0.0,0.0,0.0,0.0,0.0,0.0,0.0,0.0,0.0,0.0,0.0,0.0,0.0,0.0,0.0,0.0,0.0,0.0,0.0,0.0,0.0,0.0,0.0,0.0,0.0,0.0,0.0,0.0,0.0,0.0,0.0,0.0,0.0,0.0,0.0,0.0,0.0,0.0,0.0,0.0,0.0,0.0,0.0,0.0,0.0,0.0,0.0,0.0,0.0,0.0,0.0,0.0,0.0,0.0,0.0,0.0,0.0,0.0,0.0,0.0,0.0,0.0,0.0,0.0,0.0,0.0,0.0,0.0,0.0,0.0,0.0,0.0,0.0,0.0,0.0,0.0,0.0,0.0,0.0,0.0,0.0,0.0,0.0,0.0,0.0,0.0,0.0,0.0,0.0,0.0,0.0,0.0,0.0,0.0,0.0,0.0,0.0,0.0,0.0,0.0,0.0,0.0,0.0,0.0,0.0,0.0,0.0,0.0,0.0,0.0,0.0,0.0,0.0,0.0,0.0,0.0,0.0,0.0,0.0,0.0,0.0,0.0,0.0,0.0,0.0,0.0,0.0,0.0,0.0,0.0,0.0,0.0,0.0,0.0,0.0,0.0,0.0,0.0,0.0,0.0,0.0,0.0,0.0,0.0,0.0,0.0,0.0,0.0,0.0,0.0,0.0,0.0,0.0,0.0,0.0,0.0,0.0,0.0,0.0,0.0,0.0,0.0,0.0,0.0,0.0,0.0,0.0,0.0,0.0,0.0,0.0,0.0,0.0,-1.4887,0.0,0.0,0.0,0.0,0.0,0.0,0.0,0.0,0.0,0.0,0.0,0.0,0.0,0.0,0.0,0.0,0.0,0.0,0.0,0.0,0.0,0.0,0.0,0.0,0.0,0.0,0.0,0.0,0.0,0.0,0.0,0.0,0.0,0.0,0.0,0.0,0.0,0.0,0.0,0.0,0.0,0.0,0.0,0.0,0.0,0.0,0.0,0.0,0.0,0.0,0.0,0.0,0.0,0.0,0.0,0.0,0.0,0.0,0.0,0.0,0.0,0.0,0.0,0.0,0.0,0.0,0.0,0.0,0.0,0.0,0.0,0.0,0.0,0.0,0.0,0.0,0.0,0.0,0.0,0.0,0.0,0.0,0.0,0.0,0.0,0.0,0.0,0.0,0.0,0.0,0.0,0.0,0.0,0.0,0.0,0.0,0.0,0.0,0.0,0.0,0.0,0.0,0.0,0.0,0.0,0.0,0.0,0.0,0.0,0.0,-1.4809,-1.4865,-1.4883,-1.4896,-1.4886,0.0,0.0,0.0,0.0,0.0,0.0,0.0,0.0,0.0,0.0,0.0,0.0,0.0,0.0,0.0,0.0,0.0,0.0,0.0,0.0,0.0,0.0,0.0,0.0,0.0,0.0,0.0,0.0,0.0,0.0,0.0,0.0,0.0,0.0,0.0,0.0,0.0,0.0,0.0,0.0,0.0,0.0,0.0,0.0,0.0,0.0,0.0,0.0,0.0,0.0,0.0,0.0,0.0,0.0,0.0,0.0,0.0,0.0,0.0,0.0,0.0,0.0,0.0,0.0,0.0,0.0,0.0,0.0,0.0,0.0,0.0,0.0,0.0,0.0,0.0,0.0,0.0,0.0,0.0,0.0,0.0,0.0,0.0,0.0,0.0,0.0,0.0,0.0,0.0,0.0,0.0,0.0,0.0,0.0,0.0,0.0,0.0,0.0,0.0,0.0,0.0,0.0,0.0,0.0,0.0,0.0,0.0,0.0,0.0,0.0,0.0,0.0,-1.4901,-1.49,-1.4921,0.0,0.0,0.0,0.0,0.0,0.0,0.0,0.0,0.0,0.0,0.0,0.0,0.0,0.0,0.0,0.0,0.0,0.0,0.0,0.0,0.0,0.0,0.0,0.0,0.0,0.0,0.0,0.0,0.0,0.0,0.0,0.0,0.0,0.0,0.0,0.0,0.0,0.0,0.0,0.0,0.0,0.0,0.0,0.0,0.0,0.0,0.0,0.0,0.0,0.0,0.0,0.0,0.0,0.0,0.0,0.0,0.0,0.0,0.0,0.0,0.0,0.0,0.0,0.0,0.0,0.0,0.0,0.0,0.0,0.0,0.0,0.0,0.0,0.0,0.0,0.0,0.0,0.0,0.0,0.0,0.0,0.0,0.0,0.0,0.0,0.0,0.0,0.0,0.0,0.0,0.0,0.0,0.0,0.0,0.0,0.0,0.0,0.0,0.0,0.0,0.0,0.0,0.0,0.0,0.0,0.0,0.0,0.0,0.0,0.0,-1.4892,-1.4896,-1.4889,0.0,-1.499,0.0,0.0,0.0,0.0,0.0,0.0,0.0,0.0,0.0,0.0,0.0,0.0,0.0,0.0,0.0,0.0,0.0,0.0,0.0,0.0,0.0,0.0,0.0,0.0,0.0,0.0,0.0,0.0,0.0,0.0,0.0,0.0,0.0,0.0,0.0,0.0,0.0,0.0,0.0,0.0,0.0,0.0,0.0,0.0,0.0,0.0,0.0,0.0,0.0,0.0,0.0,0.0,0.0,0.0,0.0,0.0,0.0,0.0,0.0,0.0,0.0,0.0,0.0,0.0,0.0,0.0,0.0,0.0,0.0,0.0,0.0,0.0,0.0,0.0,0.0,0.0,0.0,0.0,0.0,0.0,0.0,0.0,0.0,0.0,0.0,0.0,0.0,0.0,0.0,0.0,0.0,0.0,0.0,0.0,0.0,0.0,0.0,0.0,0.0,0.0,0.0,0.0,0.0,0.0,0.0,0.0,0.0,0.0,0.0,0.0,-1.4886,-1.4885,-1.4942,-1.4982,0.0,0.0,0.0,0.0,0.0,0.0,0.0,0.0,0.0,0.0,0.0,0.0,0.0,0.0,0.0,0.0,0.0,0.0,0.0,0.0,0.0,0.0,0.0,0.0,0.0,0.0,0.0,0.0,0.0,0.0,0.0,0.0,0.0,0.0,0.0,0.0,0.0,0.0,0.0,0.0,0.0,0.0,0.0,0.0,0.0,0.0,0.0,0.0,0.0,0.0,0.0,0.0,0.0,0.0,0.0,0.0,0.0,0.0,0.0,0.0,0.0,0.0,0.0,0.0,0.0,0.0,0.0,0.0,0.0,0.0,0.0,0.0,0.0,0.0,0.0,0.0,0.0,0.0,0.0,0.0,0.0,0.0,0.0,0.0,0.0,0.0,0.0,0.0,0.0,0.0,0.0,0.0,0.0,0.0,0.0,0.0,0.0,0.0,0.0,0.0,0.0,0.0,0.0,0.0,0.0,0.0,0.0,0.0,0.0,0.0,-1.4886,-1.4908,-1.4923,-1.496,-1.501,-1.501,0.0,0.0,0.0,0.0,0.0,0.0,0.0,0.0,0.0,0.0,0.0,0.0,0.0,0.0,0.0,0.0,0.0,0.0,0.0,0.0,0.0,0.0,0.0,0.0,0.0,0.0,0.0,0.0,0.0,0.0,0.0,0.0,0.0,0.0,0.0,0.0,0.0,0.0,0.0,0.0,0.0,0.0,0.0,0.0,0.0,0.0,0.0,0.0,0.0,0.0,0.0,0.0,0.0,0.0,0.0,0.0,0.0,0.0,0.0,0.0,0.0,0.0,0.0,0.0,0.0,0.0,0.0,0.0,0.0,0.0,0.0,0.0,0.0,0.0,0.0,0.0,0.0,0.0,0.0,0.0,0.0,0.0,0.0,0.0,0.0,0.0,0.0,0.0,0.0,0.0,0.0,0.0,0.0,0.0,0.0,0.0,0.0,0.0,0.0,0.0,0.0,0.0,0.0,0.0,0.0,0.0,0.0,0.0,-1.4896,-1.4889,-1.4932,-1.4976,-1.4977,-1.5015,0.0,0.0,0.0,0.0,0.0,0.0,0.0,0.0,0.0,0.0,0.0,0.0,0.0,0.0,0.0,0.0,0.0,0.0,0.0,0.0,0.0,0.0,0.0,0.0,0.0,0.0,0.0,0.0,0.0,0.0,0.0,0.0,0.0,0.0,0.0,0.0,0.0,0.0,0.0,0.0,0.0,0.0,0.0,0.0,0.0,0.0,0.0,0.0,0.0,0.0,0.0,0.0,0.0,0.0,0.0,0.0,0.0,0.0,0.0,0.0,0.0,0.0,0.0,0.0,0.0,0.0,0.0,0.0,0.0,0.0,0.0,0.0,0.0,0.0,0.0,0.0,0.0,0.0,0.0,0.0,0.0,0.0,0.0,0.0,0.0,0.0,0.0,0.0,0.0,0.0,0.0,0.0,0.0,0.0,0.0,0.0,0.0,0.0,0.0,0.0,0.0,0.0,0.0,0.0,0.0,0.0,0.0,0.0,0.0,-1.4961,-1.4952,-1.498,-1.5,-1.5008,-1.5008,0.0,0.0,0.0,0.0,0.0,0.0,0.0,0.0,0.0,0.0,0.0,0.0,0.0,0.0,0.0,0.0,0.0,0.0,0.0,0.0,0.0,0.0,0.0,0.0,0.0,0.0,0.0,0.0,0.0,0.0,0.0,0.0,0.0,0.0,0.0,0.0,0.0,0.0,0.0,0.0,0.0,0.0,0.0,0.0,0.0,0.0,0.0,0.0,0.0,0.0,0.0,0.0,0.0,0.0,0.0,0.0,0.0,0.0,0.0,0.0,0.0,0.0,0.0,0.0,0.0,0.0,0.0,0.0,0.0,0.0,0.0,0.0,0.0,0.0,0.0,0.0,0.0,0.0,0.0,0.0,0.0,0.0,0.0,0.0,0.0,0.0,0.0,0.0,0.0,0.0,0.0,0.0,0.0,0.0,0.0,0.0,0.0,0.0,0.0,0.0,0.0,0.0,0.0,0.0,0.0,0.0,0.0,0.0,0.0,-1.5014,0.0,-1.5045,-1.5042,-1.503,-1.5045,0.0,0.0,0.0,0.0,0.0,0.0,0.0,0.0,0.0,0.0,0.0,0.0,0.0,0.0,0.0,0.0,0.0,0.0,0.0,0.0,0.0,0.0,0.0,0.0,0.0,0.0,0.0,0.0,0.0,0.0,0.0,0.0,0.0,0.0,0.0,0.0,0.0,0.0,0.0,0.0,0.0,0.0,0.0,0.0,0.0,0.0,0.0,0.0,0.0,0.0,0.0,0.0,0.0,0.0,0.0,0.0,0.0,0.0,0.0,0.0,0.0,0.0,0.0,0.0,0.0,0.0,0.0,0.0,0.0,0.0,0.0,0.0,0.0,0.0,0.0,0.0,0.0,0.0,0.0,0.0,0.0,0.0,0.0,0.0,0.0,0.0,0.0,0.0,0.0,0.0,0.0,0.0,0.0,0.0,0.0,0.0,0.0,0.0,0.0,0.0,0.0,0.0,0.0,0.0,0.0,0.0,0.0,0.0,-1.5018,-1.5008,-1.506,-1.5109,-1.5113,-1.5105,-1.5105,0.0,0.0,0.0,0.0,0.0,0.0,0.0,0.0,0.0,0.0,0.0,0.0,0.0,0.0,0.0,0.0,0.0,0.0,0.0,0.0,0.0,0.0,0.0,0.0,0.0,0.0,0.0,0.0,0.0,0.0,0.0,0.0,0.0,0.0,0.0,0.0,0.0,0.0,0.0,0.0,0.0,0.0,0.0,0.0,0.0,0.0,0.0,0.0,0.0,0.0,0.0,0.0,0.0,0.0,0.0,0.0,0.0,0.0,0.0,0.0,0.0,0.0,0.0,0.0,0.0,0.0,0.0,0.0,0.0,0.0,0.0,0.0,0.0,0.0,0.0,0.0,0.0,0.0,0.0,0.0,0.0,0.0,0.0,0.0,0.0,0.0,0.0,0.0,0.0,0.0,0.0,0.0,0.0,0.0,0.0,0.0,0.0,0.0,0.0,0.0,0.0,0.0,0.0,0.0,0.0,0.0,0.0,0.0,0.0,-1.5057,-1.5097,-1.5108,-1.5108,-1.5112,-1.5112,0.0,0.0,0.0,0.0,0.0,0.0,0.0,0.0,0.0,0.0,0.0,0.0,0.0,0.0,0.0,0.0,0.0,0.0,0.0,0.0,0.0,0.0,0.0,0.0,0.0,0.0,0.0,0.0,0.0,0.0,0.0,0.0,0.0,0.0,0.0,0.0,0.0,0.0,0.0,0.0,0.0,0.0,0.0,0.0,0.0,0.0,0.0,0.0,0.0,0.0,0.0,0.0,0.0,0.0,0.0,0.0,0.0,0.0,0.0,0.0,0.0,0.0,0.0,0.0,0.0,0.0,0.0,0.0,0.0,0.0,0.0,0.0,0.0,0.0,0.0,0.0,0.0,0.0,0.0,0.0,0.0,0.0,0.0,0.0,0.0,0.0,0.0,0.0,0.0,0.0,0.0,0.0,0.0,0.0,0.0,0.0,0.0,0.0,0.0,0.0,0.0,0.0,0.0,0.0,0.0,0.0,0.0,0.0,0.0,-1.5108,-1.5099,-1.5099,-1.5099,-1.5099,-1.5099,-1.5112,0.0,0.0,0.0,0.0,0.0,0.0,0.0,0.0,0.0,0.0,0.0,0.0,0.0,0.0,0.0,0.0,0.0,0.0,0.0,0.0,0.0,0.0,0.0,0.0,0.0,0.0,0.0,0.0,0.0,0.0,0.0,0.0,0.0,0.0,0.0,0.0,0.0,0.0,0.0,0.0,0.0,0.0,0.0,0.0,0.0,0.0,0.0,0.0,0.0,0.0,0.0,0.0,0.0,0.0,0.0,0.0,0.0,0.0,0.0,0.0,0.0,0.0,0.0,0.0,0.0,0.0,0.0,0.0,0.0,0.0,0.0,0.0,0.0,0.0,0.0,0.0,0.0,0.0,0.0,0.0,0.0,0.0,0.0,0.0,0.0,0.0,0.0,0.0,0.0,0.0,0.0,0.0,0.0,0.0,0.0,0.0,0.0,0.0,0.0,0.0,0.0,0.0,0.0,0.0,0.0,0.0,0.0,0.0,-1.5171,-1.5212,-1.5228,-1.5113,-1.5113,-1.5106,0.0,0.0,0.0,0.0,0.0,0.0,0.0,0.0,0.0,0.0,0.0,0.0,0.0,0.0,0.0,0.0,0.0,0.0,0.0,0.0,0.0,0.0,0.0,0.0,0.0,0.0,0.0,0.0,0.0,0.0,0.0,0.0,0.0,0.0,0.0,0.0,0.0,0.0,0.0,0.0,0.0,0.0,0.0,0.0,0.0,0.0,0.0,0.0,0.0,0.0,0.0,0.0,0.0,0.0,0.0,0.0,0.0,0.0,0.0,0.0,0.0,0.0,0.0,0.0,0.0,0.0,0.0,0.0,0.0,0.0,0.0,0.0,0.0,0.0,0.0,0.0,0.0,0.0,0.0,0.0,0.0,0.0,0.0,0.0,0.0,0.0,0.0,0.0,0.0,0.0,0.0,0.0,0.0,0.0,0.0,0.0,0.0,0.0,0.0,0.0,0.0,0.0,0.0,0.0,0.0,0.0,0.0,0.0,0.0,-1.6075,-1.6636,-1.636,-1.5171,-1.5113,-1.5103,0.0,0.0,0.0,0.0,0.0,0.0,0.0,0.0,0.0,0.0,0.0,0.0,0.0,0.0,0.0,0.0,0.0,0.0,0.0,0.0,0.0,0.0,0.0,0.0,0.0,0.0,0.0,0.0,0.0,0.0,0.0,0.0,0.0,0.0,0.0,0.0,0.0,0.0,0.0,0.0,0.0,0.0,0.0,0.0,0.0,0.0,0.0,0.0,0.0,0.0,0.0,0.0,0.0,0.0,0.0,0.0,0.0,0.0,0.0,0.0,0.0,0.0,0.0,0.0,0.0,0.0,0.0,0.0,0.0,0.0,0.0,0.0,0.0,0.0,0.0,0.0,0.0,0.0,0.0,0.0,0.0,0.0,0.0,0.0,0.0,0.0,0.0,0.0,0.0,0.0,0.0,0.0,0.0,0.0,0.0,0.0,0.0,0.0,0.0,0.0,0.0,0.0,0.0,0.0,0.0,0.0,0.0,0.0,-1.6387,-1.642,-1.7187,-1.7126,-1.6169,-1.5825,-1.5619,0.0,0.0,0.0,0.0,0.0,0.0,0.0,0.0,0.0,0.0,0.0,0.0,0.0,0.0,0.0,0.0,0.0,0.0,0.0,0.0,0.0,0.0,0.0,0.0,0.0,0.0,0.0,0.0,0.0,0.0,0.0,0.0,0.0,0.0,0.0,0.0,0.0,0.0,0.0,0.0,0.0,0.0,0.0,0.0,0.0,0.0,0.0,0.0,0.0,0.0,0.0,0.0,0.0,0.0,0.0,0.0,0.0,0.0,0.0,0.0,0.0,0.0,0.0,0.0,0.0,0.0,0.0,0.0,0.0,0.0,0.0,0.0,0.0,0.0,0.0,0.0,0.0,0.0,0.0,0.0,0.0,0.0,0.0,0.0,0.0,0.0,0.0,0.0,0.0,0.0,0.0,0.0,0.0,0.0,0.0,0.0,0.0,0.0,0.0,0.0,0.0,0.0,0.0,0.0,0.0,0.0,0.0,0.0,-1.6575,-1.6658,-1.7451,-1.7853,-1.7857,-1.6923,-1.6368,0.0,0.0,0.0,0.0,0.0,0.0,0.0,0.0,0.0,0.0,0.0,0.0,0.0,0.0,0.0,0.0,0.0,0.0,0.0,0.0,0.0,0.0,0.0,0.0,0.0,0.0,0.0,0.0,0.0,0.0,0.0,0.0,0.0,0.0,0.0,0.0,0.0,0.0,0.0,0.0,0.0,0.0,0.0,0.0,0.0,0.0,0.0,0.0,0.0,0.0,0.0,0.0,0.0,0.0,0.0,0.0,0.0,0.0,0.0,0.0,0.0,0.0,0.0,0.0,0.0,0.0,0.0,0.0,0.0,0.0,0.0,0.0,0.0,0.0,0.0,0.0,0.0,0.0,0.0,0.0,0.0,0.0,0.0,0.0,0.0,0.0,0.0,0.0,0.0,0.0,0.0,0.0,0.0,0.0,0.0,0.0,0.0,0.0,0.0,0.0,0.0,0.0,0.0,0.0,0.0,0.0,0.0,0.0,-1.7673,-1.8358,-1.916,-1.9596,-1.9637,-1.7535,-1.6365,0.0,0.0,0.0,0.0,0.0,0.0,0.0,0.0,0.0,0.0,0.0,0.0,0.0,0.0,0.0,0.0,0.0,0.0,0.0,0.0,0.0,0.0,0.0,0.0,0.0,0.0,0.0,0.0,0.0,0.0,0.0,0.0,0.0,0.0,0.0,0.0,0.0,0.0,0.0,0.0,0.0,0.0,0.0,0.0,0.0,0.0,0.0,0.0,-0.95,0.0,0.0,0.0,0.0,0.0,0.0,0.0,0.0,0.0,0.0,0.0,0.0,0.0,0.0,0.0,0.0,0.0,0.0,0.0,0.0,0.0,0.0,0.0,0.0,0.0,0.0,0.0,0.0,0.0,0.0,0.0,0.0,0.0,0.0,0.0,0.0,0.0,0.0,0.0,0.0,0.0,0.0,0.0,0.0,0.0,0.0,0.0,0.0,0.0,0.0,0.0,0.0,0.0,0.0,0.0,0.0,0.0,0.0,0.0,-1.8032,-1.8878,-1.9687,-2.0122,-2.0078,-1.8085,-1.693,0.0,0.0,0.0,0.0,0.0,0.0,0.0,0.0,0.0,0.0,0.0,0.0,0.0,0.0,0.0,0.0,0.0,0.0,0.0,0.0,0.0,0.0,0.0,0.0,0.0,0.0,0.0,0.0,0.0,0.0,0.0,0.0,0.0,0.0,0.0,0.0,0.0,0.0,0.0,0.0,0.0,0.0,0.0,0.0,0.0,0.0,0.0,0.0,0.0,0.0,0.0,0.0,0.0,0.0,0.0,0.0,0.0,0.0,0.0,0.0,0.0,0.0,0.0,0.0,0.0,0.0,0.0,0.0,0.0,0.0,0.0,0.0,0.0,0.0,0.0,0.0,0.0,0.0,0.0,0.0,0.0,0.0,0.0,0.0,0.0,0.0,0.0,0.0,0.0,0.0,0.0,0.0,0.0,0.0,0.0,0.0,0.0,0.0,0.0,0.0,0.0,0.0,0.0,0.0,0.0,0.0,0.0,-1.722,-1.8077,-1.9047,-1.9754,-2.0112,-2.0074,-1.8471,-1.761,-1.7578,0.0,0.0,0.0,0.0,0.0,0.0,0.0,0.0,0.0,0.0,0.0,0.0,0.0,0.0,0.0,0.0,0.0,0.0,0.0,0.0,0.0,0.0,0.0,0.0,0.0,0.0,0.0,0.0,0.0,0.0,0.0,0.0,0.0,0.0,0.0,0.0,0.0,0.0,-0.9858,-1.0529,0.0,0.0,0.0,0.0,0.0,0.0,0.0,0.0,-1.0874,0.0,0.0,0.0,0.0,0.0,0.0,0.0,0.0,0.0,0.0,0.0,0.0,0.0,0.0,0.0,0.0,0.0,0.0,0.0,0.0,0.0,0.0,0.0,0.0,0.0,0.0,0.0,0.0,0.0,0.0,0.0,0.0,0.0,0.0,0.0,0.0,0.0,0.0,0.0,0.0,0.0,0.0,0.0,0.0,0.0,0.0,0.0,0.0,0.0,0.0,0.0,0.0,0.0,0.0,0.0,0.0,-1.7373,-1.7545,-1.8349,-1.9864,-2.0017,-2.0112,-2.0069,-1.8477,-1.7602,-1.754,0.0,0.0,0.0,0.0,0.0,0.0,0.0,0.0,0.0,0.0,0.0,0.0,0.0,0.0,0.0,0.0,0.0,0.0,0.0,0.0,0.0,0.0,0.0,0.0,0.0,0.0,0.0,0.0,0.0,0.0,0.0,0.0,0.0,0.0,0.0,0.0,0.0,0.0,0.0,-1.1384,-1.191,0.0,0.0,0.0,0.0,0.0,0.0,0.0,0.0,-1.1569,0.0,0.0,0.0,0.0,0.0,0.0,0.0,0.0,0.0,0.0,0.0,0.0,0.0,0.0,0.0,0.0,0.0,0.0,0.0,0.0,0.0,0.0,0.0,0.0,0.0,0.0,0.0,0.0,0.0,0.0,0.0,0.0,0.0,0.0,0.0,0.0,0.0,0.0,0.0,0.0,0.0,0.0,0.0,0.0,0.0,0.0,0.0,0.0,0.0,0.0,0.0,0.0,0.0,0.0,0.0,-1.7496,-1.7606,-1.8402,-2.0036,-2.0112,-2.0112,-2.0074,-1.8477,-1.7617,0.0,0.0,0.0,0.0,0.0,0.0,0.0,0.0,0.0,0.0,0.0,0.0,0.0,0.0,0.0,0.0,0.0,0.0,0.0,0.0,0.0,0.0,0.0,0.0,0.0,0.0,0.0,0.0,0.0,0.0,0.0,0.0,0.0,0.0,0.0,0.0,0.0,0.0,0.0,0.0,-1.2475,-1.2863,-1.3234,0.0,0.0,0.0,0.0,0.0,0.0,-1.2412,-1.2251,0.0,0.0,0.0,0.0,0.0,0.0,0.0,0.0,0.0,0.0,0.0,0.0,0.0,0.0,0.0,0.0,0.0,0.0,0.0,0.0,0.0,0.0,0.0,0.0,0.0,0.0,0.0,0.0,0.0,0.0,0.0,0.0,0.0,0.0,0.0,0.0,0.0,0.0,0.0,0.0,0.0,0.0,0.0,0.0,0.0,0.0,0.0,0.0,0.0,0.0,0.0,0.0,0.0,0.0,0.0,-1.7543,-1.761,-1.8406,-2.0017,-2.0117,-2.0117,-2.0074,-1.8477,-1.7617,0.0,0.0,0.0,0.0,0.0,0.0,0.0,0.0,0.0,0.0,0.0,0.0,0.0,0.0,0.0,0.0,0.0,0.0,0.0,0.0,0.0,0.0,0.0,0.0,0.0,0.0,0.0,0.0,0.0,0.0,0.0,0.0,0.0,0.0,0.0,0.0,0.0,0.0,0.0,0.0,0.0,-1.3778,-1.4409,-1.4453,0.0,0.0,0.0,0.0,-1.3328,-1.3232,0.0,0.0,0.0,0.0,0.0,0.0,0.0,0.0,0.0,0.0,0.0,0.0,0.0,0.0,0.0,0.0,0.0,0.0,0.0,0.0,0.0,0.0,0.0,0.0,0.0,0.0,0.0,0.0,0.0,0.0,0.0,0.0,0.0,0.0,0.0,0.0,0.0,0.0,0.0,0.0,0.0,0.0,0.0,0.0,0.0,0.0,0.0,0.0,0.0,0.0,0.0,0.0,0.0,0.0,0.0,0.0,-1.7524,-1.7603,-1.8414,-2.0017,-2.0155,-2.0174,-2.0093,-1.8473,-1.7617,0.0,0.0,0.0,0.0,0.0,0.0,0.0,0.0,0.0,0.0,0.0,0.0,0.0,0.0,0.0,0.0,0.0,0.0,0.0,0.0,0.0,0.0,0.0,0.0,0.0,0.0,0.0,0.0,0.0,0.0,0.0,0.0,0.0,0.0,0.0,0.0,0.0,0.0,0.0,0.0,0.0,-1.439,-1.4501,-1.4429,-1.4399,0.0,0.0,-1.4255,-1.4097,-1.4025,0.0,0.0,0.0,0.0,0.0,0.0,0.0,0.0,0.0,0.0,0.0,0.0,0.0,0.0,0.0,0.0,0.0,0.0,0.0,0.0,0.0,0.0,0.0,0.0,0.0,0.0,0.0,0.0,0.0,0.0,0.0,0.0,0.0,0.0,0.0,0.0,0.0,0.0,0.0,0.0,0.0,0.0,0.0,0.0,0.0,0.0,0.0,0.0,0.0,0.0,0.0,0.0,0.0,0.0,0.0,-1.6361,-1.7557,-1.8098,-1.8944,-2.0097,-2.0187,-2.0178,-2.0112,-1.8496,-1.7617,0.0,0.0,0.0,0.0,0.0,0.0,0.0,0.0,0.0,0.0,0.0,0.0,0.0,0.0,0.0,0.0,0.0,0.0,0.0,0.0,0.0,0.0,0.0,0.0,0.0,0.0,0.0,0.0,0.0,0.0,0.0,0.0,0.0,0.0,0.0,0.0,0.0,0.0,0.0,0.0,0.0,0.0,-1.4494,-1.4825,0.0,0.0,0.0,-1.4914,-1.4882,0.0,0.0,0.0,0.0,0.0,0.0,0.0,0.0,0.0,0.0,0.0,0.0,0.0,0.0,0.0,0.0,0.0,0.0,0.0,0.0,0.0,0.0,0.0,0.0,0.0,0.0,0.0,0.0,0.0,0.0,0.0,0.0,0.0,0.0,0.0,0.0,0.0,0.0,0.0,0.0,0.0,0.0,0.0,0.0,0.0,0.0,0.0,0.0,0.0,0.0,0.0,0.0,0.0,0.0,0.0,0.0,0.0,-1.7604,-1.8485,-1.9352,-2.0167,-2.0201,-2.0173,-2.0102,-1.8477,0.0,0.0,0.0,0.0,0.0,0.0,0.0,0.0,0.0,0.0,0.0,0.0,0.0,0.0,0.0,0.0,0.0,0.0,0.0,0.0,0.0,0.0,0.0,0.0,0.0,0.0,0.0,-0.9882,0.0,0.0,0.0,0.0,0.0,0.0,0.0,0.0,0.0,0.0,0.0,0.0,0.0,0.0,-1.4811,-1.4811,-1.5428,-1.5893,0.0,0.0,-1.5685,-1.567,-1.5066,-1.4509,0.0,0.0,0.0,0.0,0.0,0.0,0.0,0.0,0.0,0.0,0.0,0.0,0.0,0.0,0.0,0.0,0.0,0.0,0.0,0.0,0.0,0.0,0.0,0.0,0.0,0.0,0.0,0.0,0.0,0.0,0.0,0.0,0.0,0.0,0.0,0.0,0.0,0.0,0.0,0.0,0.0,0.0,0.0,0.0,0.0,0.0,0.0,0.0,0.0,0.0,0.0,0.0,0.0,0.0,0.0,-1.7604,-1.8509,-1.9384,-2.0174,-2.0208,-2.0199,-2.0168,-1.851,-1.7617,0.0,0.0,0.0,0.0,0.0,0.0,0.0,0.0,0.0,0.0,0.0,0.0,0.0,0.0,0.0,0.0,0.0,0.0,0.0,0.0,0.0,0.0,0.0,0.0,0.0,0.0,0.0,0.0,0.0,0.0,0.0,0.0,0.0,0.0,0.0,0.0,0.0,0.0,0.0,0.0,0.0,-1.5619,-1.5619,-1.625,-1.6725,0.0,0.0,-1.6504,-1.6443,-1.6268,-1.5871,-1.5051,0.0,0.0,0.0,0.0,0.0,0.0,0.0,0.0,0.0,0.0,0.0,0.0,0.0,0.0,0.0,0.0,0.0,0.0,0.0,0.0,0.0,0.0,0.0,0.0,0.0,0.0,0.0,0.0,0.0,0.0,0.0,0.0,0.0,0.0,0.0,0.0,0.0,0.0,0.0,0.0,0.0,0.0,0.0,0.0,0.0,0.0,0.0,0.0,0.0,0.0,0.0,0.0,0.0,-1.7562,-1.8471,-1.9296,-1.99,-2.0175,-2.0201,-2.0199,-2.0196,-1.8987,-1.8112,0.0,0.0,0.0,0.0,0.0,0.0,0.0,0.0,0.0,0.0,0.0,0.0,0.0,0.0,0.0,0.0,0.0,0.0,0.0,0.0,0.0,0.0,0.0,0.0,0.0,0.0,0.0,0.0,-0.9882,-1.0098,-1.0593,0.0,0.0,0.0,0.0,0.0,0.0,0.0,0.0,0.0,0.0,-1.5876,-1.6365,-1.7066,0.0,0.0,-1.7413,-1.7313,-1.7257,-1.6713,-1.6181,-1.5798,-1.5653,0.0,0.0,0.0,0.0,0.0,0.0,0.0,0.0,0.0,0.0,0.0,0.0,0.0,0.0,0.0,0.0,0.0,0.0,0.0,0.0,0.0,0.0,0.0,0.0,0.0,0.0,0.0,0.0,0.0,0.0,0.0,0.0,0.0,0.0,0.0,0.0,0.0,0.0,0.0,0.0,0.0,0.0,0.0,0.0,0.0,0.0,0.0,0.0,0.0,0.0,0.0,0.0,-1.8321,-1.8974,-1.9831,-2.0238,-2.0238,-2.0195,-2.0193,-2.0186,-1.9301,-1.8449,0.0,0.0,0.0,0.0,0.0,0.0,0.0,0.0,0.0,0.0,0.0,0.0,0.0,0.0,0.0,0.0,0.0,0.0,0.0,0.0,0.0,0.0,0.0,0.0,0.0,0.0,0.0,0.0,-1.0101,-1.049,-1.1042,0.0,0.0,0.0,0.0,0.0,0.0,0.0,0.0,0.0,0.0,-1.661,-1.7165,-1.787,-1.8343,-1.8362,-1.8228,-1.8096,-1.8037,-1.7452,-1.6879,-1.6554,0.0,0.0,0.0,0.0,0.0,0.0,0.0,0.0,0.0,0.0,0.0,0.0,0.0,0.0,0.0,0.0,0.0,0.0,0.0,0.0,0.0,0.0,0.0,0.0,0.0,0.0,0.0,0.0,0.0,0.0,-1.7296,0.0,0.0,0.0,0.0,0.0,0.0,0.0,0.0,0.0,0.0,0.0,0.0,0.0,0.0,0.0,0.0,0.0,0.0,0.0,0.0,0.0,0.0,-1.8912,-1.9016,-1.9881,-2.0288,-2.0288,-2.0238,-2.0199,-2.0188,-1.936,-1.8476,-1.7617,0.0,0.0,0.0,0.0,0.0,0.0,0.0,0.0,0.0,0.0,0.0,0.0,0.0,0.0,0.0,0.0,0.0,0.0,0.0,0.0,0.0,0.0,0.0,0.0,0.0,0.0,-0.9919,-1.0615,-1.1095,0.0,0.0,0.0,0.0,0.0,0.0,0.0,0.0,0.0,0.0,-1.7126,-1.8041,-1.8071,-1.87,-1.9138,-1.9156,-1.8998,-1.8851,-1.8762,-1.8607,-1.8255,0.0,0.0,0.0,0.0,0.0,0.0,0.0,0.0,0.0,0.0,0.0,0.0,0.0,0.0,0.0,0.0,0.0,0.0,0.0,0.0,0.0,0.0,0.0,0.0,0.0,0.0,0.0,-1.7482,-1.7454,0.0,0.0,0.0,0.0,0.0,0.0,0.0,0.0,0.0,0.0,0.0,-1.9584,-1.9862,0.0,0.0,0.0,0.0,0.0,0.0,0.0,0.0,0.0,0.0,0.0,0.0,-1.927,-1.9838,-2.0158,-2.0292,-2.0289,-2.0273,-2.0226,-2.0193,-1.9896,-1.8992,-1.7515,0.0,0.0,0.0,0.0,0.0,0.0,0.0,0.0,0.0,0.0,0.0,0.0,0.0,0.0,0.0,0.0,0.0,0.0,0.0,0.0,0.0,0.0,0.0,0.0,0.0,-1.0126,0.0,0.0,0.0,0.0,0.0,0.0,0.0,0.0,0.0,0.0,0.0,-1.6196,-1.7259,-1.7801,-1.8298,-1.882,-1.9065,-1.9192,0.0,0.0,0.0,0.0,0.0,0.0,0.0,0.0,0.0,0.0,0.0,0.0,0.0,0.0,-1.5008,-1.5061,-1.5105,-1.515,-1.5194,0.0,0.0,0.0,0.0,0.0,0.0,0.0,0.0,0.0,0.0,0.0,0.0,0.0,0.0,0.0,0.0,-1.8908,0.0,0.0,0.0,0.0,0.0,0.0,0.0,0.0,-2.063,-2.0907,-2.0907,-2.0901,-2.0897,0.0,-2.0908,-2.0646,0.0,0.0,0.0,0.0,0.0,0.0,0.0,0.0,-1.9735,-2.0265,-2.0292,-2.0295,-2.0295,-2.0292,-2.0285,-2.0233,-1.9862,-1.9097,-1.7928,-1.6791,-1.5894,0.0,0.0,0.0,0.0,0.0,0.0,0.0,0.0,0.0,0.0,0.0,0.0,0.0,0.0,0.0,0.0,0.0,0.0,0.0,0.0,0.0,0.0,0.0,-1.0971,0.0,0.0,0.0,0.0,0.0,0.0,0.0,0.0,0.0,-1.5895,-1.6331,-1.7026,-1.8054,-1.8397,-1.8702,-1.9224,0.0,0.0,0.0,0.0,0.0,0.0,0.0,-1.8537,-1.8381,-1.8348,-1.8277,-1.8204,-1.7766,-1.7256,-1.6767,0.0,0.0,-1.5947,-1.5881,-1.5954,-1.599,-1.6027,-1.5906,-1.5494,-1.5446,-1.5377,0.0,0.0,0.0,0.0,0.0,0.0,0.0,0.0,-2.2477,-2.2397,0.0,-2.1527,0.0,0.0,0.0,0.0,0.0,0.0,0.0,0.0,-2.2521,-2.2614,-2.2582,-2.2571,-2.2601,-2.2601,-2.2571,-2.2562,-2.2467,-2.0947,0.0,0.0,0.0,0.0,0.0,0.0,-2.0304,-2.0304,-2.029,-2.0297,-2.0297,-2.0299,-2.0292,-2.0265,-1.9388,-1.8849,-1.8731,-1.7156,-1.6182,-1.5995,-1.5224,0.0,0.0,0.0,0.0,0.0,0.0,0.0,0.0,0.0,0.0,0.0,0.0,0.0,0.0,0.0,0.0,0.0,0.0,0.0,0.0,-1.2403,0.0,0.0,0.0,0.0,0.0,0.0,0.0,0.0,0.0,0.0,-1.6043,-1.7262,-1.8202,-1.8239,0.0,0.0,0.0,0.0,-1.9192,-1.9192,-1.9025,-1.8887,-1.8887,-1.8733,-1.8584,-1.8505,0.0,0.0,-1.8232,-1.8211,-1.8176,-1.82,-1.8177,-1.7817,-1.6306,-1.6119,-1.6147,-1.6139,-1.6246,-1.6195,-1.6247,-1.6348,-1.6419,-2.5696,0.0,0.0,0.0,0.0,-2.262,-2.2618,-2.2615,-2.2585,-2.2582,-2.2559,-2.2306,0.0,0.0,0.0,0.0,0.0,0.0,-2.2336,-2.2559,-2.2593,-2.2604,-2.2604,-2.2612,-2.2609,-2.2609,-2.2635,-2.267,-2.2651,-2.2187,-2.1651,-2.1048,0.0,0.0,0.0,0.0,-2.0295,-2.0288,-2.0295,-2.0295,-2.0299,-2.0297,-2.0277,-2.0229,-1.9896,-1.9431,-1.8812,-1.7667,-1.6739,-1.6027,-1.5248,0.0,0.0,0.0,0.0,0.0,0.0,0.0,0.0,0.0,0.0,0.0,0.0,0.0,0.0,0.0,0.0,0.0,0.0,0.0,-1.2384,-1.2906,-1.3259,0.0,0.0,0.0,0.0,0.0,0.0,0.0,0.0,0.0,-1.7634,-1.7946,-1.8423,0.0,0.0,-1.9279,-1.9279,-1.923,-1.9192,-1.9192,0.0,0.0,0.0,-1.8715,-1.8584,-1.8505,-1.8388,-1.8287,-1.8277,-1.8274,-1.8274,-1.8256,-1.8277,-1.8132,-1.7746,-1.7626,-1.7638,-1.7751,-1.7789,-1.7643,-1.7241,-1.7204,-1.711,-2.7766,-2.6688,-2.5308,-2.4706,-2.4676,-2.4637,-2.4614,-2.4616,-2.4604,-2.4401,-2.4085,-2.3743,-2.34,-2.3046,-2.2747,0.0,0.0,0.0,-2.3292,-2.3578,-2.3612,-2.3629,-2.3635,-2.3632,-2.3638,-2.3619,-2.3665,-2.3699,-2.368,-2.3347,-2.2954,-2.2422,0.0,0.0,-2.1266,-2.1317,-2.1324,-2.1329,-2.1011,-2.0859,-2.084,-2.0485,-2.0265,-2.021,-2.0158,-1.9855,-1.9273,-1.8392,-1.7495,-1.6575,-1.5744,-1.508,0.0,0.0,0.0,0.0,0.0,0.0,0.0,0.0,0.0,0.0,0.0,-1.2216,-1.2205,0.0,0.0,0.0,-1.309,-1.3299,-1.3353,-1.4104,0.0,0.0,0.0,0.0,0.0,0.0,0.0,-1.7485,-1.7999,-1.8432,-1.876,-1.8767,-1.8903,-1.9427,-1.9387,-1.9279,-1.9279,0.0,-1.932,-1.9621,-1.9531,-1.9525,-1.9803,-1.9716,-1.9597,-1.9429,-1.9318,-1.9094,-1.8826,-1.8781,-1.8666,-1.8398,-1.8311,-1.837,-1.8378,-1.8388,-1.8435,-1.8485,-1.8524,-1.8406,-1.8065,-1.8075,-1.8008,-2.9481,-2.9333,-2.8468,-2.7941,-2.77,-2.7714,-2.7701,-2.7695,-2.7612,-2.7198,-2.6441,-2.5653,-2.4854,-2.4061,-2.3343,0.0,-2.4118,-2.4167,-2.4598,-2.5304,-2.5365,-2.5401,-2.5401,-2.5382,-2.5401,-2.5401,-2.5335,-2.5313,-2.5256,-2.4493,-2.4096,-2.4077,-2.3361,-2.2949,-2.2835,-2.2856,-2.2894,-2.2875,-2.2162,-2.1746,-2.1688,-2.0839,-2.0327,-2.0196,-2.0208,-2.0141,-1.9987,-1.9175,-1.8318,-1.7516,-1.6533,-1.5631,-1.4842,0.0,0.0,0.0,0.0,0.0,0.0,0.0,0.0,0.0,0.0,0.0,0.0,0.0,0.0,0.0,-1.4424,0.0,-1.501,-1.5714,0.0,0.0,0.0,-1.7298,-1.729,-1.7304,-1.7591,-1.8327,0.0,0.0,-1.9497,0.0,-1.9601,-1.9601,-1.9471,-1.9407,-1.9389,-1.9457,-1.9666,-2.0387,-2.04,-2.0543,-2.1046,-2.1099,-2.0957,-2.0731,-2.0745,-2.0392,-1.9761,-1.9599,-1.9297,-1.8739,-1.8525,-1.8531,-1.86,-1.8657,-1.8598,-1.8551,-1.8574,-1.8642,-1.8726,-1.8807,-1.8875,-3.2072,-3.1985,-3.1078,-2.9569,-2.7788,-2.7708,-2.7701,-2.7701,-2.7676,-2.7555,-2.7383,-2.7186,-2.6976,-2.6759,-2.6568,-2.6594,-2.6778,-2.6785,-2.6886,-2.7077,-2.7103,-2.7109,-2.709,-2.7109,-2.7109,-2.7077,-2.6475,-2.6192,-2.6153,-2.5383,-2.499,-2.4971,-2.485,-2.4124,-2.2933,-2.2883,-2.2882,-2.2893,-2.2706,-2.2278,-2.1645,-2.1408,-2.0951,-2.0285,-2.0244,-2.0168,-2.0069,-1.9225,-1.8629,-1.8302,-1.6836,-1.5911,-1.5684,-1.4998,0.0,0.0,0.0,0.0,0.0,0.0,0.0,0.0,0.0,-1.4122,-1.4124,0.0,-1.449,0.0,-1.5334,-1.6106,-1.6727,-1.6971,0.0,0.0,-1.7189,-1.7517,-1.8043,-1.8118,-1.8403,-1.92,-1.9311,-1.936,-1.9583,-2.007,-2.0432,-2.0406,-2.0292,-2.0209,-2.0236,-2.0753,-2.1141,-2.1279,-2.1234,-2.1233,-2.1392,-2.1273,-2.1184,-2.0987,-2.0912,-2.0769,-2.0528,-2.0455,-2.0346,-2.019,-1.9682,-1.9408,-1.9467,-1.9121,-1.8786,-1.8732,-1.8742,-1.8806,-1.8932,-1.9019,-1.9095,-3.2989,-3.296,-3.2417,-3.1373,-3.0004,-2.9168,-2.8816,-2.8809,-2.8809,-2.8593,-2.8211,-2.7867,-2.7701,-2.7701,-2.7701,-2.7701,-2.7701,-2.7701,-2.7701,-2.7701,-2.7701,-2.7701,-2.7701,-2.7701,-2.7701,-2.7682,-2.7285,-2.7085,-2.7033,-2.6257,-2.589,-2.5865,-2.5557,-2.4928,-2.406,-2.4049,-2.4068,-2.4041,-2.3674,-2.3067,-2.2202,-2.1794,-2.1355,-2.085,-2.0425,-2.0177,-2.0093,-1.9616,-1.9113,-1.861,-1.7665,-1.6967,-1.6551,-1.604,-1.5574,0.0,0.0,0.0,0.0,0.0,0.0,0.0,0.0,0.0,0.0,0.0,-1.5916,-1.5955,-1.6441,-1.6904,-1.7358,-1.7721,-1.7912,-1.7836,-1.8175,-1.8558,-1.8939,-1.8976,-1.913,-1.956,-1.9924,-2.014,-2.0158,-2.0808,-2.1258,-2.1253,-2.1457,-2.148,-2.118,-2.1457,-2.1798,-2.2109,-2.2099,-2.2158,-2.2405,-2.2342,-2.2203,-2.212,-2.2025,-2.1869,-2.1512,-2.1379,-2.128,-2.0936,-2.053,-2.0128,-1.9929,-1.9624,-1.9262,-1.8968,-1.8914,-1.8958,-1.9027,-1.9104,-1.9186,-3.3323,-3.3312,-3.3147,-3.3057,-3.2909,-3.125,-3.0532,-3.0524,-3.0536,-3.0032,-2.9172,-2.837,-2.8007,-2.8033,-2.8026,-2.8026,-2.8026,-2.8007,-2.8026,-2.8026,-2.8026,-2.8026,-2.8026,-2.802,-2.8026,-2.8026,-2.7975,-2.7947,-2.7915,-2.7141,-2.6692,-2.6563,-2.5919,-2.5502,-2.5391,-2.5448,-2.5488,-2.5488,-2.4737,-2.3937,-2.3087,-2.2315,-2.1779,-2.1504,-2.0755,-2.0273,-2.0112,-2.0029,-1.9639,-1.8815,-1.8665,-1.8213,-1.7413,-1.7254,-1.6865,0.0,-1.6718,0.0,0.0,0.0,0.0,0.0,0.0,0.0,0.0,-1.6894,-1.7382,-1.756,-1.757,-1.7593,-1.7694,-1.8367,-1.8732,-1.8711,-1.9332,-1.9776,-1.9699,-1.978,-1.9828,-1.9764,-2.0463,-2.0957,-2.0994,-2.1639,-2.2134,-2.2111,-2.2679,-2.2848,-2.2289,-2.2135,-2.2383,-2.2968,-2.2938,-2.3069,-2.351,-2.3566,-2.3455,-2.3457,-2.3305,-2.3118,-2.2462,-2.2355,-2.2136,-2.1544,-2.1306,-2.1,-2.0422,-2.0209,-1.981,-1.9327,-1.9162,-1.9095,-1.9112,-1.916,-1.924,-3.5096,-3.5039,-3.4283,-3.391,-3.378,-3.2826,-3.2363,-3.2307,-3.2256,-3.1766,-3.0953,-3.0112,-2.9703,-2.9722,-2.974,-2.9726,-2.9733,-2.9726,-2.9726,-2.9726,-2.9726,-2.9707,-2.9726,-2.9733,-2.9726,-2.9695,-2.9085,-2.8785,-2.8746,-2.7963,-2.7248,-2.6596,-2.6458,-2.6039,-2.543,0.0,0.0,0.0,-2.5337,-2.4822,-2.3995,-2.374,-2.294,-2.1562,-2.1331,0.0,-2.015,-2.0049,-1.9893,-1.9656,-1.8975,0.0,0.0,0.0,0.0,0.0,0.0,0.0,0.0,0.0,0.0,0.0,-1.7787,-1.7812,-1.7133,-1.7266,-1.7665,-1.838,-1.8447,-1.8725,-1.9365,-1.9575,-1.9622,-1.9587,-1.9707,-1.9776,-1.9737,-2.0265,-2.0642,-2.06,-2.1272,-2.1773,-2.1829,-2.2483,-2.2959,-2.2987,-2.3591,-2.3934,-2.3741,-2.3639,-2.3739,-2.3847,-2.3752,-2.3727,-2.3788,-2.3742,-2.3696,-2.3678,-2.3607,-2.3439,-2.328,-2.3204,-2.3221,-2.2948,-2.2546,-2.211,-2.1975,-2.1045,-2.0191,-2.0056,-1.9547,-1.9117,-1.9168,-1.9248,-1.9323,-3.6196,0.0,-3.5213,-3.482,0.0,-3.4325,-3.4105,-3.4019,-3.3133,-3.2513,-3.2131,-3.1672,-3.1473,-3.1473,-3.1484,-3.1252,-3.0844,-3.0842,-3.0605,-3.0204,-3.0204,-3.0204,-3.0204,-3.0204,-3.0204,-3.0192,-2.978,-2.9589,-2.9551,-2.8815,-2.8236,-2.7849,-2.7444,-2.6815,-2.6005,-2.5597,-2.5429,-2.5507,-2.5507,-2.5263,-2.479,-2.4334,-2.3664,-2.2751,0.0,0.0,0.0,0.0,0.0,0.0,0.0,0.0,0.0,0.0,0.0,-1.7874,-1.8204,-1.826,-1.7905,-1.8234,-1.8501,-1.8536,-1.8989,-1.9092,-1.8604,-1.8634,-1.8855,-1.929,-1.9338,-1.9498,-1.9868,-2.0255,-2.0476,-2.0458,-2.0803,-2.0994,-2.0945,-2.1248,-2.1481,-2.1481,-2.2089,-2.259,-2.259,-2.3306,-2.3781,-2.381,-2.4099,-2.4312,-2.4257,-2.4219,-2.4181,-2.4113,-2.4084,-2.4016,-2.3935,-2.3827,-2.3803,-2.3739,-2.3682,-2.3652,-2.36,-2.3589,-2.3607,-2.3582,-2.3282,-2.2977,-2.2571,-2.188,-2.1196,-2.0517,-2.0049,-1.9634,-1.9374,-1.9311,-1.9387,-3.7019,-3.6948,-3.6239,-3.5942,-3.5942,-3.5869,-3.5785,-3.5508,0.0,0.0,0.0,-3.2882,-3.2805,-3.2825,-3.2802,-3.2417,-3.1752,-3.1723,-3.1338,-3.0643,-3.0643,-3.0567,-3.0433,-3.0433,-3.0345,-3.0211,-3.0213,-3.0207,-3.0176,-2.9608,-2.9242,-2.9062,-2.8434,-2.7613,-2.6646,-2.5955,-2.5584,-2.5507,-2.5484,-2.5448,-2.5372,-2.4692,-2.4229,-2.3995,-2.2662,-2.1809,-2.1528,-2.0683,-2.0193,-2.0132,-1.9977,-1.9861,-1.9801,-1.9751,-1.9407,-1.8821,-1.9338,-1.9426,-1.8814,-1.9401,-1.9882,-2.0026,-2.0151,-2.0126,-1.9947,-1.9955,-2.008,-2.0218,-2.0232,-2.0272,-2.0352,-2.0934,-2.1331,-2.1343,-2.1912,-2.2232,-2.2114,-2.2249,-2.2312,-2.229,-2.2924,-2.3434,-2.3452,-2.4026,-2.4482,-2.442,-2.4402,-2.4375,-2.4312,-2.4266,-2.4192,-2.4134,-2.4114,-2.4085,-2.4016,-2.3945,-2.3847,-2.3845,-2.38,-2.3754,-2.3725,-2.3736,-2.3736,-2.3743,-2.3754,-2.3489,-2.2998,-2.2692,-2.225,-2.1087,-2.0754,-2.0482,-1.9787,-1.9608,-1.9667,-3.7893,-3.7833,-3.7695,-3.7642,-3.7642,-3.7635,-3.7212,-3.6397,-3.4677,-3.3934,-3.3876,-3.3197,-3.289,-3.289,-3.2825,-3.2732,-3.262,-3.2601,-3.2515,0.0,-3.2336,-3.1973,-3.1331,-3.1331,-3.093,-3.0249,-3.0211,-3.0206,-3.0195,-3.0158,-2.9793,-2.9171,-2.9,-2.8172,-2.679,-2.6567,-2.6183,-2.5526,-2.5452,-2.5417,-2.5391,-2.5296,-2.4827,-2.4019,-2.3789,-2.3259,-2.2435,-2.1586,-2.1081,-2.1008,-2.0298,-1.9873,-1.9812,-1.982,-1.9738,-1.9626,-1.9719,-1.9744,-1.9631,-1.9799,-2.021,-2.0929,-2.1081,-2.0809,-2.0062,-1.9991,-2.0314,-2.1018,-2.113,-2.1417,-2.2032,-2.2161,-2.2224,-2.2211,-2.2289,-2.2269,-2.2227,-2.2798,-2.3177,-2.307,-2.3795,-2.4286,-2.4268,-2.4407,-2.45,-2.4491,-2.4474,-2.4465,-2.4403,-2.433,-2.4248,-2.4192,-2.4182,-2.4163,-2.4103,-2.4074,-2.4016,-2.3986,-2.3937,-2.3915,-2.3865,-2.3904,-2.3915,-2.3876,-2.3904,-2.3891,-2.3739,-2.322,-2.2803,-2.242,-2.2014,-2.1395,-2.0662,-2.0522,-2.0363,-3.8773,-3.8654,-3.8214,-3.8007,-3.8007,-3.8007,-3.7777,-3.7346,-3.6589,-3.5691,-3.4845,-3.4461,-3.4307,-3.43,-3.4234,-3.3949,-3.3499,-3.3477,-3.3184,-3.2718,-3.268,-3.2508,-3.2183,-3.2164,-3.1706,-3.093,-3.0911,-3.0651,-3.0232,-3.0221,-3.0062,-2.9736,-2.931,-2.8744,-2.8063,-2.7591,-2.6954,-2.617,-2.5653,-2.5393,-2.5391,-2.5351,-2.513,-2.4661,-2.4204,-2.3744,-2.328,-2.2443,-2.1971,-2.1908,-2.15,-2.1249,-2.1211,-2.1205,-2.1211,-2.1211,-2.1205,-2.1218,-2.1218,-2.128,-2.1509,-2.1907,-2.1997,-2.1852,-2.1502,-2.1422,-2.1567,-2.1967,-2.2007,-2.2129,-2.2467,-2.2849,-2.3081,-2.3042,-2.3401,-2.3618,-2.3543,-2.3785,-2.4006,-2.3948,-2.4248,-2.45,-2.45,-2.45,-2.45,-2.45,-2.45,-2.4482,-2.4456,-2.442,-2.4375,-2.4275,-2.4257,-2.4229,-2.4163,-2.4152,-2.4123,-2.4074,-2.4016,-2.3996,-2.3947,-2.3986,-2.3986,-2.3958,-2.3986,-2.4026,-2.4084,-2.3829,-2.3474,-2.3042,-2.2865,-2.227,-2.1646,-2.1157,-2.0625,-3.9634,-3.9487,-3.8849,-3.8565,-3.8527,-3.8373,-3.8296,-3.8277,-3.8084,-3.7276,-3.6135,-3.5865,-3.5692,-3.5493,-3.5453,-3.5033,-3.4434,-3.4308,-3.3938,-3.331,-3.3253,-3.3158,-3.3005,-3.2986,-3.2565,-3.1809,-3.158,-3.114,-3.0536,-3.0315,-3.0234,-3.0228,-2.9682,-2.9305,-2.9184,-2.8524,-2.7788,-2.6968,-2.6114,-2.5588,-2.5402,-2.5351,-2.5259,-2.5154,-2.4566,-2.4161,-2.4055,-2.3307,-2.2846,-2.2766,-2.254,-2.2407,-2.2407,-2.2407,-2.2401,-2.2401,-2.2401,-2.2395,-2.2414,-2.2482,-2.2623,-2.2887,-2.2898,-2.2983,-2.3235,-2.3206,-2.3086,-2.2928,-2.2898,-2.2957,-2.3194,-2.3626,-2.3972,-2.3963,-2.4421,-2.4682,-2.4687,-2.4666,-2.4599,-2.453,-2.4507,-2.4508,-2.45,-2.45,-2.45,-2.45,-2.45,-2.45,-2.45,-2.45,-2.4446,-2.4375,-2.4339,-2.4312,-2.4247,-2.4228,-2.4209,-2.4152,-2.4105,-2.4085,-2.4085,-2.4075,-2.4075,-2.4085,-2.4075,-2.4105,-2.419,-2.4191,-2.3989,-2.3564,-2.3478,-2.3242,-2.2478,-2.1771,-2.1056,-4.0436,-4.0389,-4.0227,-4.0265,-4.0131,-3.9477,-3.9188,-3.9092,-3.8373,-3.795,-3.7661,-3.6949,-3.6212,-3.5558,-3.5538,-3.54,-3.52,-3.5174,-3.5051,-3.4904,-3.4953,-3.4579,-3.391,-3.3872,-3.3433,-3.2585,-3.1859,-3.1515,-3.135,-3.0621,-3.0247,-3.0292,-3.0233,-2.984,-2.9289,-2.9121,-2.865,-2.7803,-2.694,-2.6126,-2.5452,-2.5327,-2.5262,-2.5212,-2.5124,-2.5047,-2.4911,-2.4163,-2.3657,-2.3525,-2.2861,-2.2426,-2.2445,-2.2432,-2.242,-2.2445,-2.2432,-2.2413,-2.2512,-2.2551,-2.2983,-2.3676,-2.3769,-2.4096,-2.4798,-2.4913,-2.4591,-2.3984,-2.3787,-2.4064,-2.4752,-2.4835,-2.4801,-2.4737,-2.4785,-2.4783,-2.4718,-2.4679,-2.465,-2.4512,-2.4503,-2.4505,-2.4508,-2.4508,-2.45,-2.45,-2.45,-2.45,-2.45,-2.45,-2.45,-2.4474,-2.4438,-2.4358,-2.4294,-2.4284,-2.4266,-2.4284,-2.4266,-2.4247,-2.4238,-2.4238,-2.4257,-2.421,-2.4247,-2.4247,-2.4266,-2.4284,-2.4275,-2.4181,-2.4141,-2.4134,-2.3403,-2.2626,-2.1882,-4.0564,-4.0496,-4.0496,-4.0496,-4.0439,-4.015,-4.0015,-3.9958,-3.9623,-3.9219,-3.8757,-3.8373,-3.7777,-3.6962,-3.6462,-3.6157,-3.6044,-3.5538,-3.527,-3.519,-3.5182,-3.5018,-3.4751,-3.4694,-3.4292,-3.3509,-3.3089,-3.2669,-3.2134,-3.1367,-3.0745,-3.035,-3.0311,-3.0149,-2.994,-2.9902,-2.949,-2.8629,-2.8258,-2.767,-2.6802,-2.5767,-2.5222,-2.5187,-2.5178,-2.5132,-2.5082,-2.4708,-2.4505,-2.4453,-2.4111,-2.3916,-2.3934,-2.3934,-2.3928,-2.3928,-2.3935,-2.3986,-2.4096,-2.4125,-2.4293,-2.4643,-2.4673,-2.4842,-2.5189,-2.5222,-2.5058,-2.4809,-2.467,-2.4822,-2.5105,-2.5088,-2.505,-2.5017,-2.4943,-2.4879,-2.4783,-2.4726,-2.466,-2.4623,-2.4555,-2.4495,-2.4497,-2.4498,-2.45,-2.45,-2.45,-2.45,-2.45,-2.45,-2.45,-2.45,-2.4474,-2.4438,-2.4385,-2.4376,-2.4348,-2.4303,-2.4294,-2.4294,-2.4303,-2.4294,-2.4294,-2.4303,-2.4312,-2.4321,-2.4339,-2.4393,-2.4447,-2.4472,-2.4541,-2.4513,-2.4206,-2.3521,-2.2896,-4.128,-4.1166,-4.0958,-4.0719,-4.0496,-4.0496,-4.0496,-4.0496,-4.0496,-4.0169,-3.965,-3.9631,-3.9284,-3.8584,-3.7565,-3.7009,-3.6873,-3.6312,-3.5844,-3.5635,-3.5553,-3.545,-3.522,-3.5182,-3.4904,-3.4396,-3.4071,-3.3528,-3.2718,-3.2137,-3.1426,-3.0739,-3.0657,-3.0573,-3.0386,-3.0379,-3.0096,-2.9486,-2.9256,-2.8791,-2.8032,-2.665,-2.5789,-2.5554,-2.5257,-2.5082,-2.5082,-2.5018,-2.4985,-2.4984,-2.4984,-2.4984,-2.4984,-2.4984,-2.4991,-2.4998,-2.5031,-2.5095,-2.5205,-2.5203,-2.5212,-2.5236,-2.5222,-2.5252,-2.5273,-2.5262,-2.5238,-2.5253,-2.5241,-2.5198,-2.5203,-2.5149,-2.5095,-2.5037,-2.5004,-2.495,-2.4846,-2.4768,-2.4723,-2.4706,-2.4613,-2.4537,-2.4512,-2.4497,-2.4517,-2.4508,-2.45,-2.45,-2.45,-2.45,-2.45,-2.4508,-2.4498,-2.4472,-2.4438,-2.443,-2.4393,-2.4375,-2.4348,-2.4375,-2.4367,-2.4348,-2.4357,-2.4383,-2.4375,-2.4384,-2.4455,-2.4517,-2.4542,-2.4593,-2.4642,-2.469,-2.4575,-2.4122,-2.3947,-4.3052,-4.2842,-4.2101,-4.1304,-4.0535,-4.0554,-4.0535,-4.0593,-4.0516,-4.0458,-4.04,-4.04,-4.04,-4.0189,-3.8681,-3.7908,-3.7851,-3.7709,-3.7228,-3.6567,-3.6468,-3.6003,-3.522,-3.5182,-3.5182,-3.4999,-3.4415,-3.3643,-3.2795,-3.268,-3.2244,-3.1503,-3.1461,-3.1111,-3.0496,-3.0405,-3.0385,-3.0186,-2.9548,-2.9094,-2.8948,-2.8069,-2.7191,-2.6496,-2.5596,-2.5139,-2.5095,-2.5043,-2.4984,-2.4984,-2.4984,-2.4984,-2.4984,-2.4984,-2.4998,-2.5018,-2.5126,-2.5185,-2.5203,-2.5204,-2.5241,-2.5287,-2.5297,-2.5302,-2.5322,-2.5308,-2.5308,-2.5303,-2.5307,-2.5271,-2.5223,-2.5189,-2.5174,-2.5101,-2.5037,-2.5017,-2.4977,-2.4875,-2.4764,-2.4723,-2.4673,-2.4618,-2.452,-2.4503,-2.4598,-2.461,-2.4564,-2.4657,-2.4777,-2.4675,-2.4711,-2.4737,-2.469,-2.4524,-2.4545,-2.45,-2.4481,-2.4472,-2.4472,-2.4491,-2.449,-2.4507,-2.4497,-2.4495,-2.4513,-2.4549,-2.4582,-2.4599,-2.4634,-2.4658,-2.4666,-2.4679,-2.4718,-2.4749,-2.4614,-4.319,-4.3138,-4.2834,-4.2483,-4.2133,-4.1613,-4.1378,-4.1296,-4.0727,-4.0496,-4.0496,-4.0496,-4.0496,-4.0458,-3.9881,-3.9281,-3.8723,-3.8169,-3.7707,-3.7379,-3.729,-3.6833,-3.6099,-3.6042,-3.5698,-3.5209,-3.4904,-3.4331,-3.3624,-3.3528,-3.3131,-3.2357,-3.1778,-3.1365,-3.1085,-3.0586,-3.0324,-3.0305,-3.0011,-2.9839,-2.9717,-2.8964,-2.8371,-2.7994,-2.6606,-2.5628,-2.5101,-2.5037,-2.4984,-2.4984,-2.4984,-2.4984,-2.4991,-2.4985,-2.5018,-2.5051,-2.5156,-2.5208,-2.5204,-2.5233,-2.5298,-2.5361,-2.5361,-2.5389,-2.536,-2.536,-2.536,-2.5374,-2.5394,-2.5346,-2.5273,-2.5231,-2.5187,-2.5174,-2.5138,-2.5089,-2.5024,-2.4952,-2.4903,-2.4846,-2.4761,-2.466,-2.4775,-2.5003,-2.5312,-2.5386,-2.5797,-2.6058,-2.6141,-2.616,-2.6067,-2.6159,-2.6159,-2.6178,-2.6187,-2.5144,-2.4584,-2.4566,-2.4566,-2.4576,-2.4584,-2.4566,-2.4574,-2.4555,-2.4607,-2.4615,-2.4615,-2.4639,-2.4674,-2.4679,-2.4695,-2.4718,-2.4757,-2.4787,-2.4832,-4.3861,-4.3639,-4.3605,-4.3428,-4.3054,-4.2514,-4.226,-4.2124,-4.1296,-4.092,-4.0881,-4.0631,-4.0496,-4.0496,-4.0496,-4.0192,-3.9584,-3.8999,-3.8556,-3.8219,-3.8176,-3.771,-3.7005,-3.6891,-3.6443,-3.5679,-3.5324,-3.4904,-3.4445,-3.4396,-3.3964,-3.3165,-3.256,-3.2199,-3.1895,-3.1142,-3.0727,-3.0688,-3.0414,-3.0234,-3.0137,-2.9672,-2.9212,-2.8796,-2.7757,-2.6618,-2.5552,-2.5416,-2.5231,-2.5041,-2.4984,-2.4991,-2.5004,-2.5018,-2.507,-2.5119,-2.5172,-2.5204,-2.5233,-2.5303,-2.5337,-2.5384,-2.5402,-2.5487,-2.5758,-2.5815,-2.5931,-2.6124,-2.6201,-2.6183,-2.6131,-2.6115,-2.5838,-2.5384,-2.5208,-2.5155,-2.5082,-2.5057,-2.5144,-2.5303,-2.5258,-2.5252,-2.5442,-2.5903,-2.6148,-2.6232,-2.6764,-2.7063,-2.7101,-2.7101,-2.7091,-2.71,-2.6988,-2.6959,-2.6893,-2.6163,-2.5419,-2.5298,-2.5122,-2.4999,-2.4802,-2.4773,-2.4698,-2.4661,-2.4631,-2.4639,-2.4647,-2.4671,-2.4695,-2.47,-2.4715,-2.4749,-2.4787,-2.4824,-2.4868,-4.5247,-4.4544,-4.4507,-4.4052,-4.3378,-4.3196,-4.3115,-4.2959,-4.22,-4.1788,-4.172,-4.0989,-4.0746,-4.0573,-4.065,-4.0516,-4.0365,-4.0257,-3.9832,-3.9169,-3.9108,-3.8605,-3.7759,-3.7712,-3.7292,-3.6481,-3.5649,-3.5248,-3.5229,-3.5114,-3.4694,-3.4117,-3.3846,-3.3383,-3.2797,-3.2041,-3.1583,-3.1346,-3.0725,-3.0284,-3.0207,-3.0129,-2.9746,-2.9082,-2.8845,-2.8048,-2.6453,-2.6277,-2.5908,-2.5282,-2.5181,-2.5055,-2.5139,-2.5108,-2.5119,-2.5191,-2.5242,-2.5271,-2.5375,-2.5534,-2.5673,-2.5695,-2.555,-2.5979,-2.6577,-2.6731,-2.6963,-2.7484,-2.7653,-2.7726,-2.7682,-2.7658,-2.7079,-2.5622,-2.554,-2.5537,-2.5401,-2.5245,-2.5412,-2.6015,-2.6114,-2.636,-2.6894,-2.7095,-2.7125,-2.7128,-2.7306,-2.7483,-2.7539,-2.7558,-2.7277,-2.7285,-2.7537,-2.778,-2.7516,-2.7158,-2.662,-2.6173,-2.5951,-2.5764,-2.5396,-2.5236,-2.5121,-2.5046,-2.4735,-2.4717,-2.4668,-2.4711,-2.4718,-2.4742,-2.4764,-2.4787,-2.4824,-2.4861,-2.4896,-4.565,-4.5418,-4.5392,-4.5247,-4.4882,-4.433,-4.4041,-4.3904,-4.3082,-4.2701,-4.2643,-4.2412,-4.197,-4.1489,-4.1393,-4.1066,-4.0535,-4.05,-4.0334,-4.0055,-3.9949,-3.9465,-3.8778,-3.8609,-3.8151,-3.7311,-3.6481,-3.608,-3.5965,-3.5496,-3.5037,-3.4789,-3.4262,-3.3907,-3.359,-3.2787,-3.2106,-3.1494,-3.1219,-3.083,-3.0275,-3.0211,-3.007,-2.9834,-2.9742,-2.9186,-2.8131,-2.748,-2.706,-2.6737,-2.6794,-2.6541,-2.5996,-2.5425,-2.5156,-2.5247,-2.5789,-2.6126,-2.626,-2.6747,-2.707,-2.7146,-2.7149,-2.7293,-2.7544,-2.7602,-2.7718,-2.7989,-2.7989,-2.7965,-2.7961,-2.7957,-2.7711,-2.7129,-2.707,-2.6952,-2.6824,-2.6828,-2.6937,-2.7023,-2.7059,-2.7123,-2.7344,-2.7652,-2.8039,-2.807,-2.8426,-2.8783,-2.882,-2.8689,-2.8895,-2.8876,-2.8885,-2.8659,-2.8535,-2.8383,-2.8065,-2.7448,-2.7037,-2.6543,-2.6139,-2.5809,-2.5657,-2.544,-2.512,-2.4884,-2.4828,-2.4742,-2.4757,-2.4772,-2.4795,-2.4832,-2.4868,-2.4896,-2.4924,-4.5807,-4.5807,-4.5807,-4.5805,-4.5742,-4.5163,-4.4913,-4.4749,-4.3918,-4.3547,-4.3508,-4.322,-4.2816,-4.2374,-4.2297,-4.1777,-4.1027,-4.0969,-4.0819,-4.0526,-4.0413,-4.0045,-3.9512,-3.9125,-3.8763,-3.8132,-3.7349,-3.6787,-3.6462,-3.5965,-3.5526,-3.5152,-3.4674,-3.4445,-3.4369,-3.3624,-3.2879,-3.2382,-3.2088,-3.1541,-3.0873,-3.0643,-3.051,-3.0261,-3.0164,-2.9882,-2.9367,-2.8819,-2.8264,-2.7729,-2.7596,-2.7331,-2.6835,-2.6358,-2.609,-2.6251,-2.6622,-2.7012,-2.7132,-2.7552,-2.7933,-2.798,-2.7982,-2.8165,-2.8378,-2.8479,-2.8565,-2.8913,-2.901,-2.8962,-2.8988,-2.8974,-2.8922,-2.8867,-2.8191,-2.7923,-2.781,-2.7739,-2.7835,-2.7885,-2.7964,-2.8036,-2.8342,-2.855,-2.8928,-2.8977,-2.9335,-2.9701,-2.9692,-2.9644,-2.9701,-2.971,-2.9559,-2.9482,-2.9651,-2.9565,-2.948,-2.8868,-2.8211,-2.7573,-2.6981,-2.668,-2.6481,-2.6255,-2.5981,-2.5578,-2.5472,-2.4956,-2.4802,-2.4817,-2.4888,-2.4868,-2.4896,-2.4924,-2.4964,-4.5807,-4.5807,-4.5807,-4.5805,-4.5788,-4.5665,-4.5607,-4.5508,-4.4765,-4.4374,-4.422,-4.3758,-4.3297,-4.3201,-4.3162,-4.2681,-4.1981,-4.1854,-4.1431,-4.0865,-4.0652,-4.0498,-4.0116,-3.9507,-3.9183,-3.8973,-3.819,-3.7445,-3.6939,-3.6653,-3.6137,-3.5439,-3.5335,-3.5209,-3.4999,-3.4407,-3.3968,-3.3662,-3.3108,-3.2382,-3.1599,-3.1389,-3.1052,-3.0383,-3.0256,-3.0161,-3.0084,-2.997,-2.9324,-2.801,-2.7878,-2.777,-2.7688,-2.7682,-2.7534,-2.7564,-2.7777,-2.7895,-2.7952,-2.8222,-2.8304,-2.8408,-2.8455,-2.8474,-2.9233,-2.939,-2.9616,-3.0212,-3.0348,-3.0425,-3.0397,-3.0388,-3.0361,-3.0269,-2.9138,-2.834,-2.8036,-2.8012,-2.8377,-2.8812,-2.8901,-2.8998,-2.9582,-2.9647,-2.9622,-2.9614,-2.9653,-2.97,-2.9718,-2.9736,-2.9745,-2.9773,-2.9792,-2.979,-2.9808,-2.9798,-2.9693,-2.9502,-2.8995,-2.8552,-2.7943,-2.7641,-2.7132,-2.6943,-2.6763,-2.6367,-2.6065,-2.5699,-2.5291,-2.5205,-2.5151,-2.4998,-2.4943,-2.4983,-2.5034,-4.5807,-4.5807,-4.5807,-4.58,-4.5805,-4.5739,-4.568,-4.5657,-4.5398,-4.519,-4.5171,-4.5047,-4.4509,-4.4028,-4.397,-4.3528,-4.2912,-4.2758,-4.2277,-4.1558,-4.1453,-4.0976,-4.0431,-4.01,-3.9938,-3.9804,-3.9069,-3.8553,-3.8304,-3.7674,-3.6967,-3.6194,-3.608,-3.5793,-3.5248,-3.498,-3.456,-3.409,-3.3815,-3.3242,-3.2439,-3.1819,-3.1393,-3.1164,-3.0598,-3.0317,-3.0279,-3.0286,-3.0099,-2.956,-2.8878,-2.8553,-2.8522,-2.8096,-2.7891,-2.8011,-2.8449,-2.8794,-2.896,-2.9404,-2.9757,-2.9897,-2.9726,-3.0029,-3.0204,-3.026,-3.0384,-3.0617,-3.0617,-3.0617,-3.0617,-3.0613,-3.0591,-3.0506,-2.993,-2.9583,-2.961,-2.9685,-2.971,-2.9834,-2.9755,-2.9787,-2.9821,-2.9885,-2.9834,-2.978,-2.9754,-2.9764,-2.9782,-2.979,-2.9799,-2.9799,-2.9818,-2.9825,-2.9842,-2.9859,-2.9857,-2.9845,-2.9647,-2.9528,-2.903,-2.8665,-2.7986,-2.7393,-2.7352,-2.7058,-2.702,-2.6843,-2.6378,-2.5808,-2.5818,-2.5809,-2.5229,-2.506,-2.5136,-4.5807,-4.5807,-4.5807,-4.5812,-4.5791,-4.5712,-4.5692,-4.5687,-4.5629,-4.5594,-4.5594,-4.5594,-4.5325,-4.4874,-4.4844,-4.4374,-4.3662,-4.3605,-4.3124,-4.2385,-4.1926,-4.1215,-4.0534,-4.0337,-4.0329,-4.0263,-3.9804,-3.9346,-3.8954,-3.8476,-3.7827,-3.7063,-3.6653,-3.6233,-3.5793,-3.5324,-3.5018,-3.4598,-3.4499,-3.4106,-3.3265,-3.2831,-3.2393,-3.2016,-3.1263,-3.074,-3.0388,-3.0312,-3.0266,-3.0105,-2.9728,-2.9447,-2.9421,-2.9066,-2.8798,-2.8874,-2.9376,-2.9684,-2.9808,-3.0253,-3.0496,-3.0564,-3.061,-3.0604,-3.0593,-3.0625,-3.0637,-3.0661,-3.0641,-3.0641,-3.0637,-3.0614,-3.0608,-3.0577,-3.0525,-3.0469,-3.0414,-3.0284,-3.0273,-3.0219,-3.0157,-3.0083,-2.9964,-2.9934,-2.9885,-2.9842,-2.9816,-2.9816,-2.9834,-2.9853,-2.9861,-2.9842,-2.9851,-2.9868,-2.9885,-2.9893,-2.9893,-2.988,-2.988,-2.9883,-2.9715,-2.936,-2.9009,-2.8385,-2.8083,-2.7875,-2.7883,-2.7721,-2.7138,-2.6756,-2.6759,-2.6596,-2.6122,-2.5674,-2.5681,-4.5807,-4.5807,-4.5807,-4.5805,-4.5788,-4.5743,-4.5684,-4.5682,-4.5631,-4.5594,-4.5594,-4.5594,-4.5537,-4.5594,-4.5421,-4.5152,-4.4451,-4.4432,-4.3912,-4.3173,-4.2371,-4.1494,-4.0733,-4.0392,-4.0328,-4.0291,-4.0301,-3.9862,-3.9393,-3.9183,-3.8667,-3.7941,-3.7177,-3.6661,-3.6307,-3.5733,-3.5351,-3.5176,-3.5132,-3.4822,-3.4198,-3.3882,-3.3482,-3.2894,-3.216,-3.1354,-3.0791,-3.0522,-3.0446,-3.0221,-3.0221,-3.015,-3.0155,-3.0228,-3.0216,-3.0132,-3.0176,-3.0337,-3.0449,-3.0446,-3.054,-3.0582,-3.0619,-3.0613,-3.061,-3.0673,-3.0684,-3.0684,-3.0704,-3.0684,-3.068,-3.0645,-3.0625,-3.0608,-3.0601,-3.053,-3.0444,-3.0408,-3.0349,-3.0241,-3.0213,-3.0135,-3.0026,-2.9956,-2.9907,-2.9885,-2.9841,-2.9849,-2.9876,-2.9876,-2.9893,-2.9883,-2.9891,-2.9899,-2.9907,-2.9907,-2.9907,-2.9907,-2.9907,-2.9899,-2.9899,-2.9739,-2.9823,-2.9558,-2.9012,-2.8766,-2.8774,-2.843,-2.7934,-2.765,-2.7593,-2.7524,-2.7361,-2.6921,-2.6731,-4.5807,-4.5807,-4.5807,-4.5805,-4.5807,-4.5743,-4.5684,-4.5673,-4.5631,-4.5594,-4.5594,-4.5594,-4.5594,-4.5594,-4.5594,-4.5479,-4.5267,-4.519,-4.4863,-4.3981,-4.3131,-4.2262,-4.1431,-4.0812,-4.0356,-4.0339,-4.032,-4.0186,-4.0014,-3.9843,-3.9584,-3.8782,-3.8351,-3.7787,-3.6692,-3.6348,-3.5867,-3.5412,-3.5312,-3.5216,-3.4925,-3.4424,-3.4061,-3.3677,-3.3006,-3.2231,-3.1584,-3.1392,-3.1027,-3.0497,-3.0318,-3.0394,-3.0292,-3.0286,-3.0311,-3.0317,-3.0361,-3.0433,-3.0488,-3.049,-3.052,-3.0591,-3.0613,-3.061,-3.0673,-3.0692,-3.0703,-3.0706,-3.0706,-3.0703,-3.0703,-3.0684,-3.0673,-3.0657,-3.0632,-3.0597,-3.053,-3.0466,-3.0373,-3.0299,-3.0227,-3.0157,-3.0095,-3.0022,-2.9975,-2.9934,-2.9891,-2.9891,-2.9891,-2.9899,-2.9907,-2.9916,-2.9916,-2.9916,-2.9916,-2.9916,-2.9916,-2.9916,-2.9916,-2.9916,-2.9916,-2.9916,-2.9916,-2.9897,-2.9764,-2.9593,-2.9385,-2.9442,-2.9014,-2.8741,-2.8408,-2.8283,-2.8127,-2.7869,-2.7671,-4.5807,-4.5807,-4.5807,-4.5771,-4.5739,-4.5715,-4.5668,-4.5637,-4.5603,-4.5594,-4.5594,-4.5594,-4.5594,-4.5594,-4.5594,-4.5594,-4.5594,-4.5594,-4.5364,-4.4769,-4.4023,-4.3356,-4.2831,-4.1866,-4.1179,-4.052,-4.032,-4.032,-4.032,-4.0282,-4.0033,-3.9602,-3.9257,-3.8623,-3.7633,-3.699,-3.6347,-3.5921,-3.5503,-3.5338,-3.5223,-3.499,-3.4461,-3.4191,-3.3692,-3.3122,-3.2352,-3.2256,-3.1994,-3.1558,-3.1155,-3.0727,-3.0375,-3.0305,-3.031,-3.031,-3.0373,-3.0414,-3.0463,-3.049,-3.052,-3.0585,-3.0621,-3.0645,-3.0688,-3.0706,-3.071,-3.0694,-3.0694,-3.0694,-3.0694,-3.0706,-3.0692,-3.0677,-3.0633,-3.0604,-3.0588,-3.0514,-3.0414,-3.0348,-3.0292,-3.0239,-3.0169,-3.0076,-3.0022,-2.9975,-2.9907,-2.9899,-2.9899,-2.9907,-2.9907,-2.9916,-2.9916,-2.9916,-2.9916,-2.9916,-2.9916,-2.9916,-2.9916,-2.9916,-2.9916,-2.9916,-2.9916,-2.9897,-2.9878,-2.9878,-2.9745,-2.9859,-2.9859,-2.9518,-2.9166,-2.8984,-2.8913,-2.8917,-2.865,-4.5807,-4.5807,-4.58,-4.5776,-4.5696,-4.5692,-4.5671,-4.5603,-4.5594,-4.5594,-4.5594,-4.5594,-4.5594,-4.5594,-4.5594,-4.5594,-4.5594,-4.5594,-4.5498,-4.5355,-4.4774,-4.4268,-4.3838,-4.3111,-4.2183,-4.0798,-4.0635,-4.0559,-4.0358,-4.031,-4.0252,-4.0145,-3.9656,-3.9174,-3.8747,-3.7854,-3.7045,-3.6792,-3.6096,-3.5701,-3.5612,-3.5518,-3.5038,-3.4641,-3.443,-3.3968,-3.3314,-3.3083,-3.3006,-3.2891,-3.2256,-3.1514,-3.0893,-3.0369,-3.0316,-3.0316,-3.0379,-3.0425,-3.0493,-3.0519,-3.0559,-3.0617,-3.061,-3.063,-3.0683,-3.0694,-3.0697,-3.0701,-3.0701,-3.0704,-3.0697,-3.0697,-3.0706,-3.0688,-3.0645,-3.0621,-3.0595,-3.0559,-3.0493,-3.0402,-3.0324,-3.0246,-3.0197,-3.0132,-3.008,-3.0052,-3.0005,-2.9972,-2.9991,-2.9972,-3.001,-2.9916,-2.9916,-2.9916,-2.9916,-2.9991,-2.9991,-2.9991,-2.9972,-2.9934,-2.9934,-2.9916,-2.9916,-2.9916,-2.9897,-2.9916,-2.9916,-2.9897,-2.9897,-2.9916,-2.9818,-2.9539,-2.9649,-2.9958,-2.9566,-4.5807,-4.58,-4.581,-4.5765,-4.5708,-4.5687,-4.5665,-4.5603,-4.5594,-4.5594,-4.5594,-4.5594,-4.5594,-4.5594,-4.5594,-4.5594,-4.5594,-4.5594,-4.5594,-4.5577,-4.5207,-4.4892,-4.4317,-4.4,-4.3224,-4.2412,-4.1743,-4.1113,-4.0492,-4.031,-4.0319,-4.026,-4.0124,-3.9815,-3.9336,-3.8823,-3.8235,-3.7701,-3.6947,-3.6486,-3.6262,-3.5782,-3.5423,-3.5141,-3.5122,-3.4757,-3.4186,-3.3936,-3.366,-3.2987,-3.2776,-3.2635,-3.218,-3.1219,-3.0642,-3.059,-3.0652,-3.0769,-3.0788,-3.0699,-3.0646,-3.0617,-3.0797,-3.0801,-3.0807,-3.0821,-3.1038,-3.0928,-3.0895,-3.0805,-3.0711,-3.0963,-3.0801,-3.0764,-3.0878,-3.0835,-3.0791,-3.0805,-3.08,-3.0802,-3.0566,-3.0388,-3.048,-3.0581,-3.0685,-3.0687,-3.0574,-3.0511,-3.0465,-3.0332,-3.02,-3.0067,-2.9916,-2.9916,-2.9916,-3.0048,-3.0105,-3.0143,-3.0124,-3.0029,-2.9991,-2.9934,-2.9916,-2.9916,-2.9916,-2.9916,-2.9916,-2.9916,-2.9916,-2.9916,-2.994,-2.9972,-3.0003,-3.0026,-3.0072,-4.5807,-4.58,-4.5803,-4.5765,-4.57,-4.5679,-4.5676,-4.5594,-4.5594,-4.5594,-4.5594,-4.5594,-4.5594,-4.5594,-4.5594,-4.5594,-4.5594,-4.5594,-4.5594,-4.5549,-4.5438,-4.5247,-4.4815,-4.4679,-4.416,-4.3529,-4.2918,-4.2049,-4.096,-4.0501,-4.0386,-4.0344,-4.0362,-4.0175,-3.9845,-3.9419,-3.91,-3.8507,-3.7834,-3.7142,-3.6712,-3.5942,-3.5558,-3.55,-3.55,-3.525,-3.5026,-3.4872,-3.4692,-3.4288,-3.3833,-3.3628,-3.3199,-3.2545,-3.1692,-3.1698,-3.169,-3.1725,-3.1777,-3.1864,-3.1956,-3.1978,-3.193,-3.2016,-3.2038,-3.211,-3.1965,-3.1994,-3.2036,-3.2042,-3.213,-3.1984,-3.2055,-3.2045,-3.1984,-3.1914,-3.1904,-3.1864,-3.1733,-3.1524,-3.1379,-3.1245,-3.1127,-3.124,-3.1367,-3.1323,-3.1189,-3.1107,-3.1014,-3.0958,-3.0844,-3.0901,-3.0863,-3.0863,-3.0825,-3.0787,-3.0692,-3.0598,-3.0541,-3.0427,-3.0238,-3.0257,-3.0067,-2.9916,-2.9916,-3.0067,-2.9916,-2.9916,-2.9916,-2.9916,-2.9956,-2.9988,-3.0026,-3.0064,-3.0101,-4.5807,-4.58,-4.5776,-4.5758,-4.57,-4.5671,-4.5648,-4.5594,-4.5594,-4.5594,-4.5594,-4.5594,-4.5594,-4.5594,-4.5594,-4.5594,-4.5594,-4.5594,-4.5594,-4.5568,-4.5457,-4.5391,-4.5381,-4.5273,-4.4876,-4.4341,-4.3854,-4.3138,-4.159,-4.0922,-4.0586,-4.0419,-4.0407,-4.0438,-4.0281,-3.9892,-3.9592,-3.9284,-3.87,-3.7834,-3.7,-3.6212,-3.575,-3.5692,-3.5596,-3.5462,-3.5385,-3.5352,-3.5371,-3.514,-3.4801,-3.4423,-3.4327,-3.3788,-3.343,-3.3378,-3.3179,-3.3022,-3.296,-3.2986,-3.2885,-3.2893,-3.3121,-3.3212,-3.3199,-3.3002,-3.3148,-3.3297,-3.3245,-3.3147,-3.3025,-3.3203,-3.3213,-3.3179,-3.3114,-3.316,-3.2994,-3.2861,-3.2739,-3.253,-3.2307,-3.2135,-3.2029,-3.1844,-3.1979,-3.1958,-3.1832,-3.1846,-3.1781,-3.1914,-3.1914,-3.2065,-3.2103,-3.2084,-3.2027,-3.1914,-3.1696,-3.1431,-3.1393,-3.1318,-3.0977,-3.0692,-3.0579,-3.0617,-3.0332,-3.0427,-3.0181,-2.9934,-2.9916,-2.9924,-2.9964,-3.0022,-3.0061,-3.0106,-3.015,-4.5807,-4.58,-4.5746,-4.5708,-4.5711,-4.5657,-4.5603,-4.5594,-4.5594,-4.5594,-4.5594,-4.5594,-4.5594,-4.5594,-4.5594,-4.5594,-4.5594,-4.5594,-4.5594,-4.5577,-4.5476,-4.541,-4.539,-4.5329,-4.5231,-4.4876,-4.4369,-4.308,-4.1972,-4.1495,-4.1007,-4.0619,-4.0464,-4.0419,-4.0462,-4.0285,-4.0381,-4.0189,-3.9515,-3.87,-3.7873,-3.7019,-3.6635,-3.6404,-3.5981,-3.5615,-3.5608,-3.553,-3.5412,-3.5393,-3.5316,-3.522,-3.5228,-3.5255,-3.5185,-3.4751,-3.3981,-3.3006,-3.3197,-3.3412,-3.3499,-3.3565,-3.3491,-3.3351,-3.3566,-3.3608,-3.3607,-3.337,-3.349,-3.3599,-3.3643,-3.3453,-3.3362,-3.3478,-3.3674,-3.3541,-3.343,-3.3872,-3.3746,-3.366,-3.3455,-3.3172,-3.2969,-3.2737,-3.2561,-3.2528,-3.2514,-3.2565,-3.2653,-3.2861,-3.2937,-3.3051,-3.3098,-3.3098,-3.3146,-3.3033,-3.2692,-3.2351,-3.2237,-3.2142,-3.1715,-3.145,-3.1791,-3.1743,-3.1336,-3.0863,-3.0635,-3.037,-3.0067,-2.994,-2.998,-3.0038,-3.0095,-3.014,-3.0171,-4.5812,-4.5803,-4.5712,-4.5692,-4.5687,-4.564,-4.5594,-4.5594,-4.5594,-4.5594,-4.5594,-4.5594,-4.5594,-4.5594,-4.5594,-4.5594,-4.5594,-4.5594,-4.5594,-4.5568,-4.5476,-4.541,-4.5381,-4.5339,-4.5277,-4.5182,-4.4857,-4.4265,-4.3004,-4.1944,-4.1284,-4.1072,-4.0647,-4.0422,-4.0495,-4.05,-4.0489,-4.0246,-3.9727,-3.913,-3.8623,-3.795,-3.7442,-3.7385,-3.662,-3.626,-3.608,-3.5564,-3.5376,-3.5357,-3.5391,-3.5405,-3.5412,-3.5441,-3.5468,-3.5406,-3.493,-3.453,-3.4529,-3.4531,-3.4512,-3.4598,-3.4645,-3.4788,-3.4753,-3.4697,-3.4692,-3.4817,-3.482,-3.4756,-3.4706,-3.4786,-3.4773,-3.4736,-3.4478,-3.4477,-3.4443,-3.4603,-3.4759,-3.4706,-3.4591,-3.4223,-3.3959,-3.3867,-3.375,-3.3762,-3.3748,-3.3789,-3.3903,-3.4055,-3.4074,-3.4036,-3.4046,-3.4046,-3.4093,-3.4084,-3.3639,-3.3299,-3.3072,-3.2892,-3.2435,-3.233,-3.2653,-3.2558,-3.2056,-3.1621,-3.1223,-3.0635,-3.0143,-3.0024,-2.9996,-3.0046,-3.0102,-3.0135,-3.0178,-4.5778,-4.5765,-4.5723,-4.5684,-4.5673,-4.5631,-4.5594,-4.5594,-4.5594,-4.5594,-4.5594,-4.5594,-4.5594,-4.5594,-4.5594,-4.5594,-4.5594,-4.5594,-4.5594,-4.5559,-4.5485,-4.541,-4.5371,-4.532,-4.5277,-4.5277,-4.522,-4.48,-4.4055,-4.3004,-4.2106,-4.1618,-4.1081,-4.0665,-4.0496,-4.0471,-4.0476,-4.0434,-3.9973,-3.9665,-3.9454,-3.8727,-3.8355,-3.802,-3.7544,-3.6991,-3.6869,-3.6121,-3.5665,-3.5665,-3.5426,-3.5364,-3.5372,-3.5434,-3.5482,-3.5496,-3.5309,-3.5372,-3.5388,-3.5435,-3.5674,-3.5732,-3.5779,-3.5603,-3.5713,-3.5883,-3.5869,-3.5675,-3.5694,-3.5752,-3.588,-3.5801,-3.5664,-3.5589,-3.5605,-3.57,-3.566,-3.5427,-3.5271,-3.5178,-3.5085,-3.5119,-3.494,-3.4977,-3.4977,-3.4988,-3.5011,-3.4927,-3.487,-3.4813,-3.4728,-3.4529,-3.4538,-3.45,-3.4566,-3.4575,-3.4301,-3.4159,-3.3932,-3.3781,-3.3393,-3.3269,-3.3449,-3.3183,-3.2823,-3.2634,-3.2406,-3.1261,-3.0238,-3.0346,-3.0405,-3.0148,-3.0117,-3.0169,-3.0185,-4.5764,-4.5708,-4.5708,-4.5684,-4.5673,-4.5631,-4.5594,-4.5594,-4.5594,-4.5594,-4.5594,-4.5594,-4.5594,-4.5594,-4.5594,-4.5594,-4.5594,-4.5594,-4.5594,-4.554,-4.5466,-4.5419,-4.5371,-4.533,-4.5277,-4.5277,-4.5277,-4.5239,-4.4991,-4.4169,-4.2909,-4.1781,-4.1666,-4.11,-4.0675,-4.0509,-4.0458,-4.0463,-4.026,-4.026,-4.0052,-3.9536,-3.906,-3.886,-3.8287,-3.7808,-3.7781,-3.6925,-3.6411,-3.6391,-3.599,-3.5553,-3.5626,-3.5664,-3.5694,-3.5554,-3.556,-3.561,-3.5631,-3.5672,-3.5699,-3.5736,-3.5807,-3.5889,-3.5897,-3.5886,-3.5889,-3.5886,-3.5886,-3.59,-3.5888,-3.5892,-3.5849,-3.583,-3.5807,-3.5754,-3.5713,-3.5659,-3.5535,-3.5546,-3.5483,-3.5381,-3.5285,-3.5176,-3.5119,-3.5084,-3.5001,-3.4908,-3.4908,-3.487,-3.4879,-3.4803,-3.4831,-3.4802,-3.4752,-3.4648,-3.4515,-3.4517,-3.4413,-3.4508,-3.4519,-3.4453,-3.415,-3.4112,-3.3847,-3.3714,-3.343,-3.2349,-3.1497,-3.1059,-3.0853,-3.0784,-3.0449,-3.0309,-3.0273,-4.5754,-4.568,-4.5676,-4.5682,-4.562,-4.5603,-4.5594,-4.5594,-4.5594,-4.5594,-4.5594,-4.5594,-4.5594,-4.5594,-4.5594,-4.5594,-4.5594,-4.5594,-4.5594,-4.5559,-4.5485,-4.5419,-4.5371,-4.533,-4.5277,-4.5277,-4.5277,-4.5277,-4.5201,-4.4857,-4.4227,-4.3301,-4.2661,-4.1876,-4.1329,-4.0696,-4.0473,-4.0424,-4.0432,-4.0441,-4.0356,-4.0194,-3.9889,-3.9832,-3.9078,-3.8695,-3.8495,-3.7725,-3.7364,-3.7171,-3.6944,-3.6573,-3.6194,-3.6214,-3.6054,-3.5759,-3.5765,-3.5776,-3.5745,-3.5751,-3.5722,-3.5775,-3.5838,-3.5892,-3.5894,-3.5903,-3.5903,-3.588,-3.5991,-3.6122,-3.5931,-3.5891,-3.5834,-3.5799,-3.5853,-3.592,-3.5941,-3.6037,-3.6008,-3.6105,-3.5707,-3.5379,-3.5289,-3.5185,-3.5145,-3.5092,-3.4992,-3.4908,-3.4908,-3.4898,-3.4917,-3.4897,-3.4887,-3.4838,-3.4758,-3.4747,-3.4728,-3.4768,-3.4807,-3.4848,-3.4877,-3.4879,-3.4643,-3.4718,-3.4718,-3.4434,-3.3979,-3.3335,-3.2699,-3.2074,-3.1781,-3.1645,-3.1196,-3.066,-3.0598,-4.5765,-4.57,-4.5679,-4.5657,-4.5594,-4.5594,-4.5594,-4.5594,-4.5594,-4.5594,-4.5594,-4.5594,-4.5594,-4.5594,-4.5594,-4.5594,-4.5594,-4.5594,-4.5594,-4.554,-4.5466,-4.5419,-4.5371,-4.533,-4.5277,-4.5277,-4.5277,-4.5277,-4.5277,-4.5277,-4.4857,-4.4313,-4.3798,-4.3072,-4.1953,-4.1206,-4.0677,-4.0447,-4.0389,-4.037,-4.037,-4.0334,-4.0325,-4.0258,-3.9705,-3.9505,-3.9228,-3.8637,-3.8178,-3.8051,-3.7863,-3.7539,-3.7233,-3.699,-3.6792,-3.6511,-3.6337,-3.6342,-3.6342,-3.5911,-3.5794,-3.5792,-3.5815,-3.5859,-3.5915,-3.6083,-3.6369,-3.6365,-3.6499,-3.6612,-3.6572,-3.681,-3.6849,-3.6984,-3.6928,-3.6954,-3.6851,-3.6862,-3.6739,-3.6678,-3.6367,-3.6309,-3.6257,-3.6216,-3.5596,-3.539,-3.4974,-3.4908,-3.4908,-3.4898,-3.4888,-3.4878,-3.4858,-3.4778,-3.4706,-3.4762,-3.4789,-3.4716,-3.4747,-3.4798,-3.4849,-3.4888,-3.4927,-3.4851,-3.4851,-3.4889,-3.4586,-3.4055,-3.3505,-3.2937,-3.2598,-3.2224,-3.2088,-3.1603,-3.1381,-4.5758,-4.57,-4.5679,-4.5657,-4.5594,-4.5594,-4.5594,-4.5594,-4.5594,-4.5594,-4.5594,-4.5594,-4.5594,-4.5594,-4.5594,-4.5594,-4.5594,-4.5594,-4.5594,-4.5549,-4.5457,-4.5419,-4.5371,-4.533,-4.5277,-4.5277,-4.5277,-4.5277,-4.5277,-4.5277,-4.5182,-4.5163,-4.4772,-4.419,-4.2842,-4.2001,-4.1187,-4.0479,-4.0422,-4.0422,-4.0317,-4.0328,-4.031,-4.0272,-4.0176,-4.0033,-3.9842,-3.9402,-3.9029,-3.8986,-3.8561,-3.8219,-3.794,-3.7947,-3.787,-3.7784,-3.7791,-3.7887,-3.7961,-3.657,-3.6144,-3.62,-3.6433,-3.6328,-3.6245,-3.6582,-3.7108,-3.7143,-3.7587,-3.8027,-3.821,-3.8198,-3.7994,-3.7874,-3.7797,-3.7729,-3.758,-3.7491,-3.7365,-3.7244,-3.7555,-3.7773,-3.7696,-3.7399,-3.6444,-3.5818,-3.5154,-3.5003,-3.5211,-3.5372,-3.5523,-3.5549,-3.5594,-3.5503,-3.5459,-3.5021,-3.4849,-3.4757,-3.4837,-3.5061,-3.5009,-3.4973,-3.4965,-3.4946,-3.4908,-3.4908,-3.4908,-3.4813,-3.4282,-3.3712,-3.3044,-3.2681,-3.2622,-3.247,-3.2126,-4.5719,-4.5679,-4.5637,-4.5612,-4.5594,-4.5594,-4.5594,-4.5594,-4.5594,-4.5594,-4.5594,-4.5594,-4.5594,-4.5594,-4.5594,-4.5594,-4.5594,-4.5594,-4.5594,-4.5577,-4.5467,-4.5419,-4.539,-4.535,-4.5277,-4.5277,-4.5277,-4.5277,-4.5277,-4.5277,-4.5277,-4.5277,-4.522,-4.4685,-4.3673,-4.2794,-4.1973,-4.1256,-4.1065,-4.0893,-4.0405,-4.0348,-4.0339,-4.0339,-4.032,-4.032,-4.032,-3.9871,-3.9803,-3.9818,-3.9374,-3.9205,-3.8869,-3.8812,-3.864,-3.8337,-3.8144,-3.8144,-3.8152,-3.7607,-3.7516,-3.7499,-3.7374,-3.7366,-3.7592,-3.7759,-3.7949,-3.8019,-3.8342,-3.8559,-3.83,-3.8311,-3.819,-3.8166,-3.8107,-3.8075,-3.8011,-3.7963,-3.7887,-3.7774,-3.794,-3.7983,-3.7953,-3.8203,-3.7538,-3.7146,-3.6661,-3.6386,-3.651,-3.6613,-3.6745,-3.6751,-3.6717,-3.6559,-3.6305,-3.5926,-3.587,-3.5985,-3.5811,-3.5694,-3.5548,-3.54,-3.5135,-3.5154,-3.5022,-3.4908,-3.4908,-3.4898,-3.4879,-3.4441,-3.38,-3.347,-3.3497,-3.3138,-3.2565,-4.5687,-4.5693,-4.5631,-4.5594,-4.5594,-4.5594,-4.5594,-4.5594,-4.5594,-4.5594,-4.5594,-4.5594,-4.5594,-4.5594,-4.5594,-4.5594,-4.5594,-4.5594,-4.5594,-4.5577,-4.5467,-4.5419,-4.539,-4.5339,-4.5288,-4.5277,-4.5277,-4.5277,-4.5277,-4.5277,-4.5277,-4.5277,-4.5277,-4.4991,-4.4303,-4.3634,-4.2813,-4.2183,-4.1906,-4.1562,-4.1036,-4.0721,-4.0587,-4.0416,-4.032,-4.032,-4.032,-4.031,-4.0319,-4.0335,-4.0283,-4.0172,-3.978,-3.9596,-3.9456,-3.9082,-3.9026,-3.9103,-3.9176,-3.9218,-3.9184,-3.9204,-3.8814,-3.8423,-3.8505,-3.8626,-3.8773,-3.8881,-3.9017,-3.9146,-3.9136,-3.9068,-3.9034,-3.9027,-3.8999,-3.9009,-3.9025,-3.9007,-3.8933,-3.8777,-3.8646,-3.8531,-3.8394,-3.8566,-3.8612,-3.8427,-3.8281,-3.7978,-3.7647,-3.7618,-3.7627,-3.7585,-3.7475,-3.7206,-3.7049,-3.6884,-3.6922,-3.7178,-3.6909,-3.6518,-3.6465,-3.6375,-3.5865,-3.5429,-3.5476,-3.542,-3.5022,-3.4908,-3.4898,-3.4849,-3.4589,-3.4382,-3.4391,-3.3949,-3.3368,-4.5682,-4.5693,-4.5631,-4.5594,-4.5594,-4.5594,-4.5594,-4.5594,-4.5594,-4.5594,-4.5594,-4.5594,-4.5594,-4.5594,-4.5594,-4.5594,-4.5594,-4.5594,-4.5594,-4.5568,-4.5467,-4.5419,-4.539,-4.5339,-4.5288,-4.5277,-4.5277,-4.5277,-4.5277,-4.5277,-4.5277,-4.5277,-4.5277,-4.5163,-4.4857,-4.4418,-4.3615,-4.3061,-4.2775,-4.2335,-4.1743,-4.1552,-4.1151,-4.0826,-4.0568,-4.0454,-4.0396,-4.031,-4.0337,-4.0363,-4.0388,-4.0427,-4.0438,-4.0469,-4.0511,-4.053,-4.0539,-4.05,-4.0453,-4.0407,-4.0463,-4.0192,-3.936,-3.8762,-3.881,-3.9388,-3.9592,-3.9816,-4.0,-4.0348,-4.056,-4.051,-4.0441,-4.0413,-4.0383,-4.0385,-4.0378,-4.0349,-4.0246,-4.0138,-4.001,-3.9859,-3.9624,-3.966,-3.9315,-3.9311,-3.9088,-3.8793,-3.8452,-3.8148,-3.8157,-3.8107,-3.7961,-3.7732,-3.7651,-3.7845,-3.7958,-3.8184,-3.7745,-3.7392,-3.7377,-3.7208,-3.6679,-3.6301,-3.6187,-3.596,-3.5533,-3.5192,-3.4955,-3.4897,-3.4874,-3.4878,-3.4773,-3.4877,-3.4533,-4.5684,-4.5631,-4.5594,-4.5594,-4.5594,-4.5594,-4.5594,-4.5594,-4.5594,-4.5594,-4.5594,-4.5594,-4.5594,-4.5594,-4.5594,-4.5594,-4.5594,-4.5594,-4.5594,-4.5559,-4.5476,-4.5419,-4.539,-4.5339,-4.5298,-4.5277,-4.5277,-4.5277,-4.5277,-4.5277,-4.5277,-4.5277,-4.5277,-4.5277,-4.5201,-4.5048,-4.438,-4.3883,-4.3692,-4.3157,-4.2641,-4.2412,-4.1877,-4.1399,-4.117,-4.096,-4.053,-4.0416,-4.0414,-4.0389,-4.0407,-4.0438,-4.0481,-4.0496,-4.0515,-4.06,-4.0655,-4.0733,-4.0784,-4.0808,-4.08,-4.0792,-4.0231,-4.0246,-4.0213,-4.0193,-4.0363,-4.0474,-4.0546,-4.0724,-4.0798,-4.0787,-4.0788,-4.0739,-4.0707,-4.0687,-4.0665,-4.061,-4.0531,-4.0455,-4.037,-4.0309,-4.0176,-4.0059,-3.9753,-3.9891,-3.981,-3.9486,-3.9218,-3.8896,-3.8763,-3.8723,-3.8739,-3.8585,-3.8855,-3.9067,-3.9097,-3.909,-3.8612,-3.8266,-3.8212,-3.7949,-3.7447,-3.7059,-3.6794,-3.6415,-3.5988,-3.5704,-3.5496,-3.5134,-3.5054,-3.5115,-3.5157,-3.5174,-3.5182,-4.564,-4.5594,-4.5594,-4.5594,-4.5594,-4.5594,-4.5594,-4.5594,-4.5594,-4.5594,-4.5594,-4.5594,-4.5594,-4.5594,-4.5594,-4.5594,-4.5594,-4.5594,-4.5594,-4.5577,-4.5466,-4.5438,-4.5381,-4.536,-4.5328,-4.5307,-4.5277,-4.5277,-4.5277,-4.5277,-4.5277,-4.5277,-4.5277,-4.5277,-4.5258,-4.5201,-4.501,-4.4685,-4.4399,-4.3978,-4.3596,-4.3252,-4.2737,-4.2183,-4.2011,-4.1533,-4.0922,-4.0788,-4.0682,-4.0485,-4.0407,-4.0438,-4.05,-4.0512,-4.0542,-4.0607,-4.0661,-4.0739,-4.079,-4.0809,-4.0796,-4.0802,-4.08,-4.0729,-4.0707,-4.0641,-4.0699,-4.0751,-4.0765,-4.0798,-4.0788,-4.0764,-4.0733,-4.0707,-4.0693,-4.0658,-4.061,-4.058,-4.0503,-4.0405,-4.0345,-4.0291,-4.0215,-4.0147,-4.0067,-4.0015,-3.9943,-3.9797,-3.9654,-3.954,-3.9445,-3.9435,-3.9537,-3.9591,-3.9804,-3.9792,-3.9671,-3.9531,-3.9421,-3.9121,-3.9039,-3.885,-3.849,-3.7883,-3.7268,-3.6946,-3.667,-3.6396,-3.6131,-3.5799,-3.552,-3.5526,-3.5435,-3.5174,-3.5182,-4.5594,-4.5594,-4.5594,-4.5594,-4.5594,-4.5594,-4.5594,-4.5594,-4.5594,-4.5594,-4.5594,-4.5594,-4.5594,-4.5594,-4.5594,-4.5594,-4.5594,-4.5594,-4.5594,-4.5594,-4.5513,-4.5448,-4.54,-4.5409,-4.5348,-4.5317,-4.5277,-4.5277,-4.5277,-4.5277,-4.5277,-4.5277,-4.5277,-4.5277,-4.5277,-4.5277,-4.5182,-4.5105,-4.4991,-4.4762,-4.4322,-4.4017,-4.3739,-4.3061,-4.2775,-4.2507,-4.1858,-4.1495,-4.1255,-4.0774,-4.055,-4.063,-4.0492,-4.0539,-4.0557,-4.0593,-4.0647,-4.0707,-4.0752,-4.0777,-4.0797,-4.0797,-4.0797,-4.0797,-4.0776,-4.08,-4.0806,-4.08,-4.0794,-4.0808,-4.079,-4.0739,-4.0707,-4.068,-4.0646,-4.061,-4.0561,-4.0516,-4.0463,-4.0379,-4.0327,-4.0282,-4.0244,-4.0176,-4.0117,-4.0036,-3.9965,-3.9922,-3.99,-3.99,-3.99,-3.99,-3.9889,-3.9878,-3.9878,-3.9848,-3.9859,-3.9813,-3.9775,-3.9738,-3.9502,-3.9502,-3.9578,-3.8869,-3.813,-3.775,-3.7457,-3.7116,-3.6805,-3.6568,-3.6301,-3.6089,-3.5838,-3.567,-3.5316,-4.5594,-4.5594,-4.5594,-4.5594,-4.5594,-4.5594,-4.5594,-4.5594,-4.5594,-4.5594,-4.5594,-4.5594,-4.5594,-4.5594,-4.5594,-4.5594,-4.5594,-4.5594,-4.5594,-4.5577,-4.5541,-4.5476,-4.541,-4.54,-4.5359,-4.5317,-4.5277,-4.5277,-4.5277,-4.5277,-4.5277,-4.5277,-4.5277,-4.5277,-4.5277,-4.5277,-4.5277,-4.5277,-4.5258,-4.5201,-4.4934,-4.4819,-4.4609,-4.3997,-4.3624,-4.3271,-4.2756,-4.245,-4.203,-4.1548,-4.1423,-4.1099,-4.0566,-4.0543,-4.0546,-4.0603,-4.0619,-4.068,-4.0707,-4.0752,-4.0759,-4.079,-4.0784,-4.0752,-4.0759,-4.0784,-4.0796,-4.0809,-4.0803,-4.0797,-4.079,-4.0739,-4.0668,-4.066,-4.0624,-4.0569,-4.0531,-4.0476,-4.0422,-4.0362,-4.0318,-4.0301,-4.0263,-4.0225,-4.0157,-4.0096,-4.0026,-3.9965,-3.9911,-3.99,-3.99,-3.99,-3.99,-3.9889,-3.99,-3.99,-3.99,-3.99,-3.9832,-3.9851,-3.99,-3.9824,-3.9711,-3.9532,-3.9058,-3.8641,-3.8167,-3.7666,-3.7403,-3.73,-3.7224,-3.7032,-3.6981,-3.6852,-3.6146,-4.5594,-4.5594,-4.5594,-4.5594,-4.5594,-4.5594,-4.5594,-4.5594,-4.5594,-4.5594,-4.5594,-4.5594,-4.5594,-4.5594,-4.5594,-4.5594,-4.5594,-4.5594,-4.5594,-4.5577,-4.5559,-4.5495,-4.5438,-4.5409,-4.535,-4.5309,-4.5288,-4.5277,-4.5277,-4.5277,-4.5277,-4.5277,-4.5277,-4.5277,-4.5277,-4.5277,-4.5277,-4.5277,-4.5277,-4.5277,-4.5277,-4.5201,-4.5125,-4.4628,-4.4437,-4.4055,-4.3624,-4.3291,-4.2872,-4.2285,-4.1908,-4.1624,-4.1096,-4.0746,-4.0596,-4.058,-4.0591,-4.0619,-4.0712,-4.0797,-4.0849,-4.0868,-4.0733,-4.0706,-4.0668,-4.0694,-4.0707,-4.072,-4.0746,-4.0746,-4.0778,-4.0739,-4.07,-4.0654,-4.0624,-4.058,-4.0543,-4.0487,-4.0438,-4.0398,-4.0345,-4.0319,-4.0282,-4.0234,-4.0166,-4.0087,-4.0046,-3.9975,-3.9933,-3.9911,-3.99,-3.99,-3.99,-3.99,-3.99,-3.99,-3.99,-3.99,-3.99,-3.99,-3.99,-3.99,-3.9824,-3.9654,-3.954,-3.9418,-3.8925,-3.8491,-3.8248,-3.8184,-3.8118,-3.8032,-3.8001,-3.7903,-3.7292,-4.5594,-4.5594,-4.5594,-4.5594,-4.5594,-4.5594,-4.5594,-4.5594,-4.5594,-4.5594,-4.5594,-4.5594,-4.5594,-4.5594,-4.5594,-4.5594,-4.5594,-4.5594,-4.5594,-4.5594,-4.5594,-4.5522,-4.5448,-4.54,-4.5351,-4.5319,-4.5288,-4.5277,-4.5277,-4.5277,-4.5277,-4.5277,-4.5277,-4.5277,-4.5277,-4.5277,-4.5277,-4.5277,-4.5277,-4.5277,-4.5277,-4.5277,-4.5239,-4.5258,-4.522,-4.4876,-4.4399,-4.4046,-4.3732,-4.3109,-4.2488,-4.2157,-4.1904,-4.1508,-4.1289,-4.1255,-4.1342,-4.1287,-4.1186,-4.1284,-4.1207,-4.1077,-4.0865,-4.0781,-4.0819,-4.073,-4.0744,-4.0719,-4.0771,-4.0771,-4.0804,-4.0823,-4.0784,-4.0745,-4.0709,-4.0657,-4.062,-4.0572,-4.0523,-4.0473,-4.041,-4.0366,-4.0291,-4.0244,-4.0186,-4.0108,-4.0057,-3.9986,-3.9943,-3.9933,-3.9933,-3.9911,-3.99,-3.99,-3.99,-3.99,-3.99,-3.99,-3.99,-3.99,-3.99,-3.99,-3.99,-3.9881,-3.9767,-3.9683,-3.9743,-3.949,-3.9295,-3.8984,-3.9042,-3.8975,-3.8803,-3.8686,-3.84,-4.5594,-4.5594,-4.5594,-4.5594,-4.5594,-4.5594,-4.5594,-4.5594,-4.5594,-4.5594,-4.5594,-4.5594,-4.5594,-4.5594,-4.5594,-4.5594,-4.5594,-4.5594,-4.5594,-4.5594,-4.5594,-4.5531,-4.5485,-4.5429,-4.5361,-4.5319,-4.5277,-4.5277,-4.5277,-4.5277,-4.5277,-4.5277,-4.5277,-4.5277,-4.5277,-4.5277,-4.5277,-4.5277,-4.5277,-4.5277,-4.5277,-4.5277,-4.5277,-4.5277,-4.5277,-4.5182,-4.5067,-4.5048,-4.4622,-4.4001,-4.3295,-4.2934,-4.2701,-4.2516,-4.2329,-4.2187,-4.2267,-4.2328,-4.2273,-4.2261,-4.2215,-4.2232,-4.2039,-4.1639,-4.1496,-4.1104,-4.1068,-4.0968,-4.0989,-4.0965,-4.0997,-4.1048,-4.1029,-4.0989,-4.0954,-4.0938,-4.09,-4.0827,-4.077,-4.0643,-4.0534,-4.0432,-4.0301,-4.0272,-4.0244,-4.0186,-4.0157,-4.0087,-3.9996,-3.9975,-3.9973,-3.9943,-3.9922,-3.99,-3.99,-3.9911,-3.9911,-3.99,-3.9911,-3.9933,-3.9933,-3.99,-3.99,-3.9933,-3.9933,-3.9857,-3.9965,-4.0007,-3.9963,-3.969,-3.9881,-3.9881,-3.9671,-3.9489,-3.924]},{"header":{"parameterUnit":"m.s-1","parameterCategory":1,"la1":31.0,"la2":29.5877,"lo1":-88.7671,"lo2":-86.6584,"dy":0.0162,"dx":0.0185,"nx":115,"ny":88,"refTime":"2024-04-17T12:00:00:Z","depth":0,"parameterNumber":3,"parameterNumberName":"V-component_of_WINDS"},"data":[0.0,0.0,0.0,0.0,0.0,0.0,0.0,0.0,0.0,0.0,0.0,0.0,0.0,0.0,0.0,0.0,0.0,0.0,0.0,0.0,0.0,0.0,0.0,0.0,0.0,0.0,0.0,0.0,0.0,0.0,0.0,0.0,0.0,0.0,0.0,0.0,0.0,0.0,0.0,0.0,0.0,0.0,0.0,0.0,0.0,0.0,0.0,0.0,0.0,0.0,0.0,0.0,0.0,0.0,0.0,0.0,0.0,0.0,0.0,0.0,0.0,0.0,0.0,0.0,0.0,0.0,0.0,0.0,0.0,0.0,0.0,0.0,0.0,0.0,0.0,0.0,0.0,0.0,0.0,0.0,0.0,0.0,0.0,0.0,0.0,0.0,0.0,0.0,0.0,0.0,0.0,0.0,0.0,0.0,0.0,0.0,0.0,0.0,0.0,0.0,0.0,0.0,0.0,0.0,0.0,0.0,0.0,0.0,0.0,0.0,0.0,0.0,0.0,0.0,0.0,0.0,0.0,0.0,0.0,0.0,0.0,0.0,0.0,0.0,0.0,0.0,0.0,0.0,0.0,0.0,0.0,0.0,0.0,0.0,0.0,0.0,0.0,0.0,0.0,0.0,0.0,0.0,0.0,0.0,0.0,0.0,0.0,0.0,0.0,0.0,0.0,0.0,0.0,0.0,0.0,0.0,0.0,0.0,0.0,0.0,0.0,0.0,0.0,0.0,0.0,0.0,0.0,0.0,0.0,0.0,0.0,0.0,0.0,0.0,0.0,0.0,0.0,0.0,0.0,0.0,0.0,0.0,0.0,0.0,0.0,0.0,0.0,0.0,0.0,0.0,0.0,0.0,0.0,0.0,0.0,0.0,0.0,0.0,0.0,0.0,0.0,0.0,0.0,0.0,0.0,0.0,0.0,0.0,0.0,0.0,0.0,0.0,0.0,0.0,0.0,0.0,0.0,0.0,0.0,0.0,0.0,0.0,0.0,0.0,0.0,0.0,0.0,0.0,0.0,0.0,0.0,0.0,0.0,0.0,0.0,0.0,0.0,0.0,0.0,0.0,0.0,0.0,0.0,0.0,0.0,0.0,0.0,0.0,0.0,0.0,0.0,0.0,0.0,0.0,0.0,0.0,0.0,0.0,0.0,0.0,0.0,0.0,0.0,0.0,0.0,0.0,0.0,0.0,0.0,0.0,0.0,0.0,0.0,0.0,0.0,0.0,0.0,0.0,0.0,0.0,0.0,0.0,0.0,0.0,0.0,0.0,0.0,0.0,0.0,0.0,0.0,0.0,0.0,0.0,0.0,0.0,0.0,0.0,0.0,0.0,0.0,0.0,0.0,0.0,0.0,0.0,0.0,0.0,0.0,0.0,0.0,0.0,0.0,0.0,0.0,0.0,0.0,0.0,0.0,0.0,0.0,0.0,0.0,0.0,0.0,0.0,0.0,0.0,0.0,0.0,0.0,0.0,0.0,0.0,0.0,0.0,0.0,0.0,0.0,0.0,0.0,0.0,0.0,0.0,0.0,0.0,0.0,0.0,0.0,0.0,0.0,0.0,0.0,0.0,0.0,0.0,0.0,0.0,0.0,0.0,0.0,0.0,0.0,0.0,0.0,0.0,0.0,0.0,0.0,0.0,0.0,0.0,0.0,0.0,0.0,0.0,0.0,0.0,0.0,0.0,0.0,0.0,0.0,0.0,0.0,0.0,0.0,0.0,0.0,0.0,0.0,0.0,0.0,0.0,0.0,0.0,0.0,0.0,0.0,0.0,0.0,0.0,0.0,0.0,0.0,0.0,0.0,0.0,0.0,0.0,0.0,0.0,0.0,0.0,0.0,0.0,0.0,0.0,0.0,0.0,0.0,0.0,0.0,0.0,0.0,0.0,0.0,0.0,0.0,0.0,0.0,0.0,0.0,0.0,0.0,0.0,0.0,0.0,0.0,0.0,0.0,0.0,0.0,0.0,0.0,0.0,0.0,0.0,0.0,0.0,0.0,0.0,0.0,0.0,0.0,0.0,0.0,0.0,0.0,0.0,0.0,0.0,0.0,0.0,0.0,0.0,0.0,0.0,0.0,0.0,0.0,0.0,0.0,0.0,0.0,0.0,0.0,0.0,0.0,0.0,0.0,0.0,0.0,0.0,0.0,0.0,0.0,0.0,0.0,0.0,0.0,0.0,0.0,0.0,0.0,0.0,0.0,0.0,0.0,0.0,0.0,0.0,0.0,0.0,0.0,0.0,0.0,0.0,0.0,0.0,0.0,0.0,0.0,0.0,0.0,0.0,0.0,0.0,0.0,0.0,0.0,0.0,0.0,0.0,0.0,0.0,0.0,0.0,0.0,0.0,0.0,0.0,0.0,0.0,0.0,0.0,0.0,0.0,0.0,0.0,0.0,0.0,0.0,0.0,0.0,0.0,0.0,0.0,0.0,0.0,0.0,0.0,0.0,0.0,0.0,0.0,0.0,0.0,0.0,0.0,0.0,0.0,0.0,0.0,0.0,0.0,0.0,0.0,0.0,0.0,0.0,0.0,0.0,0.0,0.0,0.0,0.0,0.0,0.0,0.0,0.0,0.0,0.0,0.0,0.0,0.0,0.0,0.0,0.0,0.0,0.0,0.0,0.0,0.0,0.0,0.0,0.0,0.0,0.0,0.0,0.0,0.0,0.0,0.0,0.0,0.0,0.0,0.0,0.0,0.0,0.0,0.0,0.0,0.0,0.0,0.0,0.0,0.0,0.0,0.0,0.0,0.0,0.0,0.0,0.0,0.0,0.0,0.0,0.0,0.0,0.0,0.0,0.0,0.0,0.0,0.0,0.0,0.0,0.0,0.0,0.0,0.0,0.0,0.0,0.0,0.0,0.0,0.0,0.0,0.0,0.0,0.0,0.0,0.0,0.0,0.0,0.0,0.0,0.0,0.0,0.0,0.0,0.0,0.0,0.0,0.0,0.0,0.0,0.0,0.0,0.0,0.0,0.0,0.0,0.0,0.0,0.0,0.0,0.0,0.0,0.0,0.0,0.0,0.0,0.0,0.0,0.0,0.0,0.0,0.0,0.0,0.0,0.0,0.0,0.0,0.0,0.0,0.0,0.0,0.0,0.0,0.0,0.0,0.0,0.0,0.0,0.0,0.0,0.0,0.0,0.0,0.0,0.0,0.0,0.0,0.0,0.0,0.0,0.0,0.0,0.0,0.0,0.0,0.0,0.0,0.0,0.0,0.0,0.0,0.0,0.0,0.0,0.0,0.0,0.0,0.0,0.0,0.0,0.0,0.0,0.0,0.0,0.0,0.0,0.0,0.0,0.0,0.0,0.0,0.0,0.0,0.0,0.0,0.0,0.0,0.0,0.0,0.0,0.0,0.0,0.0,0.0,0.0,0.0,0.0,0.0,0.0,0.0,0.0,0.0,0.0,0.0,0.0,0.0,0.0,0.0,0.0,0.0,0.0,0.0,0.0,0.0,0.0,0.0,0.0,0.0,0.0,0.0,0.0,0.0,0.0,0.0,0.0,0.0,0.0,0.0,0.0,0.0,0.0,0.0,0.0,0.0,0.0,0.0,0.0,0.0,0.0,0.0,0.0,0.0,0.0,0.0,0.0,0.0,0.0,0.0,0.0,0.0,0.0,0.0,0.0,0.0,0.0,0.0,0.0,0.0,0.0,0.0,0.0,0.0,0.0,0.0,0.0,0.0,0.0,0.0,0.0,0.0,0.0,0.0,0.0,0.0,0.0,0.0,0.0,0.0,0.0,0.0,0.0,0.0,0.0,0.0,0.0,0.0,0.0,0.0,0.0,0.0,0.0,0.0,0.0,0.0,0.0,0.0,0.0,0.0,0.0,0.0,0.0,0.0,0.0,0.0,0.0,0.0,0.0,0.0,0.0,0.0,0.0,0.0,0.0,0.0,0.0,0.0,0.0,0.0,0.0,0.0,0.0,0.0,0.0,0.0,0.0,0.0,0.0,0.0,0.0,0.0,0.0,0.0,0.0,0.0,0.0,0.0,0.0,0.0,0.0,0.0,0.0,0.0,0.0,0.0,0.0,0.0,0.0,0.0,0.0,0.0,0.0,0.0,0.0,0.0,0.0,0.0,0.0,0.0,0.0,0.0,0.0,0.0,0.0,0.0,0.0,0.0,0.0,0.0,0.0,0.0,0.0,0.0,0.0,0.0,0.0,0.0,0.0,0.0,0.0,0.0,0.0,0.0,0.0,0.0,0.0,0.0,0.0,0.0,0.0,0.0,0.0,0.0,0.0,0.0,0.0,0.0,0.0,0.0,0.4129,0.0,0.0,0.0,0.0,0.0,0.0,0.0,0.0,0.0,0.0,0.0,0.0,0.0,0.0,0.0,0.0,0.0,0.0,0.0,0.0,0.0,0.0,0.0,0.0,0.0,0.0,0.0,0.0,0.0,0.0,0.0,0.0,0.0,0.0,0.0,0.0,0.0,0.0,0.0,0.0,0.0,0.0,0.0,0.0,0.0,0.0,0.0,0.0,0.0,0.0,0.0,0.0,0.0,0.0,0.0,0.0,0.0,0.0,0.0,0.0,0.0,0.0,0.0,0.0,0.0,0.0,0.0,0.0,0.0,0.0,0.0,0.0,0.0,0.0,0.0,0.0,0.0,0.0,0.0,0.0,0.0,0.0,0.0,0.0,0.0,0.0,0.0,0.0,0.0,0.0,0.0,0.0,0.0,0.0,0.0,0.0,0.0,0.0,0.0,0.0,0.0,0.0,0.0,0.0,0.0,0.0,0.0,0.0,0.0,0.0,0.4264,0.421,0.4145,0.4096,0.4058,0.0,0.0,0.0,0.0,0.0,0.0,0.0,0.0,0.0,0.0,0.0,0.0,0.0,0.0,0.0,0.0,0.0,0.0,0.0,0.0,0.0,0.0,0.0,0.0,0.0,0.0,0.0,0.0,0.0,0.0,0.0,0.0,0.0,0.0,0.0,0.0,0.0,0.0,0.0,0.0,0.0,0.0,0.0,0.0,0.0,0.0,0.0,0.0,0.0,0.0,0.0,0.0,0.0,0.0,0.0,0.0,0.0,0.0,0.0,0.0,0.0,0.0,0.0,0.0,0.0,0.0,0.0,0.0,0.0,0.0,0.0,0.0,0.0,0.0,0.0,0.0,0.0,0.0,0.0,0.0,0.0,0.0,0.0,0.0,0.0,0.0,0.0,0.0,0.0,0.0,0.0,0.0,0.0,0.0,0.0,0.0,0.0,0.0,0.0,0.0,0.0,0.0,0.0,0.0,0.0,0.0,0.0,0.0,0.0,0.0,0.0,0.0,0.408,0.401,0.3928,0.0,0.0,0.0,0.0,0.0,0.0,0.0,0.0,0.0,0.0,0.0,0.0,0.0,0.0,0.0,0.0,0.0,0.0,0.0,0.0,0.0,0.0,0.0,0.0,0.0,0.0,0.0,0.0,0.0,0.0,0.0,0.0,0.0,0.0,0.0,0.0,0.0,0.0,0.0,0.0,0.0,0.0,0.0,0.0,0.0,0.0,0.0,0.0,0.0,0.0,0.0,0.0,0.0,0.0,0.0,0.0,0.0,0.0,0.0,0.0,0.0,0.0,0.0,0.0,0.0,0.0,0.0,0.0,0.0,0.0,0.0,0.0,0.0,0.0,0.0,0.0,0.0,0.0,0.0,0.0,0.0,0.0,0.0,0.0,0.0,0.0,0.0,0.0,0.0,0.0,0.0,0.0,0.0,0.0,0.0,0.0,0.0,0.0,0.0,0.0,0.0,0.0,0.0,0.0,0.0,0.0,0.0,0.0,0.0,0.0,0.4112,0.4096,0.3972,0.0,0.3737,0.0,0.0,0.0,0.0,0.0,0.0,0.0,0.0,0.0,0.0,0.0,0.0,0.0,0.0,0.0,0.0,0.0,0.0,0.0,0.0,0.0,0.0,0.0,0.0,0.0,0.0,0.0,0.0,0.0,0.0,0.0,0.0,0.0,0.0,0.0,0.0,0.0,0.0,0.0,0.0,0.0,0.0,0.0,0.0,0.0,0.0,0.0,0.0,0.0,0.0,0.0,0.0,0.0,0.0,0.0,0.0,0.0,0.0,0.0,0.0,0.0,0.0,0.0,0.0,0.0,0.0,0.0,0.0,0.0,0.0,0.0,0.0,0.0,0.0,0.0,0.0,0.0,0.0,0.0,0.0,0.0,0.0,0.0,0.0,0.0,0.0,0.0,0.0,0.0,0.0,0.0,0.0,0.0,0.0,0.0,0.0,0.0,0.0,0.0,0.0,0.0,0.0,0.0,0.0,0.0,0.0,0.0,0.0,0.0,0.0,0.4058,0.3988,0.3847,0.377,0.0,0.0,0.0,0.0,0.0,0.0,0.0,0.0,0.0,0.0,0.0,0.0,0.0,0.0,0.0,0.0,0.0,0.0,0.0,0.0,0.0,0.0,0.0,0.0,0.0,0.0,0.0,0.0,0.0,0.0,0.0,0.0,0.0,0.0,0.0,0.0,0.0,0.0,0.0,0.0,0.0,0.0,0.0,0.0,0.0,0.0,0.0,0.0,0.0,0.0,0.0,0.0,0.0,0.0,0.0,0.0,0.0,0.0,0.0,0.0,0.0,0.0,0.0,0.0,0.0,0.0,0.0,0.0,0.0,0.0,0.0,0.0,0.0,0.0,0.0,0.0,0.0,0.0,0.0,0.0,0.0,0.0,0.0,0.0,0.0,0.0,0.0,0.0,0.0,0.0,0.0,0.0,0.0,0.0,0.0,0.0,0.0,0.0,0.0,0.0,0.0,0.0,0.0,0.0,0.0,0.0,0.0,0.0,0.0,0.0,0.4058,0.3977,0.3842,0.3695,0.3656,0.3656,0.0,0.0,0.0,0.0,0.0,0.0,0.0,0.0,0.0,0.0,0.0,0.0,0.0,0.0,0.0,0.0,0.0,0.0,0.0,0.0,0.0,0.0,0.0,0.0,0.0,0.0,0.0,0.0,0.0,0.0,0.0,0.0,0.0,0.0,0.0,0.0,0.0,0.0,0.0,0.0,0.0,0.0,0.0,0.0,0.0,0.0,0.0,0.0,0.0,0.0,0.0,0.0,0.0,0.0,0.0,0.0,0.0,0.0,0.0,0.0,0.0,0.0,0.0,0.0,0.0,0.0,0.0,0.0,0.0,0.0,0.0,0.0,0.0,0.0,0.0,0.0,0.0,0.0,0.0,0.0,0.0,0.0,0.0,0.0,0.0,0.0,0.0,0.0,0.0,0.0,0.0,0.0,0.0,0.0,0.0,0.0,0.0,0.0,0.0,0.0,0.0,0.0,0.0,0.0,0.0,0.0,0.0,0.0,0.4096,0.3972,0.381,0.363,0.3544,0.3553,0.0,0.0,0.0,0.0,0.0,0.0,0.0,0.0,0.0,0.0,0.0,0.0,0.0,0.0,0.0,0.0,0.0,0.0,0.0,0.0,0.0,0.0,0.0,0.0,0.0,0.0,0.0,0.0,0.0,0.0,0.0,0.0,0.0,0.0,0.0,0.0,0.0,0.0,0.0,0.0,0.0,0.0,0.0,0.0,0.0,0.0,0.0,0.0,0.0,0.0,0.0,0.0,0.0,0.0,0.0,0.0,0.0,0.0,0.0,0.0,0.0,0.0,0.0,0.0,0.0,0.0,0.0,0.0,0.0,0.0,0.0,0.0,0.0,0.0,0.0,0.0,0.0,0.0,0.0,0.0,0.0,0.0,0.0,0.0,0.0,0.0,0.0,0.0,0.0,0.0,0.0,0.0,0.0,0.0,0.0,0.0,0.0,0.0,0.0,0.0,0.0,0.0,0.0,0.0,0.0,0.0,0.0,0.0,0.0,0.3852,0.3728,0.3614,0.3532,0.3499,0.3499,0.0,0.0,0.0,0.0,0.0,0.0,0.0,0.0,0.0,0.0,0.0,0.0,0.0,0.0,0.0,0.0,0.0,0.0,0.0,0.0,0.0,0.0,0.0,0.0,0.0,0.0,0.0,0.0,0.0,0.0,0.0,0.0,0.0,0.0,0.0,0.0,0.0,0.0,0.0,0.0,0.0,0.0,0.0,0.0,0.0,0.0,0.0,0.0,0.0,0.0,0.0,0.0,0.0,0.0,0.0,0.0,0.0,0.0,0.0,0.0,0.0,0.0,0.0,0.0,0.0,0.0,0.0,0.0,0.0,0.0,0.0,0.0,0.0,0.0,0.0,0.0,0.0,0.0,0.0,0.0,0.0,0.0,0.0,0.0,0.0,0.0,0.0,0.0,0.0,0.0,0.0,0.0,0.0,0.0,0.0,0.0,0.0,0.0,0.0,0.0,0.0,0.0,0.0,0.0,0.0,0.0,0.0,0.0,0.0,0.3639,0.0,0.3422,0.3438,0.3401,0.3422,0.0,0.0,0.0,0.0,0.0,0.0,0.0,0.0,0.0,0.0,0.0,0.0,0.0,0.0,0.0,0.0,0.0,0.0,0.0,0.0,0.0,0.0,0.0,0.0,0.0,0.0,0.0,0.0,0.0,0.0,0.0,0.0,0.0,0.0,0.0,0.0,0.0,0.0,0.0,0.0,0.0,0.0,0.0,0.0,0.0,0.0,0.0,0.0,0.0,0.0,0.0,0.0,0.0,0.0,0.0,0.0,0.0,0.0,0.0,0.0,0.0,0.0,0.0,0.0,0.0,0.0,0.0,0.0,0.0,0.0,0.0,0.0,0.0,0.0,0.0,0.0,0.0,0.0,0.0,0.0,0.0,0.0,0.0,0.0,0.0,0.0,0.0,0.0,0.0,0.0,0.0,0.0,0.0,0.0,0.0,0.0,0.0,0.0,0.0,0.0,0.0,0.0,0.0,0.0,0.0,0.0,0.0,0.0,0.3623,0.3499,0.3356,0.3315,0.3299,0.3245,0.3245,0.0,0.0,0.0,0.0,0.0,0.0,0.0,0.0,0.0,0.0,0.0,0.0,0.0,0.0,0.0,0.0,0.0,0.0,0.0,0.0,0.0,0.0,0.0,0.0,0.0,0.0,0.0,0.0,0.0,0.0,0.0,0.0,0.0,0.0,0.0,0.0,0.0,0.0,0.0,0.0,0.0,0.0,0.0,0.0,0.0,0.0,0.0,0.0,0.0,0.0,0.0,0.0,0.0,0.0,0.0,0.0,0.0,0.0,0.0,0.0,0.0,0.0,0.0,0.0,0.0,0.0,0.0,0.0,0.0,0.0,0.0,0.0,0.0,0.0,0.0,0.0,0.0,0.0,0.0,0.0,0.0,0.0,0.0,0.0,0.0,0.0,0.0,0.0,0.0,0.0,0.0,0.0,0.0,0.0,0.0,0.0,0.0,0.0,0.0,0.0,0.0,0.0,0.0,0.0,0.0,0.0,0.0,0.0,0.0,0.3372,0.3278,0.3229,0.3229,0.3212,0.3212,0.0,0.0,0.0,0.0,0.0,0.0,0.0,0.0,0.0,0.0,0.0,0.0,0.0,0.0,0.0,0.0,0.0,0.0,0.0,0.0,0.0,0.0,0.0,0.0,0.0,0.0,0.0,0.0,0.0,0.0,0.0,0.0,0.0,0.0,0.0,0.0,0.0,0.0,0.0,0.0,0.0,0.0,0.0,0.0,0.0,0.0,0.0,0.0,0.0,0.0,0.0,0.0,0.0,0.0,0.0,0.0,0.0,0.0,0.0,0.0,0.0,0.0,0.0,0.0,0.0,0.0,0.0,0.0,0.0,0.0,0.0,0.0,0.0,0.0,0.0,0.0,0.0,0.0,0.0,0.0,0.0,0.0,0.0,0.0,0.0,0.0,0.0,0.0,0.0,0.0,0.0,0.0,0.0,0.0,0.0,0.0,0.0,0.0,0.0,0.0,0.0,0.0,0.0,0.0,0.0,0.0,0.0,0.0,0.0,0.3229,0.3175,0.3175,0.3175,0.3175,0.3175,0.3212,0.0,0.0,0.0,0.0,0.0,0.0,0.0,0.0,0.0,0.0,0.0,0.0,0.0,0.0,0.0,0.0,0.0,0.0,0.0,0.0,0.0,0.0,0.0,0.0,0.0,0.0,0.0,0.0,0.0,0.0,0.0,0.0,0.0,0.0,0.0,0.0,0.0,0.0,0.0,0.0,0.0,0.0,0.0,0.0,0.0,0.0,0.0,0.0,0.0,0.0,0.0,0.0,0.0,0.0,0.0,0.0,0.0,0.0,0.0,0.0,0.0,0.0,0.0,0.0,0.0,0.0,0.0,0.0,0.0,0.0,0.0,0.0,0.0,0.0,0.0,0.0,0.0,0.0,0.0,0.0,0.0,0.0,0.0,0.0,0.0,0.0,0.0,0.0,0.0,0.0,0.0,0.0,0.0,0.0,0.0,0.0,0.0,0.0,0.0,0.0,0.0,0.0,0.0,0.0,0.0,0.0,0.0,0.0,0.3121,0.3112,0.3133,0.3109,0.3109,0.3142,0.0,0.0,0.0,0.0,0.0,0.0,0.0,0.0,0.0,0.0,0.0,0.0,0.0,0.0,0.0,0.0,0.0,0.0,0.0,0.0,0.0,0.0,0.0,0.0,0.0,0.0,0.0,0.0,0.0,0.0,0.0,0.0,0.0,0.0,0.0,0.0,0.0,0.0,0.0,0.0,0.0,0.0,0.0,0.0,0.0,0.0,0.0,0.0,0.0,0.0,0.0,0.0,0.0,0.0,0.0,0.0,0.0,0.0,0.0,0.0,0.0,0.0,0.0,0.0,0.0,0.0,0.0,0.0,0.0,0.0,0.0,0.0,0.0,0.0,0.0,0.0,0.0,0.0,0.0,0.0,0.0,0.0,0.0,0.0,0.0,0.0,0.0,0.0,0.0,0.0,0.0,0.0,0.0,0.0,0.0,0.0,0.0,0.0,0.0,0.0,0.0,0.0,0.0,0.0,0.0,0.0,0.0,0.0,0.0,0.3179,0.3366,0.3347,0.3121,0.3109,0.3159,0.0,0.0,0.0,0.0,0.0,0.0,0.0,0.0,0.0,0.0,0.0,0.0,0.0,0.0,0.0,0.0,0.0,0.0,0.0,0.0,0.0,0.0,0.0,0.0,0.0,0.0,0.0,0.0,0.0,0.0,0.0,0.0,0.0,0.0,0.0,0.0,0.0,0.0,0.0,0.0,0.0,0.0,0.0,0.0,0.0,0.0,0.0,0.0,0.0,0.0,0.0,0.0,0.0,0.0,0.0,0.0,0.0,0.0,0.0,0.0,0.0,0.0,0.0,0.0,0.0,0.0,0.0,0.0,0.0,0.0,0.0,0.0,0.0,0.0,0.0,0.0,0.0,0.0,0.0,0.0,0.0,0.0,0.0,0.0,0.0,0.0,0.0,0.0,0.0,0.0,0.0,0.0,0.0,0.0,0.0,0.0,0.0,0.0,0.0,0.0,0.0,0.0,0.0,0.0,0.0,0.0,0.0,0.0,0.3409,0.3248,0.3497,0.3504,0.3308,0.3238,0.3267,0.0,0.0,0.0,0.0,0.0,0.0,0.0,0.0,0.0,0.0,0.0,0.0,0.0,0.0,0.0,0.0,0.0,0.0,0.0,0.0,0.0,0.0,0.0,0.0,0.0,0.0,0.0,0.0,0.0,0.0,0.0,0.0,0.0,0.0,0.0,0.0,0.0,0.0,0.0,0.0,0.0,0.0,0.0,0.0,0.0,0.0,0.0,0.0,0.0,0.0,0.0,0.0,0.0,0.0,0.0,0.0,0.0,0.0,0.0,0.0,0.0,0.0,0.0,0.0,0.0,0.0,0.0,0.0,0.0,0.0,0.0,0.0,0.0,0.0,0.0,0.0,0.0,0.0,0.0,0.0,0.0,0.0,0.0,0.0,0.0,0.0,0.0,0.0,0.0,0.0,0.0,0.0,0.0,0.0,0.0,0.0,0.0,0.0,0.0,0.0,0.0,0.0,0.0,0.0,0.0,0.0,0.0,0.0,0.3466,0.3351,0.357,0.3652,0.3633,0.3424,0.3405,0.0,0.0,0.0,0.0,0.0,0.0,0.0,0.0,0.0,0.0,0.0,0.0,0.0,0.0,0.0,0.0,0.0,0.0,0.0,0.0,0.0,0.0,0.0,0.0,0.0,0.0,0.0,0.0,0.0,0.0,0.0,0.0,0.0,0.0,0.0,0.0,0.0,0.0,0.0,0.0,0.0,0.0,0.0,0.0,0.0,0.0,0.0,0.0,0.0,0.0,0.0,0.0,0.0,0.0,0.0,0.0,0.0,0.0,0.0,0.0,0.0,0.0,0.0,0.0,0.0,0.0,0.0,0.0,0.0,0.0,0.0,0.0,0.0,0.0,0.0,0.0,0.0,0.0,0.0,0.0,0.0,0.0,0.0,0.0,0.0,0.0,0.0,0.0,0.0,0.0,0.0,0.0,0.0,0.0,0.0,0.0,0.0,0.0,0.0,0.0,0.0,0.0,0.0,0.0,0.0,0.0,0.0,0.0,0.3656,0.3714,0.3985,0.4098,0.3995,0.3548,0.3422,0.0,0.0,0.0,0.0,0.0,0.0,0.0,0.0,0.0,0.0,0.0,0.0,0.0,0.0,0.0,0.0,0.0,0.0,0.0,0.0,0.0,0.0,0.0,0.0,0.0,0.0,0.0,0.0,0.0,0.0,0.0,0.0,0.0,0.0,0.0,0.0,0.0,0.0,0.0,0.0,0.0,0.0,0.0,0.0,0.0,0.0,0.0,0.0,0.3911,0.0,0.0,0.0,0.0,0.0,0.0,0.0,0.0,0.0,0.0,0.0,0.0,0.0,0.0,0.0,0.0,0.0,0.0,0.0,0.0,0.0,0.0,0.0,0.0,0.0,0.0,0.0,0.0,0.0,0.0,0.0,0.0,0.0,0.0,0.0,0.0,0.0,0.0,0.0,0.0,0.0,0.0,0.0,0.0,0.0,0.0,0.0,0.0,0.0,0.0,0.0,0.0,0.0,0.0,0.0,0.0,0.0,0.0,0.0,0.3751,0.3905,0.414,0.4254,0.4176,0.3782,0.3676,0.0,0.0,0.0,0.0,0.0,0.0,0.0,0.0,0.0,0.0,0.0,0.0,0.0,0.0,0.0,0.0,0.0,0.0,0.0,0.0,0.0,0.0,0.0,0.0,0.0,0.0,0.0,0.0,0.0,0.0,0.0,0.0,0.0,0.0,0.0,0.0,0.0,0.0,0.0,0.0,0.0,0.0,0.0,0.0,0.0,0.0,0.0,0.0,0.0,0.0,0.0,0.0,0.0,0.0,0.0,0.0,0.0,0.0,0.0,0.0,0.0,0.0,0.0,0.0,0.0,0.0,0.0,0.0,0.0,0.0,0.0,0.0,0.0,0.0,0.0,0.0,0.0,0.0,0.0,0.0,0.0,0.0,0.0,0.0,0.0,0.0,0.0,0.0,0.0,0.0,0.0,0.0,0.0,0.0,0.0,0.0,0.0,0.0,0.0,0.0,0.0,0.0,0.0,0.0,0.0,0.0,0.0,0.3719,0.3822,0.4049,0.4199,0.4298,0.429,0.4032,0.3944,0.3998,0.0,0.0,0.0,0.0,0.0,0.0,0.0,0.0,0.0,0.0,0.0,0.0,0.0,0.0,0.0,0.0,0.0,0.0,0.0,0.0,0.0,0.0,0.0,0.0,0.0,0.0,0.0,0.0,0.0,0.0,0.0,0.0,0.0,0.0,0.0,0.0,0.0,0.0,0.3406,0.3793,0.0,0.0,0.0,0.0,0.0,0.0,0.0,0.0,0.4574,0.0,0.0,0.0,0.0,0.0,0.0,0.0,0.0,0.0,0.0,0.0,0.0,0.0,0.0,0.0,0.0,0.0,0.0,0.0,0.0,0.0,0.0,0.0,0.0,0.0,0.0,0.0,0.0,0.0,0.0,0.0,0.0,0.0,0.0,0.0,0.0,0.0,0.0,0.0,0.0,0.0,0.0,0.0,0.0,0.0,0.0,0.0,0.0,0.0,0.0,0.0,0.0,0.0,0.0,0.0,0.0,0.3931,0.3789,0.3858,0.4245,0.4278,0.4298,0.4312,0.4096,0.3983,0.3989,0.0,0.0,0.0,0.0,0.0,0.0,0.0,0.0,0.0,0.0,0.0,0.0,0.0,0.0,0.0,0.0,0.0,0.0,0.0,0.0,0.0,0.0,0.0,0.0,0.0,0.0,0.0,0.0,0.0,0.0,0.0,0.0,0.0,0.0,0.0,0.0,0.0,0.0,0.0,0.4186,0.4453,0.0,0.0,0.0,0.0,0.0,0.0,0.0,0.0,0.4985,0.0,0.0,0.0,0.0,0.0,0.0,0.0,0.0,0.0,0.0,0.0,0.0,0.0,0.0,0.0,0.0,0.0,0.0,0.0,0.0,0.0,0.0,0.0,0.0,0.0,0.0,0.0,0.0,0.0,0.0,0.0,0.0,0.0,0.0,0.0,0.0,0.0,0.0,0.0,0.0,0.0,0.0,0.0,0.0,0.0,0.0,0.0,0.0,0.0,0.0,0.0,0.0,0.0,0.0,0.0,0.3919,0.3782,0.389,0.4282,0.4298,0.4298,0.429,0.4096,0.4006,0.0,0.0,0.0,0.0,0.0,0.0,0.0,0.0,0.0,0.0,0.0,0.0,0.0,0.0,0.0,0.0,0.0,0.0,0.0,0.0,0.0,0.0,0.0,0.0,0.0,0.0,0.0,0.0,0.0,0.0,0.0,0.0,0.0,0.0,0.0,0.0,0.0,0.0,0.0,0.0,0.4556,0.4746,0.4981,0.0,0.0,0.0,0.0,0.0,0.0,0.53,0.5327,0.0,0.0,0.0,0.0,0.0,0.0,0.0,0.0,0.0,0.0,0.0,0.0,0.0,0.0,0.0,0.0,0.0,0.0,0.0,0.0,0.0,0.0,0.0,0.0,0.0,0.0,0.0,0.0,0.0,0.0,0.0,0.0,0.0,0.0,0.0,0.0,0.0,0.0,0.0,0.0,0.0,0.0,0.0,0.0,0.0,0.0,0.0,0.0,0.0,0.0,0.0,0.0,0.0,0.0,0.0,0.3889,0.3763,0.387,0.4278,0.4276,0.4276,0.429,0.4096,0.4006,0.0,0.0,0.0,0.0,0.0,0.0,0.0,0.0,0.0,0.0,0.0,0.0,0.0,0.0,0.0,0.0,0.0,0.0,0.0,0.0,0.0,0.0,0.0,0.0,0.0,0.0,0.0,0.0,0.0,0.0,0.0,0.0,0.0,0.0,0.0,0.0,0.0,0.0,0.0,0.0,0.0,0.5032,0.5352,0.5458,0.0,0.0,0.0,0.0,0.564,0.5668,0.0,0.0,0.0,0.0,0.0,0.0,0.0,0.0,0.0,0.0,0.0,0.0,0.0,0.0,0.0,0.0,0.0,0.0,0.0,0.0,0.0,0.0,0.0,0.0,0.0,0.0,0.0,0.0,0.0,0.0,0.0,0.0,0.0,0.0,0.0,0.0,0.0,0.0,0.0,0.0,0.0,0.0,0.0,0.0,0.0,0.0,0.0,0.0,0.0,0.0,0.0,0.0,0.0,0.0,0.0,0.0,0.3885,0.3702,0.383,0.4278,0.4192,0.4196,0.4294,0.4116,0.4006,0.0,0.0,0.0,0.0,0.0,0.0,0.0,0.0,0.0,0.0,0.0,0.0,0.0,0.0,0.0,0.0,0.0,0.0,0.0,0.0,0.0,0.0,0.0,0.0,0.0,0.0,0.0,0.0,0.0,0.0,0.0,0.0,0.0,0.0,0.0,0.0,0.0,0.0,0.0,0.0,0.0,0.5291,0.5386,0.5467,0.5545,0.0,0.0,0.5905,0.5929,0.6098,0.0,0.0,0.0,0.0,0.0,0.0,0.0,0.0,0.0,0.0,0.0,0.0,0.0,0.0,0.0,0.0,0.0,0.0,0.0,0.0,0.0,0.0,0.0,0.0,0.0,0.0,0.0,0.0,0.0,0.0,0.0,0.0,0.0,0.0,0.0,0.0,0.0,0.0,0.0,0.0,0.0,0.0,0.0,0.0,0.0,0.0,0.0,0.0,0.0,0.0,0.0,0.0,0.0,0.0,0.0,0.3627,0.3732,0.3723,0.3876,0.418,0.413,0.4174,0.4298,0.4101,0.4006,0.0,0.0,0.0,0.0,0.0,0.0,0.0,0.0,0.0,0.0,0.0,0.0,0.0,0.0,0.0,0.0,0.0,0.0,0.0,0.0,0.0,0.0,0.0,0.0,0.0,0.0,0.0,0.0,0.0,0.0,0.0,0.0,0.0,0.0,0.0,0.0,0.0,0.0,0.0,0.0,0.0,0.0,0.5347,0.558,0.0,0.0,0.0,0.6254,0.6279,0.0,0.0,0.0,0.0,0.0,0.0,0.0,0.0,0.0,0.0,0.0,0.0,0.0,0.0,0.0,0.0,0.0,0.0,0.0,0.0,0.0,0.0,0.0,0.0,0.0,0.0,0.0,0.0,0.0,0.0,0.0,0.0,0.0,0.0,0.0,0.0,0.0,0.0,0.0,0.0,0.0,0.0,0.0,0.0,0.0,0.0,0.0,0.0,0.0,0.0,0.0,0.0,0.0,0.0,0.0,0.0,0.0,0.3602,0.3677,0.3827,0.4034,0.4064,0.4104,0.425,0.4096,0.0,0.0,0.0,0.0,0.0,0.0,0.0,0.0,0.0,0.0,0.0,0.0,0.0,0.0,0.0,0.0,0.0,0.0,0.0,0.0,0.0,0.0,0.0,0.0,0.0,0.0,0.0,0.281,0.0,0.0,0.0,0.0,0.0,0.0,0.0,0.0,0.0,0.0,0.0,0.0,0.0,0.0,0.5391,0.5391,0.5807,0.6121,0.0,0.0,0.6638,0.6672,0.6688,0.6689,0.0,0.0,0.0,0.0,0.0,0.0,0.0,0.0,0.0,0.0,0.0,0.0,0.0,0.0,0.0,0.0,0.0,0.0,0.0,0.0,0.0,0.0,0.0,0.0,0.0,0.0,0.0,0.0,0.0,0.0,0.0,0.0,0.0,0.0,0.0,0.0,0.0,0.0,0.0,0.0,0.0,0.0,0.0,0.0,0.0,0.0,0.0,0.0,0.0,0.0,0.0,0.0,0.0,0.0,0.0,0.3602,0.3556,0.3658,0.3899,0.3928,0.3972,0.4126,0.404,0.4006,0.0,0.0,0.0,0.0,0.0,0.0,0.0,0.0,0.0,0.0,0.0,0.0,0.0,0.0,0.0,0.0,0.0,0.0,0.0,0.0,0.0,0.0,0.0,0.0,0.0,0.0,0.0,0.0,0.0,0.0,0.0,0.0,0.0,0.0,0.0,0.0,0.0,0.0,0.0,0.0,0.0,0.5685,0.5685,0.6116,0.6462,0.0,0.0,0.7006,0.7149,0.735,0.7464,0.728,0.0,0.0,0.0,0.0,0.0,0.0,0.0,0.0,0.0,0.0,0.0,0.0,0.0,0.0,0.0,0.0,0.0,0.0,0.0,0.0,0.0,0.0,0.0,0.0,0.0,0.0,0.0,0.0,0.0,0.0,0.0,0.0,0.0,0.0,0.0,0.0,0.0,0.0,0.0,0.0,0.0,0.0,0.0,0.0,0.0,0.0,0.0,0.0,0.0,0.0,0.0,0.0,0.0,0.3513,0.3549,0.3598,0.3666,0.3785,0.3858,0.3972,0.4086,0.4144,0.4119,0.0,0.0,0.0,0.0,0.0,0.0,0.0,0.0,0.0,0.0,0.0,0.0,0.0,0.0,0.0,0.0,0.0,0.0,0.0,0.0,0.0,0.0,0.0,0.0,0.0,0.0,0.0,0.0,0.281,0.2907,0.3163,0.0,0.0,0.0,0.0,0.0,0.0,0.0,0.0,0.0,0.0,0.5778,0.5976,0.6444,0.0,0.0,0.7057,0.7349,0.7481,0.7551,0.7632,0.7663,0.7826,0.0,0.0,0.0,0.0,0.0,0.0,0.0,0.0,0.0,0.0,0.0,0.0,0.0,0.0,0.0,0.0,0.0,0.0,0.0,0.0,0.0,0.0,0.0,0.0,0.0,0.0,0.0,0.0,0.0,0.0,0.0,0.0,0.0,0.0,0.0,0.0,0.0,0.0,0.0,0.0,0.0,0.0,0.0,0.0,0.0,0.0,0.0,0.0,0.0,0.0,0.0,0.0,0.3603,0.3517,0.3608,0.366,0.366,0.3788,0.3902,0.4038,0.4169,0.4132,0.0,0.0,0.0,0.0,0.0,0.0,0.0,0.0,0.0,0.0,0.0,0.0,0.0,0.0,0.0,0.0,0.0,0.0,0.0,0.0,0.0,0.0,0.0,0.0,0.0,0.0,0.0,0.0,0.2896,0.3095,0.3363,0.0,0.0,0.0,0.0,0.0,0.0,0.0,0.0,0.0,0.0,0.6045,0.629,0.6748,0.7041,0.7048,0.7388,0.7705,0.789,0.7908,0.7983,0.8119,0.0,0.0,0.0,0.0,0.0,0.0,0.0,0.0,0.0,0.0,0.0,0.0,0.0,0.0,0.0,0.0,0.0,0.0,0.0,0.0,0.0,0.0,0.0,0.0,0.0,0.0,0.0,0.0,0.0,0.0,0.4574,0.0,0.0,0.0,0.0,0.0,0.0,0.0,0.0,0.0,0.0,0.0,0.0,0.0,0.0,0.0,0.0,0.0,0.0,0.0,0.0,0.0,0.0,0.3633,0.3503,0.355,0.36,0.36,0.366,0.3766,0.3924,0.3983,0.4011,0.4006,0.0,0.0,0.0,0.0,0.0,0.0,0.0,0.0,0.0,0.0,0.0,0.0,0.0,0.0,0.0,0.0,0.0,0.0,0.0,0.0,0.0,0.0,0.0,0.0,0.0,0.0,0.2821,0.3157,0.3392,0.0,0.0,0.0,0.0,0.0,0.0,0.0,0.0,0.0,0.0,0.617,0.6567,0.66,0.7038,0.737,0.7377,0.7724,0.8075,0.8329,0.8529,0.8683,0.0,0.0,0.0,0.0,0.0,0.0,0.0,0.0,0.0,0.0,0.0,0.0,0.0,0.0,0.0,0.0,0.0,0.0,0.0,0.0,0.0,0.0,0.0,0.0,0.0,0.0,0.0,0.4318,0.4433,0.0,0.0,0.0,0.0,0.0,0.0,0.0,0.0,0.0,0.0,0.0,0.4769,0.47,0.0,0.0,0.0,0.0,0.0,0.0,0.0,0.0,0.0,0.0,0.0,0.0,0.3528,0.3453,0.3441,0.3464,0.3486,0.3575,0.3726,0.3902,0.4093,0.421,0.4266,0.0,0.0,0.0,0.0,0.0,0.0,0.0,0.0,0.0,0.0,0.0,0.0,0.0,0.0,0.0,0.0,0.0,0.0,0.0,0.0,0.0,0.0,0.0,0.0,0.0,0.288,0.0,0.0,0.0,0.0,0.0,0.0,0.0,0.0,0.0,0.0,0.0,0.5636,0.6027,0.6369,0.666,0.6827,0.7176,0.7391,0.0,0.0,0.0,0.0,0.0,0.0,0.0,0.0,0.0,0.0,0.0,0.0,0.0,0.0,0.8255,0.8199,0.8159,0.8076,0.7951,0.0,0.0,0.0,0.0,0.0,0.0,0.0,0.0,0.0,0.0,0.0,0.0,0.0,0.0,0.0,0.0,0.4736,0.0,0.0,0.0,0.0,0.0,0.0,0.0,0.0,0.4929,0.4947,0.4947,0.4801,0.4729,0.0,0.4683,0.4601,0.0,0.0,0.0,0.0,0.0,0.0,0.0,0.0,0.348,0.3391,0.335,0.3328,0.3328,0.3464,0.3622,0.3796,0.4064,0.4277,0.4387,0.4343,0.4371,0.0,0.0,0.0,0.0,0.0,0.0,0.0,0.0,0.0,0.0,0.0,0.0,0.0,0.0,0.0,0.0,0.0,0.0,0.0,0.0,0.0,0.0,0.0,0.312,0.0,0.0,0.0,0.0,0.0,0.0,0.0,0.0,0.0,0.5184,0.5544,0.5925,0.6239,0.656,0.6807,0.6973,0.0,0.0,0.0,0.0,0.0,0.0,0.0,0.8817,0.9139,0.9248,0.9388,0.9654,0.9521,0.9272,0.8986,0.0,0.0,0.8614,0.8489,0.8394,0.8324,0.8254,0.8061,0.7662,0.745,0.7232,0.0,0.0,0.0,0.0,0.0,0.0,0.0,0.0,0.5267,0.5351,0.0,0.5292,0.0,0.0,0.0,0.0,0.0,0.0,0.0,0.0,0.5251,0.5195,0.5162,0.503,0.4985,0.4985,0.4849,0.4796,0.4775,0.4596,0.0,0.0,0.0,0.0,0.0,0.0,0.3512,0.3398,0.3236,0.3192,0.3192,0.3306,0.3464,0.3619,0.3945,0.4222,0.4389,0.4337,0.4431,0.4662,0.4582,0.0,0.0,0.0,0.0,0.0,0.0,0.0,0.0,0.0,0.0,0.0,0.0,0.0,0.0,0.0,0.0,0.0,0.0,0.0,0.0,0.3513,0.0,0.0,0.0,0.0,0.0,0.0,0.0,0.0,0.0,0.0,0.5232,0.5839,0.629,0.6302,0.0,0.0,0.0,0.0,0.7391,0.7391,0.7759,0.8041,0.8188,0.8488,0.8765,0.8975,0.0,0.0,0.9643,0.9683,0.9664,0.9703,0.9538,0.9299,0.8647,0.8458,0.8361,0.8334,0.8211,0.8008,0.7902,0.7645,0.7396,0.4647,0.0,0.0,0.0,0.0,0.4808,0.4911,0.5014,0.5059,0.5162,0.526,0.5227,0.0,0.0,0.0,0.0,0.0,0.0,0.5182,0.526,0.5112,0.5063,0.5063,0.4935,0.4857,0.4857,0.4734,0.4664,0.466,0.4489,0.438,0.4306,0.0,0.0,0.0,0.0,0.3328,0.3123,0.3078,0.3078,0.3056,0.3192,0.3439,0.3818,0.4093,0.4308,0.4386,0.4384,0.4466,0.469,0.4571,0.0,0.0,0.0,0.0,0.0,0.0,0.0,0.0,0.0,0.0,0.0,0.0,0.0,0.0,0.0,0.0,0.0,0.0,0.0,0.3507,0.367,0.3786,0.0,0.0,0.0,0.0,0.0,0.0,0.0,0.0,0.0,0.5772,0.607,0.6366,0.0,0.0,0.6993,0.6993,0.7238,0.7391,0.7391,0.0,0.0,0.0,0.848,0.8765,0.8975,0.9168,0.9368,0.9515,0.9563,0.9563,0.9554,0.9515,0.9414,0.914,0.903,0.8963,0.8826,0.8749,0.8558,0.8131,0.784,0.7573,0.4833,0.4977,0.4919,0.4942,0.4992,0.5181,0.5288,0.5373,0.5426,0.5438,0.5422,0.5427,0.5349,0.5321,0.5226,0.0,0.0,0.0,0.5297,0.5362,0.5208,0.513,0.5105,0.5023,0.4997,0.4993,0.4868,0.4795,0.4791,0.4565,0.4436,0.4409,0.0,0.0,0.3678,0.3496,0.333,0.3164,0.3046,0.3001,0.2998,0.313,0.3391,0.3814,0.4078,0.4288,0.4472,0.4543,0.4586,0.4694,0.4682,0.4718,0.0,0.0,0.0,0.0,0.0,0.0,0.0,0.0,0.0,0.0,0.0,0.4117,0.4025,0.0,0.0,0.0,0.3877,0.386,0.3813,0.4028,0.0,0.0,0.0,0.0,0.0,0.0,0.0,0.5724,0.5913,0.6033,0.6163,0.6325,0.6532,0.6689,0.6865,0.6993,0.6993,0.0,0.744,0.7581,0.7916,0.8238,0.8482,0.8778,0.9086,0.9397,0.9579,0.9677,0.9644,0.9647,0.9614,0.945,0.9406,0.9335,0.9188,0.9168,0.9116,0.9016,0.8935,0.873,0.8304,0.8047,0.776,0.5,0.5172,0.5341,0.5495,0.5604,0.5828,0.5888,0.5918,0.6027,0.5999,0.5801,0.5746,0.5652,0.5527,0.5336,0.0,0.554,0.5413,0.5453,0.561,0.542,0.5341,0.5341,0.5337,0.5341,0.5341,0.5183,0.5093,0.5081,0.4706,0.4493,0.449,0.4172,0.3918,0.377,0.3518,0.3396,0.3393,0.3139,0.3008,0.3,0.3138,0.3379,0.3675,0.3928,0.4258,0.4591,0.4714,0.4759,0.4734,0.4839,0.4854,0.4822,0.0,0.0,0.0,0.0,0.0,0.0,0.0,0.0,0.0,0.0,0.0,0.0,0.0,0.0,0.0,0.4187,0.0,0.434,0.4506,0.0,0.0,0.0,0.5144,0.5307,0.5394,0.5589,0.5977,0.0,0.0,0.6359,0.0,0.6725,0.6725,0.6919,0.704,0.7033,0.7299,0.7574,0.7877,0.8216,0.8536,0.8852,0.9174,0.9495,0.9888,1.0174,1.0139,0.996,0.9933,0.9753,0.9471,0.9287,0.9189,0.9047,0.8974,0.8871,0.8923,0.8785,0.8594,0.8362,0.8129,0.7867,0.5259,0.5424,0.562,0.5614,0.5464,0.5763,0.5888,0.5888,0.5914,0.592,0.5883,0.5872,0.5826,0.581,0.5769,0.5744,0.5814,0.5785,0.5776,0.5817,0.5792,0.5762,0.5758,0.5762,0.5762,0.5725,0.5356,0.518,0.5173,0.4733,0.4491,0.4487,0.4158,0.3875,0.3658,0.3471,0.3343,0.3268,0.3191,0.3156,0.3163,0.3295,0.3435,0.3622,0.3843,0.4126,0.4495,0.4505,0.4645,0.4968,0.4847,0.4807,0.4945,0.4909,0.0,0.0,0.0,0.0,0.0,0.0,0.0,0.0,0.0,0.4572,0.4436,0.0,0.4309,0.0,0.4271,0.441,0.4658,0.4726,0.0,0.0,0.5031,0.523,0.5581,0.5669,0.5869,0.6262,0.6298,0.6337,0.641,0.674,0.701,0.7026,0.7235,0.7406,0.739,0.7682,0.7983,0.8168,0.8391,0.8605,0.8834,0.9167,0.9515,0.9758,0.9918,0.999,1.004,1.0143,1.0144,0.9929,0.9679,0.944,0.9181,0.8815,0.8561,0.8537,0.8516,0.8373,0.8085,0.7878,0.7691,0.5336,0.5516,0.5789,0.585,0.573,0.5934,0.6092,0.6124,0.6124,0.611,0.6029,0.5955,0.5888,0.5888,0.5888,0.5888,0.5888,0.5888,0.5888,0.5888,0.5888,0.5888,0.5888,0.5888,0.5888,0.5884,0.5489,0.5295,0.5255,0.4837,0.4565,0.459,0.4191,0.392,0.3784,0.3594,0.3463,0.3379,0.3327,0.3293,0.3269,0.3354,0.3502,0.3676,0.3832,0.4082,0.4478,0.4551,0.4721,0.503,0.5003,0.5026,0.5119,0.5115,0.5098,0.0,0.0,0.0,0.0,0.0,0.0,0.0,0.0,0.0,0.0,0.0,0.4583,0.4444,0.4444,0.4529,0.4793,0.4873,0.4988,0.5114,0.5276,0.5497,0.579,0.587,0.6032,0.6355,0.6498,0.6592,0.6599,0.6937,0.719,0.7266,0.7572,0.7739,0.7709,0.7916,0.8177,0.8404,0.8594,0.8868,0.9195,0.9599,0.9915,1.0052,1.0212,1.0314,1.0203,1.0254,1.0235,0.9958,0.9765,0.952,0.9161,0.884,0.8551,0.8248,0.8126,0.8023,0.7857,0.767,0.7461,0.5352,0.5537,0.5919,0.6089,0.6137,0.6181,0.6281,0.6418,0.6456,0.6384,0.6201,0.603,0.5953,0.5927,0.5957,0.5957,0.5957,0.5953,0.5957,0.5957,0.5957,0.5957,0.5957,0.5988,0.5957,0.5957,0.5628,0.5464,0.5426,0.5,0.4737,0.4684,0.4279,0.4039,0.3993,0.3747,0.361,0.361,0.3477,0.3417,0.3425,0.3435,0.3571,0.3792,0.387,0.4102,0.4482,0.467,0.4874,0.5019,0.5198,0.5287,0.5303,0.5357,0.5358,0.0,0.5493,0.0,0.0,0.0,0.0,0.0,0.0,0.0,0.0,0.4785,0.478,0.4644,0.4605,0.4673,0.4824,0.5029,0.5173,0.5321,0.5566,0.5788,0.5976,0.6047,0.6157,0.6422,0.6673,0.686,0.6872,0.7162,0.7406,0.7533,0.7864,0.8091,0.803,0.8111,0.8341,0.8616,0.8805,0.9116,0.9588,1.0064,1.032,1.0413,1.0559,1.0688,1.0385,1.0335,1.0205,0.9903,0.9766,0.9543,0.9066,0.8919,0.8614,0.8104,0.7839,0.7691,0.7649,0.7475,0.7265,0.5519,0.5628,0.5891,0.6094,0.6261,0.6158,0.6291,0.6573,0.6819,0.668,0.6368,0.6195,0.6144,0.6148,0.6254,0.6319,0.6286,0.6319,0.6319,0.6319,0.6319,0.6314,0.6319,0.6286,0.6319,0.6278,0.595,0.5758,0.5653,0.5277,0.4958,0.472,0.4487,0.427,0.3999,0.0,0.0,0.0,0.3561,0.3571,0.3559,0.368,0.3736,0.3802,0.3978,0.0,0.449,0.4583,0.4822,0.5198,0.5173,0.0,0.0,0.0,0.0,0.0,0.0,0.0,0.0,0.0,0.0,0.0,0.5142,0.5128,0.4872,0.4687,0.463,0.4753,0.4728,0.4821,0.5076,0.5199,0.5327,0.5455,0.5604,0.5788,0.5987,0.6196,0.6434,0.6693,0.6963,0.7127,0.7145,0.7468,0.771,0.7747,0.8094,0.8358,0.8436,0.8546,0.8728,0.8886,0.9028,0.9257,0.9581,0.9744,0.9906,1.0051,1.0265,1.0405,1.0426,1.0452,1.046,1.0307,1.0009,0.9642,0.9413,0.8906,0.8467,0.818,0.7823,0.753,0.7454,0.7245,0.6985,0.5692,0.0,0.6011,0.6218,0.0,0.6323,0.6436,0.6574,0.6628,0.6541,0.6355,0.6264,0.626,0.626,0.6405,0.6465,0.6415,0.652,0.6505,0.642,0.642,0.642,0.642,0.642,0.642,0.6383,0.616,0.602,0.5912,0.5503,0.5201,0.5036,0.4747,0.4487,0.4235,0.394,0.3744,0.3613,0.3613,0.3663,0.3788,0.38,0.3907,0.414,0.0,0.0,0.0,0.0,0.0,0.0,0.0,0.0,0.0,0.0,0.0,0.5401,0.5522,0.5539,0.5431,0.5423,0.5415,0.5293,0.5199,0.5116,0.505,0.4862,0.4788,0.4899,0.4866,0.4952,0.5161,0.538,0.5534,0.5674,0.5892,0.6144,0.6378,0.6522,0.6696,0.6954,0.723,0.7394,0.7394,0.7657,0.7899,0.7996,0.818,0.8342,0.8501,0.8606,0.8771,0.8956,0.9035,0.9159,0.9368,0.9536,0.9647,0.9803,0.9991,1.0162,1.0231,1.0257,1.0265,1.0223,1.0033,0.9753,0.9407,0.9035,0.8644,0.8134,0.7721,0.7439,0.7244,0.7076,0.6865,0.5863,0.5935,0.6268,0.6378,0.6378,0.6567,0.6592,0.6581,0.0,0.0,0.0,0.628,0.6265,0.6269,0.6488,0.6522,0.646,0.6598,0.6625,0.6513,0.6513,0.6497,0.6469,0.6469,0.6415,0.6387,0.6284,0.6214,0.6174,0.5722,0.5453,0.5353,0.4982,0.4683,0.4429,0.4053,0.3766,0.3613,0.3638,0.3747,0.399,0.3911,0.4082,0.4501,0.4302,0.4388,0.4773,0.4704,0.4825,0.523,0.5283,0.5415,0.5631,0.5734,0.5726,0.5642,0.582,0.58,0.5595,0.5609,0.5631,0.5624,0.5235,0.5018,0.5089,0.4975,0.496,0.4971,0.4997,0.5078,0.524,0.556,0.5815,0.5919,0.6206,0.6506,0.6761,0.6855,0.6981,0.7243,0.7504,0.7642,0.7648,0.7778,0.7955,0.8082,0.8135,0.8215,0.8342,0.8474,0.8626,0.8844,0.8896,0.8975,0.9159,0.9342,0.9484,0.9543,0.9706,0.987,0.9888,0.9862,0.9862,0.9895,0.987,0.964,0.9292,0.9111,0.8849,0.8068,0.7734,0.7455,0.708,0.6943,0.6772,0.6086,0.6331,0.6562,0.6637,0.6637,0.6678,0.6603,0.65,0.6349,0.6289,0.6279,0.619,0.6133,0.6133,0.6269,0.6437,0.66,0.6596,0.6726,0.0,0.691,0.6833,0.666,0.666,0.6574,0.6395,0.6387,0.6317,0.6178,0.5965,0.569,0.5407,0.5146,0.4778,0.4273,0.4059,0.3855,0.3616,0.3719,0.3827,0.3993,0.4091,0.4294,0.4587,0.4543,0.4706,0.5102,0.4959,0.5061,0.5433,0.5368,0.5371,0.5518,0.5636,0.5707,0.5674,0.5631,0.5545,0.5513,0.5421,0.5321,0.5267,0.5061,0.4852,0.4701,0.4661,0.4737,0.4901,0.5024,0.5166,0.5366,0.5731,0.5955,0.6003,0.6234,0.6517,0.6795,0.6997,0.7225,0.7496,0.7731,0.7862,0.7856,0.7871,0.7901,0.7928,0.7981,0.8008,0.8195,0.8348,0.8468,0.8626,0.8653,0.8765,0.8982,0.9061,0.9159,0.9237,0.9309,0.942,0.9491,0.9446,0.942,0.9465,0.9446,0.9321,0.9172,0.8943,0.8668,0.8299,0.7985,0.7629,0.7064,0.6867,0.6665,0.6271,0.6512,0.6652,0.6702,0.6702,0.6702,0.6661,0.6627,0.6534,0.6454,0.6301,0.6231,0.6204,0.6241,0.6384,0.6522,0.6587,0.6697,0.6865,0.6992,0.6984,0.6947,0.6878,0.6873,0.6775,0.6574,0.657,0.648,0.6288,0.6148,0.5946,0.5679,0.53,0.4907,0.4602,0.4463,0.4239,0.394,0.3834,0.3852,0.3993,0.4242,0.4488,0.4766,0.476,0.4966,0.5348,0.5156,0.5199,0.5539,0.556,0.5594,0.5659,0.5756,0.5808,0.5808,0.5756,0.571,0.571,0.5553,0.5363,0.5133,0.5003,0.4845,0.4619,0.4798,0.4954,0.5046,0.5131,0.5211,0.5394,0.5723,0.5996,0.6147,0.6462,0.6772,0.703,0.7243,0.7454,0.7637,0.7791,0.7901,0.7901,0.7901,0.7901,0.7901,0.7901,0.7955,0.8035,0.8082,0.8215,0.8448,0.8501,0.858,0.8765,0.885,0.8929,0.9061,0.9159,0.9211,0.9283,0.9237,0.9237,0.9256,0.9237,0.9133,0.9035,0.888,0.8602,0.8188,0.7985,0.7614,0.7138,0.6747,0.6355,0.6455,0.6741,0.6763,0.68,0.6793,0.6766,0.6753,0.6749,0.6715,0.6573,0.6412,0.6364,0.6334,0.6338,0.6451,0.6572,0.6693,0.6824,0.6982,0.7118,0.7106,0.7086,0.7053,0.7049,0.6959,0.6761,0.6712,0.6619,0.6456,0.6271,0.6083,0.5807,0.5434,0.5101,0.4884,0.4805,0.4588,0.4271,0.4048,0.3996,0.4052,0.4356,0.4653,0.4889,0.4942,0.5163,0.5553,0.5408,0.5406,0.565,0.5751,0.5795,0.5795,0.5873,0.5898,0.5898,0.5898,0.5844,0.577,0.5579,0.5327,0.5048,0.4998,0.4885,0.4727,0.4959,0.5144,0.5136,0.5181,0.5274,0.5461,0.5754,0.606,0.6253,0.6658,0.6961,0.7225,0.7365,0.7521,0.7676,0.7815,0.7875,0.7901,0.7901,0.7901,0.7901,0.7901,0.7901,0.7901,0.7901,0.8002,0.8215,0.8321,0.8401,0.8527,0.8639,0.8752,0.885,0.8923,0.8975,0.8975,0.9001,0.9001,0.8975,0.9001,0.8923,0.8745,0.8685,0.8495,0.8114,0.7941,0.7664,0.7168,0.6682,0.6212,0.6631,0.7031,0.7048,0.7055,0.7031,0.6916,0.6866,0.6849,0.6766,0.6692,0.6641,0.6515,0.6426,0.631,0.6306,0.6521,0.6842,0.6877,0.7091,0.7419,0.7469,0.735,0.7208,0.72,0.7106,0.6963,0.6808,0.6735,0.6664,0.6334,0.6017,0.5683,0.5569,0.5329,0.4967,0.4906,0.4762,0.4497,0.4448,0.4343,0.4231,0.4494,0.4739,0.4901,0.514,0.541,0.5751,0.569,0.5707,0.5838,0.5833,0.58,0.5805,0.5854,0.5903,0.5883,0.5854,0.5692,0.5457,0.5206,0.5069,0.5005,0.4944,0.4902,0.4877,0.4899,0.4919,0.4961,0.5138,0.5335,0.5572,0.5905,0.6126,0.6225,0.6583,0.696,0.7117,0.7252,0.7419,0.767,0.7696,0.7756,0.7875,0.7875,0.7901,0.7901,0.7901,0.7901,0.7901,0.7901,0.7901,0.7981,0.8088,0.8268,0.8395,0.8421,0.8474,0.848,0.8474,0.8527,0.8553,0.8553,0.8501,0.8633,0.8527,0.8527,0.8474,0.8421,0.8388,0.812,0.7931,0.7696,0.7155,0.6756,0.6378,0.6697,0.7095,0.7095,0.7095,0.7085,0.7034,0.7011,0.7001,0.6987,0.6915,0.6834,0.6766,0.6661,0.6559,0.647,0.662,0.7006,0.6948,0.7096,0.748,0.7518,0.7443,0.7387,0.7374,0.7289,0.7123,0.7033,0.6944,0.683,0.6489,0.6116,0.5796,0.5686,0.5486,0.5212,0.5205,0.5067,0.4887,0.4856,0.4817,0.4786,0.4805,0.4846,0.4924,0.5266,0.5572,0.5791,0.5846,0.594,0.6069,0.6068,0.6046,0.6051,0.6051,0.6077,0.6077,0.5968,0.5759,0.537,0.5238,0.5108,0.4958,0.4908,0.4857,0.4811,0.4846,0.4871,0.4822,0.5019,0.5248,0.5422,0.5677,0.5927,0.615,0.6364,0.6608,0.696,0.709,0.7246,0.744,0.7595,0.7723,0.7783,0.7842,0.7901,0.7901,0.7901,0.7901,0.7901,0.7901,0.7901,0.7901,0.7981,0.8088,0.8248,0.8275,0.8295,0.8368,0.8395,0.8395,0.8368,0.8395,0.8395,0.8368,0.8342,0.8315,0.8321,0.8162,0.8062,0.7922,0.7708,0.7465,0.7199,0.6828,0.6457,0.6677,0.712,0.7176,0.718,0.7095,0.7095,0.7095,0.7095,0.7095,0.7038,0.6947,0.6943,0.6883,0.6803,0.6624,0.6734,0.7042,0.7058,0.7211,0.7453,0.7557,0.7575,0.7526,0.7518,0.7419,0.7272,0.7203,0.7127,0.6992,0.6721,0.6394,0.6045,0.5855,0.5666,0.5495,0.5425,0.5341,0.5199,0.5159,0.5206,0.5227,0.518,0.5101,0.5083,0.5455,0.5704,0.5791,0.5978,0.6114,0.62,0.62,0.62,0.62,0.62,0.6173,0.6146,0.5923,0.565,0.5329,0.5242,0.5101,0.4877,0.4846,0.4794,0.4684,0.4739,0.4763,0.468,0.4849,0.5069,0.5242,0.5403,0.565,0.5982,0.6119,0.6337,0.6657,0.6869,0.7031,0.723,0.7408,0.7589,0.767,0.7783,0.7848,0.7875,0.7901,0.7901,0.7901,0.7901,0.7901,0.7875,0.7842,0.7922,0.8088,0.8115,0.8162,0.8215,0.8235,0.8215,0.8242,0.8235,0.8209,0.807,0.8156,0.8129,0.7975,0.7848,0.7768,0.7607,0.7446,0.7284,0.7192,0.686,0.6613,0.6723,0.7169,0.7329,0.7237,0.7102,0.7105,0.7102,0.7112,0.7098,0.7088,0.7078,0.7078,0.7078,0.7041,0.682,0.6812,0.7015,0.7244,0.7363,0.7481,0.7668,0.7694,0.7526,0.7518,0.7518,0.7439,0.7276,0.7151,0.7008,0.6984,0.678,0.6409,0.6222,0.5977,0.5652,0.5498,0.5392,0.5391,0.541,0.5392,0.5431,0.5552,0.5563,0.5451,0.5645,0.5804,0.5822,0.6041,0.62,0.62,0.62,0.62,0.62,0.62,0.6146,0.5978,0.5599,0.5325,0.5242,0.5042,0.4849,0.4715,0.466,0.4632,0.4522,0.4491,0.4491,0.4519,0.4605,0.4798,0.5046,0.5211,0.538,0.5622,0.5982,0.615,0.6228,0.6549,0.681,0.7031,0.7133,0.7321,0.7643,0.7696,0.7785,0.7878,0.7893,0.7922,0.7931,0.7928,0.788,0.78,0.7755,0.7762,0.7887,0.7901,0.7895,0.7922,0.7922,0.7928,0.7869,0.7815,0.7783,0.7723,0.7729,0.7681,0.7574,0.7521,0.7473,0.7392,0.7365,0.7252,0.7117,0.7009,0.6768,0.6599,0.6929,0.6976,0.7062,0.7145,0.7057,0.7156,0.7282,0.7136,0.7095,0.7095,0.7095,0.7095,0.7088,0.6987,0.7015,0.7133,0.7333,0.7458,0.7605,0.7841,0.7829,0.7714,0.7702,0.7629,0.7484,0.7419,0.7297,0.7147,0.7127,0.6929,0.662,0.6429,0.6203,0.6007,0.5807,0.5723,0.5719,0.5698,0.5766,0.5877,0.586,0.5837,0.5918,0.5959,0.5946,0.5795,0.6069,0.62,0.62,0.62,0.62,0.6173,0.6114,0.5978,0.5755,0.5462,0.5215,0.5042,0.4791,0.4546,0.4415,0.4301,0.4249,0.4187,0.4187,0.4187,0.4218,0.4221,0.4384,0.4684,0.4904,0.5124,0.538,0.5544,0.5763,0.6037,0.625,0.644,0.6657,0.6896,0.7246,0.7545,0.7734,0.7859,0.7883,0.801,0.8091,0.8086,0.8092,0.8063,0.8029,0.8029,0.8035,0.8069,0.7807,0.7634,0.7628,0.7628,0.766,0.7634,0.7628,0.7601,0.7595,0.7494,0.7467,0.7467,0.7386,0.7338,0.7252,0.7198,0.7117,0.6982,0.6874,0.6712,0.6604,0.6765,0.6858,0.6975,0.7205,0.7114,0.7214,0.7428,0.7282,0.7169,0.7162,0.7119,0.7095,0.7095,0.7095,0.7132,0.7203,0.736,0.7494,0.7689,0.7897,0.793,0.7866,0.7841,0.7788,0.7624,0.7508,0.7419,0.7322,0.7272,0.7142,0.6861,0.6698,0.6514,0.6344,0.6124,0.6007,0.6,0.5981,0.6083,0.6166,0.6104,0.6109,0.6186,0.6185,0.6084,0.5928,0.6161,0.6261,0.6214,0.62,0.6173,0.6119,0.5978,0.5759,0.554,0.5293,0.5042,0.4791,0.4519,0.4325,0.4162,0.4052,0.4008,0.4051,0.406,0.4078,0.4108,0.4121,0.4235,0.4431,0.4634,0.4847,0.5136,0.5215,0.5375,0.5704,0.59,0.6124,0.6455,0.6856,0.7241,0.7566,0.7796,0.7932,0.7989,0.8119,0.821,0.8221,0.8221,0.8186,0.8156,0.8122,0.8082,0.803,0.7812,0.7711,0.7704,0.768,0.7613,0.7524,0.7485,0.7463,0.7451,0.7413,0.7386,0.7359,0.7279,0.7198,0.7112,0.7058,0.7009,0.6874,0.6739,0.6576,0.6712,0.6657,0.69,0.7026,0.7162,0.718,0.7312,0.7526,0.7441,0.7415,0.7356,0.7227,0.7139,0.7109,0.7122,0.7098,0.7163,0.7325,0.7472,0.7614,0.7823,0.7942,0.7983,0.8016,0.7927,0.7796,0.7577,0.7492,0.7488,0.7464,0.7374,0.7174,0.704,0.6868,0.671,0.641,0.6211,0.62,0.6216,0.623,0.6214,0.6301,0.6323,0.6248,0.6329,0.6314,0.6107,0.6339,0.637,0.6216,0.622,0.616,0.5977,0.5768,0.554,0.5297,0.505,0.4798,0.456,0.433,0.421,0.407,0.399,0.4028,0.412,0.4144,0.418,0.4261,0.4318,0.436,0.4384,0.4412,0.4562,0.4836,0.5051,0.5167,0.5341,0.551,0.5838,0.6426,0.6906,0.7341,0.768,0.7898,0.8003,0.8132,0.8218,0.8239,0.8256,0.8261,0.8177,0.8082,0.8124,0.813,0.7988,0.782,0.7853,0.7846,0.7841,0.7785,0.7583,0.7505,0.7411,0.7389,0.7268,0.7263,0.7219,0.7144,0.7117,0.7036,0.6955,0.6874,0.6739,0.6603,0.6468,0.6517,0.6484,0.6531,0.6712,0.6908,0.7021,0.7222,0.7446,0.75,0.7529,0.7519,0.7478,0.74,0.7316,0.7299,0.7241,0.7102,0.7187,0.7339,0.7559,0.7901,0.8029,0.7978,0.8119,0.8109,0.7931,0.7796,0.771,0.7686,0.7545,0.7447,0.7395,0.7244,0.713,0.7025,0.6857,0.6678,0.6551,0.6529,0.6483,0.6366,0.6387,0.6392,0.6375,0.6526,0.6504,0.6301,0.6344,0.6341,0.6265,0.6278,0.6158,0.5912,0.5695,0.5462,0.5223,0.5101,0.4901,0.4601,0.4416,0.4257,0.4148,0.3997,0.3957,0.3994,0.4002,0.4019,0.4058,0.4058,0.4086,0.4241,0.4272,0.4451,0.4845,0.4956,0.5056,0.5305,0.558,0.6003,0.6581,0.6841,0.7141,0.7519,0.7799,0.8007,0.8182,0.8286,0.8389,0.84,0.8362,0.8422,0.8348,0.8317,0.8184,0.8048,0.7938,0.7915,0.7871,0.7817,0.7768,0.7619,0.7492,0.7387,0.7295,0.7203,0.7106,0.709,0.7036,0.6982,0.6928,0.6847,0.6712,0.6576,0.6468,0.6359,0.6387,0.6387,0.6387,0.6539,0.6836,0.7002,0.7214,0.7488,0.7596,0.7678,0.7672,0.7621,0.755,0.7472,0.7458,0.7366,0.7234,0.7224,0.7289,0.7374,0.7764,0.792,0.7994,0.8227,0.8239,0.8105,0.7939,0.7861,0.7792,0.7686,0.7592,0.7472,0.737,0.7322,0.7305,0.7147,0.6989,0.6883,0.6857,0.6704,0.6562,0.6513,0.6485,0.6432,0.6515,0.6522,0.641,0.6356,0.6331,0.6306,0.6276,0.6122,0.5919,0.5723,0.5486,0.5281,0.5115,0.4945,0.4601,0.4456,0.4299,0.4119,0.3964,0.3927,0.3957,0.3939,0.3887,0.3935,0.3948,0.4006,0.4106,0.4201,0.4419,0.4766,0.4781,0.4955,0.5248,0.5612,0.6012,0.6502,0.6843,0.712,0.7495,0.785,0.8022,0.8207,0.8377,0.8447,0.8409,0.8361,0.8376,0.8344,0.8232,0.8142,0.8118,0.806,0.8003,0.787,0.7757,0.7647,0.7514,0.743,0.7344,0.7281,0.7175,0.7093,0.7034,0.6921,0.682,0.6766,0.6727,0.6576,0.6468,0.6359,0.6282,0.6387,0.6387,0.6387,0.6539,0.6792,0.708,0.7325,0.7564,0.7742,0.7824,0.7797,0.7716,0.7634,0.7617,0.7611,0.7526,0.745,0.738,0.7305,0.7252,0.7443,0.7735,0.8162,0.8307,0.8329,0.8284,0.8117,0.7959,0.7894,0.7833,0.7722,0.7533,0.7551,0.7484,0.7439,0.7313,0.722,0.7155,0.7037,0.6883,0.6717,0.6672,0.6565,0.6423,0.6362,0.6342,0.6326,0.6302,0.6333,0.6306,0.618,0.6125,0.6043,0.5789,0.5539,0.5389,0.5211,0.4887,0.4552,0.447,0.4325,0.4024,0.3967,0.397,0.4043,0.3902,0.3833,0.3944,0.3962,0.3972,0.4036,0.4102,0.4301,0.4524,0.468,0.4838,0.5101,0.554,0.5999,0.6387,0.6872,0.7297,0.7616,0.7909,0.8076,0.8178,0.8328,0.8306,0.8242,0.8177,0.8144,0.8117,0.8122,0.8052,0.7987,0.7949,0.7887,0.7767,0.7701,0.7617,0.7553,0.7471,0.7333,0.7282,0.7202,0.7096,0.7015,0.6946,0.6806,0.6754,0.6651,0.6465,0.6364,0.6287,0.6242,0.6387,0.6387,0.6387,0.6437,0.6539,0.6989,0.7235,0.7385,0.775,0.7917,0.7914,0.7943,0.7848,0.7763,0.7753,0.7675,0.7567,0.7539,0.7455,0.7374,0.7403,0.7733,0.818,0.8432,0.8535,0.8506,0.8304,0.8195,0.8142,0.8008,0.7858,0.7735,0.771,0.7649,0.7492,0.7435,0.7346,0.7207,0.7188,0.7066,0.6895,0.6618,0.6458,0.6411,0.6156,0.6065,0.6057,0.6024,0.6158,0.6351,0.627,0.62,0.616,0.5812,0.5548,0.5445,0.5337,0.5077,0.4684,0.4624,0.4514,0.4235,0.4046,0.3987,0.401,0.3883,0.3832,0.3861,0.3861,0.3861,0.3861,0.3894,0.4061,0.4389,0.4674,0.4984,0.5288,0.5636,0.6011,0.6375,0.6733,0.7117,0.747,0.7694,0.7889,0.8014,0.8112,0.8149,0.8084,0.8052,0.8019,0.8019,0.8025,0.7922,0.7857,0.7792,0.7722,0.7614,0.7598,0.7671,0.7643,0.7647,0.7466,0.734,0.7265,0.7155,0.7145,0.713,0.6976,0.6765,0.6647,0.6525,0.6349,0.6219,0.6238,0.6387,0.6387,0.6387,0.6489,0.6639,0.7036,0.7288,0.7441,0.7789,0.7988,0.7988,0.7988,0.7941,0.7913,0.7857,0.7824,0.7699,0.7689,0.7604,0.7521,0.7534,0.7732,0.8063,0.8344,0.848,0.8604,0.8506,0.8408,0.828,0.8178,0.804,0.7878,0.7833,0.7743,0.7649,0.7508,0.7443,0.7354,0.7254,0.7133,0.6957,0.6642,0.6443,0.6332,0.6112,0.594,0.5907,0.5892,0.602,0.6228,0.6217,0.6226,0.6254,0.5947,0.5696,0.5612,0.5478,0.5201,0.4821,0.4758,0.4592,0.4261,0.4064,0.3961,0.3892,0.3794,0.3694,0.3663,0.3661,0.3661,0.3694,0.3725,0.3928,0.4161,0.4528,0.4894,0.5226,0.551,0.5885,0.6251,0.6548,0.6876,0.7297,0.7498,0.7694,0.7857,0.7954,0.7954,0.7889,0.7894,0.7862,0.7857,0.7824,0.7759,0.7694,0.7661,0.7661,0.7554,0.7554,0.7624,0.765,0.7696,0.757,0.7407,0.7328,0.7274,0.7243,0.7169,0.6924,0.6764,0.6672,0.66,0.6483,0.6342,0.6314,0.6387,0.6387,0.6387,0.6539,0.6792,0.7092,0.7338,0.7593,0.7892,0.7988,0.7988,0.7988,0.7978,0.7988,0.7958,0.7911,0.7838,0.7834,0.7743,0.7661,0.771,0.7831,0.7964,0.8172,0.8388,0.8564,0.8612,0.8518,0.8373,0.8329,0.8219,0.8065,0.7902,0.7793,0.7676,0.7555,0.7474,0.7357,0.7188,0.7045,0.688,0.6663,0.647,0.632,0.6106,0.5953,0.5881,0.5829,0.5918,0.6148,0.6148,0.6203,0.6272,0.6013,0.5873,0.5789,0.5559,0.5213,0.4891,0.4788,0.4564,0.4128,0.3997,0.3894,0.3758,0.3563,0.3462,0.3462,0.3464,0.3462,0.3496,0.3627,0.3794,0.3928,0.4131,0.4495,0.4924,0.5259,0.5591,0.605,0.6284,0.6646,0.7036,0.733,0.7526,0.7694,0.7787,0.7754,0.7727,0.7727,0.7661,0.7624,0.7591,0.7559,0.7526,0.7526,0.7526,0.7526,0.7526,0.7559,0.7559,0.7553,0.754,0.7473,0.7402,0.7339,0.7308,0.7154,0.6965,0.6894,0.688,0.6831,0.6759,0.6587,0.6541,0.6387,0.6387,0.6387,0.6539,0.6795,0.7092,0.7338,0.7643,0.7892,0.7988,0.7988,0.7988,0.7988,0.7988,0.7988,0.7968,0.7931,0.7917,0.786,0.7804,0.7897,0.7976,0.8053,0.8164,0.8348,0.8528,0.8616,0.8588,0.8551,0.8514,0.8414,0.8243,0.8108,0.7946,0.7549,0.7478,0.7297,0.7084,0.6984,0.6965,0.6828,0.6536,0.6351,0.628,0.6043,0.5828,0.5676,0.5641,0.5681,0.5756,0.5859,0.5977,0.5991,0.5818,0.5686,0.5653,0.5524,0.5229,0.4897,0.4761,0.4561,0.4061,0.3894,0.3758,0.3563,0.3395,0.3295,0.3261,0.3261,0.3295,0.3295,0.3462,0.3563,0.3696,0.3897,0.4164,0.4495,0.503,0.5458,0.5752,0.6115,0.6548,0.6913,0.7138,0.7335,0.7498,0.7591,0.7591,0.7591,0.7559,0.7526,0.7493,0.7493,0.7493,0.7493,0.7493,0.7493,0.7493,0.7493,0.7493,0.7493,0.7493,0.7493,0.7489,0.7455,0.7413,0.7361,0.7375,0.7234,0.7199,0.7083,0.7019,0.6915,0.682,0.6643,0.6387,0.6387,0.6387,0.6637,0.6989,0.7138,0.7437,0.7739,0.7939,0.7988,0.7988,0.7988,0.7988,0.7988,0.7988,0.7988,0.7988,0.7988,0.7948,0.7944,0.801,0.8182,0.8326,0.8375,0.8518,0.8613,0.8616,0.8616,0.8616,0.8608,0.8464,0.8237,0.8166,0.7858,0.7528,0.7358,0.7189,0.7023,0.6821,0.6749,0.6727,0.6485,0.6231,0.6183,0.5979,0.584,0.5705,0.5688,0.5713,0.5707,0.5739,0.5799,0.587,0.5719,0.5583,0.5583,0.5458,0.5226,0.4927,0.4761,0.4561,0.3959,0.3828,0.3627,0.3429,0.3261,0.3228,0.3192,0.3192,0.3192,0.3192,0.3261,0.3395,0.3529,0.3727,0.3961,0.4231,0.4731,0.5226,0.5488,0.5888,0.6255,0.6585,0.6909,0.7138,0.7335,0.7526,0.7559,0.7559,0.7526,0.7526,0.7493,0.7493,0.7493,0.7493,0.7493,0.7493,0.7493,0.7493,0.7493,0.7493,0.7493,0.7493,0.7489,0.7484,0.7484,0.7451,0.7479,0.7479,0.7394,0.7272,0.7193,0.7075,0.6976,0.6746,0.6387,0.6387,0.6437,0.6739,0.7135,0.7288,0.754,0.7939,0.7988,0.7988,0.7988,0.7988,0.7988,0.7988,0.7988,0.7988,0.7988,0.7988,0.7971,0.7997,0.8248,0.8404,0.8571,0.8722,0.8774,0.8718,0.8637,0.8621,0.8624,0.8568,0.8464,0.8213,0.8068,0.7792,0.7532,0.7315,0.7075,0.6944,0.6731,0.6617,0.656,0.6423,0.6218,0.6108,0.6071,0.5989,0.5874,0.5833,0.582,0.58,0.5688,0.5734,0.5761,0.5697,0.555,0.555,0.5425,0.516,0.4864,0.4697,0.4431,0.3861,0.3758,0.3591,0.3293,0.3192,0.3159,0.3125,0.3125,0.3092,0.3159,0.3159,0.3261,0.3429,0.3627,0.3828,0.4028,0.4431,0.4864,0.5292,0.5723,0.6119,0.6453,0.6749,0.6979,0.718,0.7377,0.7508,0.7512,0.7508,0.7517,0.7493,0.7493,0.7493,0.7493,0.7512,0.7512,0.7512,0.7508,0.7498,0.7498,0.7493,0.7493,0.7493,0.7489,0.7493,0.7493,0.7489,0.7489,0.7493,0.74,0.7228,0.7187,0.7158,0.686,0.6387,0.6437,0.6642,0.6942,0.7188,0.7441,0.7693,0.7939,0.7988,0.7988,0.7988,0.7988,0.7988,0.7988,0.7988,0.7988,0.7988,0.7988,0.7988,0.8088,0.8379,0.8675,0.8665,0.9052,0.9138,0.9015,0.8873,0.8739,0.8653,0.8568,0.8432,0.8237,0.8118,0.7874,0.7468,0.7239,0.7087,0.686,0.664,0.6557,0.6476,0.639,0.6286,0.6196,0.6193,0.6129,0.599,0.5946,0.5935,0.5817,0.5779,0.5791,0.5783,0.561,0.5506,0.5463,0.5336,0.5114,0.4876,0.4554,0.4239,0.3861,0.3679,0.3475,0.3238,0.3103,0.3091,0.3012,0.2941,0.2864,0.3025,0.305,0.3102,0.3267,0.3484,0.3684,0.3883,0.4227,0.4672,0.5155,0.5596,0.601,0.634,0.671,0.7049,0.7297,0.7517,0.7607,0.7631,0.7598,0.7565,0.7531,0.7493,0.7493,0.7493,0.7527,0.7541,0.755,0.7546,0.7522,0.7512,0.7498,0.7493,0.7493,0.7493,0.7493,0.7493,0.7493,0.7493,0.7493,0.7396,0.7265,0.7134,0.7036,0.6839,0.6387,0.6437,0.6692,0.6942,0.7238,0.749,0.7746,0.7988,0.7988,0.7988,0.7988,0.7988,0.7988,0.7988,0.7988,0.7988,0.7988,0.7988,0.7988,0.8134,0.8524,0.8795,0.8762,0.9242,0.9336,0.9302,0.9171,0.8938,0.8706,0.8609,0.84,0.8116,0.8028,0.7764,0.7295,0.7128,0.7026,0.679,0.6671,0.6549,0.6515,0.6378,0.631,0.63,0.63,0.6255,0.6176,0.6149,0.6156,0.6085,0.5966,0.5892,0.5854,0.5739,0.5624,0.5589,0.541,0.5202,0.4998,0.4691,0.4314,0.3997,0.3744,0.3506,0.3297,0.3163,0.3043,0.294,0.2908,0.2839,0.2952,0.3045,0.3122,0.3227,0.3432,0.3707,0.3953,0.4266,0.4636,0.5099,0.5603,0.6003,0.6298,0.6712,0.7134,0.7412,0.7632,0.772,0.7769,0.7754,0.7726,0.774,0.7731,0.7731,0.7721,0.7712,0.7688,0.7664,0.765,0.7622,0.7574,0.7579,0.7531,0.7493,0.7493,0.7531,0.7493,0.7493,0.7493,0.7493,0.733,0.7199,0.7036,0.6872,0.6708,0.6387,0.6437,0.6739,0.6992,0.7238,0.754,0.7793,0.7988,0.7988,0.7988,0.7988,0.7988,0.7988,0.7988,0.7988,0.7988,0.7988,0.7988,0.7988,0.8137,0.8528,0.8772,0.8924,0.9262,0.9539,0.9425,0.9371,0.9169,0.884,0.8698,0.8396,0.804,0.79,0.7632,0.7193,0.7034,0.6937,0.6883,0.6824,0.6671,0.6566,0.6426,0.6344,0.6334,0.6317,0.6293,0.6279,0.6353,0.6356,0.6315,0.6215,0.6108,0.6091,0.5996,0.5895,0.5848,0.5627,0.5378,0.5147,0.4709,0.4293,0.4075,0.381,0.3527,0.327,0.3069,0.2973,0.284,0.2762,0.2754,0.2817,0.3014,0.3125,0.3268,0.3517,0.3815,0.4051,0.4326,0.4638,0.5116,0.5624,0.6028,0.6371,0.6878,0.7346,0.7525,0.7716,0.7903,0.7924,0.7957,0.7957,0.7995,0.8004,0.7999,0.7985,0.7957,0.794,0.7873,0.7864,0.7845,0.7759,0.7688,0.766,0.7669,0.7598,0.7622,0.756,0.7498,0.7493,0.7461,0.7297,0.7138,0.6975,0.6778,0.6581,0.6387,0.6437,0.6939,0.7188,0.7291,0.7743,0.7939,0.7988,0.7988,0.7988,0.7988,0.7988,0.7988,0.7988,0.7988,0.7988,0.7988,0.7988,0.7988,0.8088,0.8531,0.8775,0.8874,0.9377,0.9562,0.9539,0.9482,0.9157,0.8922,0.882,0.8483,0.8034,0.7911,0.7628,0.718,0.7058,0.7075,0.7041,0.6923,0.6824,0.6678,0.6569,0.6501,0.646,0.6385,0.632,0.6359,0.6465,0.6563,0.656,0.6546,0.6528,0.6489,0.6336,0.6283,0.6049,0.5686,0.5228,0.5147,0.4621,0.4262,0.4047,0.3668,0.3321,0.3121,0.2866,0.2645,0.2407,0.2379,0.2497,0.2685,0.2853,0.2992,0.3224,0.3428,0.3747,0.4031,0.4272,0.463,0.5218,0.5749,0.6111,0.6446,0.6996,0.7517,0.7659,0.7806,0.8006,0.8141,0.8193,0.8212,0.824,0.8291,0.8291,0.8341,0.8313,0.8227,0.8141,0.8112,0.8089,0.7944,0.7878,0.7963,0.7914,0.7849,0.7731,0.7674,0.7607,0.7531,0.7396,0.7232,0.7073,0.6913,0.6716,0.6482,0.6489,0.6692,0.7036,0.7288,0.7441,0.7842,0.7988,0.7988,0.7988,0.7988,0.7988,0.7988,0.7988,0.7988,0.7988,0.7988,0.7988,0.7988,0.7988,0.8137,0.8531,0.8775,0.8924,0.9327,0.9624,0.9604,0.9535,0.9409,0.9141,0.8868,0.8587,0.8263,0.7993,0.772,0.7323,0.7187,0.7139,0.7051,0.696,0.6856,0.681,0.6692,0.6644,0.6634,0.6581,0.6598,0.6606,0.6712,0.6756,0.6753,0.6679,0.6602,0.6563,0.6409,0.6254,0.6044,0.5689,0.5469,0.5353,0.4661,0.4352,0.4133,0.3718,0.3273,0.3002,0.2731,0.254,0.2435,0.2397,0.2468,0.2617,0.2852,0.3004,0.3192,0.3434,0.3814,0.4115,0.4249,0.4576,0.5226,0.5827,0.6227,0.6678,0.7315,0.7753,0.7872,0.8102,0.8346,0.8453,0.8491,0.8496,0.8486,0.8528,0.8528,0.8659,0.8696,0.8621,0.8534,0.8476,0.8392,0.8125,0.8061,0.8141,0.8118,0.803,0.7921,0.7821,0.7674,0.755,0.7382,0.7167,0.704,0.6881,0.6646,0.6449,0.6587,0.6942,0.7089,0.7338,0.7643,0.7892,0.7988,0.7988,0.7988,0.7988,0.7988,0.7988,0.7988,0.7988,0.7988,0.7988,0.7988,0.7988,0.7988,0.8187,0.8482,0.8775,0.8973,0.9324,0.9624,0.9624,0.9612,0.9522,0.9364,0.9141,0.8854,0.8515,0.8218,0.7904,0.7643,0.7455,0.7319,0.7221,0.7138,0.7083,0.7046,0.7003,0.6979,0.6961,0.6958,0.6939,0.6958,0.7021,0.7013,0.7013,0.6806,0.6714,0.6676,0.6447,0.6177,0.598,0.5671,0.5523,0.5289,0.4822,0.4499,0.419,0.3761,0.3154,0.2771,0.2588,0.2508,0.2495,0.2496,0.25,0.2627,0.2896,0.312,0.3309,0.3546,0.3949,0.43,0.4428,0.4722,0.5375,0.595,0.643,0.695,0.7634,0.7995,0.8118,0.8365,0.8627,0.8694,0.868,0.8699,0.8689,0.8732,0.8802,0.8939,0.8982,0.8951,0.8874,0.8815,0.8697,0.8481,0.8333,0.834,0.8274,0.8184,0.8136,0.808,0.783,0.7574,0.7461,0.73,0.703,0.6815,0.6585,0.6416,0.6686,0.7188,0.7188,0.7338,0.7643,0.7892,0.7988,0.7988,0.7988,0.7988,0.7988,0.7988,0.7988,0.7988,0.7988,0.7988,0.7988,0.7988,0.7988,0.8184,0.8478,0.8726,0.8973,0.9274,0.9624,0.9624,0.9624,0.9616,0.9563,0.9388,0.9023,0.8595,0.8477,0.8222,0.7952,0.7782,0.7635,0.7499,0.7416,0.7416,0.7468,0.7462,0.746,0.7466,0.7442,0.7349,0.7387,0.7387,0.7366,0.7363,0.7077,0.6871,0.6804,0.6489,0.6213,0.587,0.5712,0.5521,0.5246,0.4815,0.4462,0.4151,0.3684,0.3022,0.2668,0.2549,0.251,0.2549,0.2549,0.2628,0.2785,0.2982,0.3255,0.345,0.3684,0.3995,0.4345,0.4616,0.4955,0.555,0.6057,0.6518,0.7019,0.7638,0.7987,0.814,0.8403,0.8703,0.8703,0.8694,0.8818,0.8879,0.8927,0.9041,0.9231,0.9243,0.9208,0.9128,0.906,0.9005,0.8887,0.875,0.8514,0.8505,0.8439,0.8406,0.8335,0.8066,0.7853,0.7672,0.7443,0.7142,0.6855,0.6581,0.6469,0.6889,0.7235,0.7388,0.7593,0.7839,0.7939,0.7988,0.7988,0.7988,0.7988,0.7988,0.7988,0.7988,0.7988,0.7988,0.7988,0.7988,0.7988,0.7988,0.8187,0.8482,0.8726,0.8973,0.9274,0.9624,0.9624,0.9624,0.9624,0.9608,0.9535,0.9401,0.9056,0.8776,0.852,0.8268,0.8049,0.7867,0.7812,0.7768,0.7724,0.7753,0.7767,0.7799,0.7788,0.7773,0.7697,0.7701,0.7761,0.7772,0.7647,0.739,0.715,0.6953,0.663,0.6195,0.5824,0.5665,0.5467,0.5143,0.4667,0.4268,0.38,0.3372,0.2982,0.2707,0.2589,0.2589,0.2627,0.2714,0.2803,0.2986,0.3219,0.3411,0.3565,0.3808,0.4093,0.4413,0.4744,0.5101,0.5638,0.6136,0.6637,0.7099,0.7599,0.7872,0.8102,0.8441,0.8703,0.8703,0.8742,0.8827,0.8984,0.9022,0.9213,0.9435,0.9473,0.9468,0.9397,0.9327,0.9175,0.9061,0.8818,0.8637,0.8656,0.8656,0.8585,0.8472,0.8311,0.8115,0.796,0.7593,0.7233,0.6916,0.6622,0.6539,0.6942,0.7238,0.749,0.7743,0.7988,0.7988,0.7988,0.7988,0.7988,0.7988,0.7988,0.7988,0.7988,0.7988,0.7988,0.7988,0.7988,0.7988,0.7988,0.8184,0.8478,0.8726,0.8973,0.9274,0.9624,0.9624,0.9624,0.9624,0.9624,0.9624,0.9535,0.9369,0.916,0.891,0.8631,0.829,0.8045,0.8,0.7988,0.7984,0.7984,0.8069,0.8113,0.8145,0.8123,0.8127,0.8115,0.808,0.7984,0.7828,0.7574,0.7297,0.7027,0.6731,0.6281,0.5946,0.5674,0.5512,0.5108,0.4648,0.4157,0.3643,0.3409,0.3137,0.2945,0.28,0.2902,0.2942,0.2993,0.3042,0.328,0.3463,0.367,0.3887,0.4044,0.4333,0.4688,0.5058,0.5368,0.5768,0.6331,0.6976,0.7335,0.7822,0.8177,0.8374,0.8518,0.8703,0.8703,0.8742,0.8861,0.898,0.9137,0.9359,0.9625,0.964,0.9689,0.9587,0.9473,0.9284,0.9094,0.8861,0.8708,0.8689,0.8689,0.8699,0.8623,0.8491,0.8354,0.8212,0.7788,0.7328,0.704,0.679,0.6706,0.6992,0.7238,0.749,0.7743,0.7988,0.7988,0.7988,0.7988,0.7988,0.7988,0.7988,0.7988,0.7988,0.7988,0.7988,0.7988,0.7988,0.7988,0.7988,0.8134,0.8528,0.8726,0.8973,0.9274,0.9624,0.9624,0.9624,0.9624,0.9624,0.9624,0.9604,0.96,0.9466,0.9292,0.9058,0.8688,0.838,0.8236,0.8224,0.8224,0.8248,0.8388,0.8476,0.8468,0.8448,0.8464,0.8423,0.833,0.8207,0.7932,0.767,0.7386,0.7075,0.6819,0.6465,0.6027,0.5985,0.5747,0.5377,0.4733,0.4198,0.3685,0.3508,0.3378,0.3211,0.316,0.3206,0.325,0.333,0.3452,0.3595,0.372,0.3993,0.419,0.4348,0.4591,0.4989,0.5352,0.5668,0.6066,0.6791,0.7428,0.7712,0.8077,0.8498,0.8682,0.8684,0.8727,0.8779,0.886,0.898,0.9194,0.933,0.9596,0.9834,0.9877,0.991,0.9803,0.9661,0.9436,0.9176,0.8923,0.8799,0.8713,0.8703,0.8703,0.8703,0.868,0.8468,0.8249,0.7857,0.7432,0.7158,0.6939,0.6865,0.7241,0.749,0.7739,0.7889,0.7988,0.7988,0.7988,0.7988,0.7988,0.7988,0.7988,0.7988,0.7988,0.7988,0.7988,0.7988,0.7988,0.7988,0.7988,0.8088,0.8581,0.8726,0.8977,0.9278,0.9624,0.9624,0.9624,0.9624,0.9624,0.9624,0.9624,0.9624,0.9612,0.9498,0.9283,0.8999,0.8826,0.8628,0.8588,0.8552,0.8496,0.8576,0.862,0.862,0.8616,0.8616,0.8616,0.8475,0.8324,0.8056,0.7787,0.7532,0.7204,0.6975,0.6596,0.6158,0.5999,0.5743,0.5277,0.4784,0.4399,0.4024,0.3722,0.3598,0.3496,0.3386,0.3445,0.3535,0.365,0.384,0.4068,0.4153,0.4351,0.4559,0.4721,0.497,0.53,0.5631,0.6001,0.6448,0.7075,0.7771,0.8197,0.8426,0.8796,0.909,0.9098,0.9072,0.9061,0.9129,0.9247,0.9462,0.9667,0.9882,1.0068,1.0048,1.0032,0.998,0.9805,0.9564,0.9276,0.899,0.8842,0.8765,0.8732,0.8703,0.8703,0.8661,0.8494,0.8229,0.7881,0.7574,0.7273,0.7082,0.6959,0.7441,0.7646,0.7892,0.7988,0.7988,0.7988,0.7988,0.7988,0.7988,0.7988,0.7988,0.7988,0.7988,0.7988,0.7988,0.7988,0.7988,0.7988,0.7988,0.8088,0.8581,0.8726,0.8977,0.9327,0.9575,0.9624,0.9624,0.9624,0.9624,0.9624,0.9624,0.9624,0.9624,0.9563,0.9417,0.9275,0.91,0.8966,0.886,0.8787,0.8723,0.8702,0.8673,0.8637,0.8616,0.8616,0.8616,0.8568,0.8432,0.816,0.7921,0.7672,0.7328,0.7026,0.6691,0.6321,0.592,0.567,0.5288,0.512,0.4768,0.4423,0.4037,0.3827,0.3792,0.3762,0.3862,0.3958,0.3972,0.4244,0.4502,0.4581,0.4706,0.4922,0.5134,0.5352,0.5658,0.6047,0.6384,0.6837,0.7337,0.8014,0.8644,0.8859,0.9092,0.9359,0.9545,0.9469,0.9343,0.9379,0.9425,0.9589,0.9779,0.9882,1.0014,1.0099,1.0109,1.0136,0.9933,0.9657,0.9473,0.9196,0.8984,0.8792,0.8845,0.8831,0.8732,0.8623,0.8499,0.8286,0.8025,0.7701,0.7388,0.7216,0.7131,0.7593,0.7646,0.7892,0.7988,0.7988,0.7988,0.7988,0.7988,0.7988,0.7988,0.7988,0.7988,0.7988,0.7988,0.7988,0.7988,0.7988,0.7988,0.7988,0.8137,0.8581,0.8726,0.8977,0.9327,0.9575,0.9624,0.9624,0.9624,0.9624,0.9624,0.9624,0.9624,0.9624,0.96,0.9535,0.9441,0.9271,0.9153,0.9092,0.8999,0.8873,0.8832,0.8747,0.8678,0.8669,0.8645,0.8633,0.8568,0.8344,0.812,0.7896,0.7584,0.7312,0.7136,0.6779,0.6419,0.5968,0.5692,0.5461,0.5365,0.5237,0.489,0.4441,0.416,0.4079,0.4183,0.4292,0.4404,0.4513,0.4731,0.4935,0.5019,0.51,0.532,0.5541,0.5811,0.6125,0.6436,0.6825,0.7213,0.7687,0.8245,0.8875,0.9156,0.9258,0.9528,0.97,0.9672,0.9587,0.9511,0.9558,0.9678,0.9773,0.9802,0.9957,1.014,1.0171,1.0231,0.9982,0.9714,0.9536,0.9406,0.9188,0.9009,0.8981,0.8924,0.8859,0.8693,0.8513,0.8338,0.8091,0.7812,0.7471,0.7453,0.738,0.7696,0.7892,0.7988,0.7988,0.7988,0.7988,0.7988,0.7988,0.7988,0.7988,0.7988,0.7988,0.7988,0.7988,0.7988,0.7988,0.7988,0.7988,0.7988,0.8187,0.8531,0.8726,0.8977,0.9327,0.9525,0.9624,0.9624,0.9624,0.9624,0.9624,0.9624,0.9624,0.9624,0.9624,0.9608,0.9575,0.9433,0.9328,0.9287,0.9173,0.9064,0.9015,0.8901,0.88,0.8751,0.8706,0.8661,0.8637,0.836,0.7988,0.79,0.7632,0.7183,0.7095,0.6871,0.6476,0.6121,0.5861,0.5641,0.5463,0.5371,0.528,0.4895,0.4763,0.4715,0.4713,0.4777,0.4835,0.4889,0.5045,0.5235,0.5324,0.546,0.568,0.5902,0.6171,0.6441,0.6659,0.701,0.7544,0.7984,0.8384,0.8999,0.9248,0.936,0.9623,0.9788,0.9799,0.9824,0.9743,0.971,0.9789,0.9884,0.9934,1.0139,1.0331,1.0293,1.0246,0.9986,0.9763,0.966,0.9506,0.9337,0.9197,0.9131,0.9037,0.8973,0.8819,0.8686,0.8354,0.8093,0.7825,0.7633,0.7557,0.7518,0.7842,0.7988,0.7988,0.7988,0.7988,0.7988,0.7988,0.7988,0.7988,0.7988,0.7988,0.7988,0.7988,0.7988,0.7988,0.7988,0.7988,0.7988,0.7988,0.8088,0.8478,0.8627,0.8924,0.9229,0.948,0.9579,0.9624,0.9624,0.9624,0.9624,0.9624,0.9624,0.9624,0.9624,0.962,0.9608,0.9567,0.9498,0.9437,0.9348,0.9267,0.9194,0.9084,0.8966,0.893,0.8828,0.8698,0.867,0.8415,0.8007,0.79,0.7632,0.7187,0.7007,0.683,0.6432,0.6213,0.5952,0.5733,0.5599,0.5552,0.5508,0.5371,0.5317,0.5179,0.508,0.5087,0.5139,0.5186,0.5235,0.546,0.5638,0.5861,0.6038,0.6263,0.6485,0.6659,0.6836,0.7279,0.7808,0.8208,0.8564,0.8915,0.913,0.9388,0.9607,0.982,0.9923,0.9933,0.9904,0.9881,0.9924,0.9995,1.0101,1.0294,1.0337,1.026,1.0177,1.0057,0.989,0.9734,0.9686,0.9597,0.9445,0.9249,0.9169,0.9143,0.9032,0.8883,0.8512,0.816,0.7957,0.7734,0.7557,0.7518,0.7988,0.7988,0.7988,0.7988,0.7988,0.7988,0.7988,0.7988,0.7988,0.7988,0.7988,0.7988,0.7988,0.7988,0.7988,0.7988,0.7988,0.7988,0.7988,0.7988,0.8333,0.8577,0.8825,0.9084,0.9381,0.9529,0.9624,0.9624,0.9624,0.9624,0.9624,0.9624,0.9624,0.9624,0.9624,0.9624,0.9604,0.9587,0.9563,0.9514,0.9421,0.9356,0.9347,0.9153,0.9092,0.9035,0.8897,0.8725,0.8534,0.8157,0.7882,0.7668,0.7231,0.6966,0.6741,0.652,0.6302,0.6038,0.5863,0.5686,0.5688,0.5688,0.5688,0.5688,0.5549,0.5371,0.5327,0.5371,0.5416,0.5463,0.5597,0.5816,0.6038,0.6216,0.6438,0.6659,0.6833,0.7098,0.7499,0.794,0.8296,0.8608,0.8784,0.8999,0.9262,0.9519,0.9733,0.9907,0.9994,0.9994,0.9994,0.9994,1.0038,1.0081,1.0081,1.012,1.0077,1.0019,1.0009,1.0,0.9895,0.9895,0.9914,0.9691,0.9507,0.9412,0.9296,0.9211,0.9006,0.8653,0.8339,0.8125,0.7904,0.7663,0.7547,0.7988,0.7988,0.7988,0.7988,0.7988,0.7988,0.7988,0.7988,0.7988,0.7988,0.7988,0.7988,0.7988,0.7988,0.7988,0.7988,0.7988,0.7988,0.7988,0.8088,0.8287,0.8531,0.8775,0.9031,0.9331,0.9529,0.9624,0.9624,0.9624,0.9624,0.9624,0.9624,0.9624,0.9624,0.9624,0.9624,0.9624,0.9624,0.962,0.9608,0.9551,0.9527,0.9482,0.9352,0.9322,0.9198,0.9088,0.9023,0.8647,0.817,0.8099,0.771,0.7153,0.7058,0.6922,0.6704,0.6479,0.6216,0.6038,0.5863,0.5819,0.5733,0.5777,0.5863,0.5819,0.5641,0.5552,0.5599,0.5644,0.5688,0.5733,0.5952,0.6169,0.6349,0.6571,0.6789,0.701,0.7319,0.772,0.8028,0.834,0.852,0.8696,0.8872,0.9087,0.9349,0.9563,0.9733,0.9951,0.9994,0.9994,0.9994,0.9994,1.0038,0.9994,0.9994,0.9994,0.9994,1.0024,1.0028,0.9994,0.9975,0.9947,0.9856,0.9738,0.9634,0.9516,0.9348,0.9109,0.8783,0.8508,0.8295,0.8072,0.7833,0.7683,0.7988,0.7988,0.7988,0.7988,0.7988,0.7988,0.7988,0.7988,0.7988,0.7988,0.7988,0.7988,0.7988,0.7988,0.7988,0.7988,0.7988,0.7988,0.7988,0.8088,0.8187,0.8432,0.873,0.8981,0.9278,0.9476,0.9575,0.9624,0.9624,0.9624,0.9624,0.9624,0.9624,0.9624,0.9624,0.9624,0.9624,0.9624,0.9624,0.9624,0.9624,0.9608,0.9592,0.9486,0.9445,0.9364,0.9322,0.9202,0.882,0.8267,0.7956,0.7668,0.7293,0.7139,0.6976,0.6836,0.6656,0.6479,0.6266,0.6097,0.6014,0.6017,0.5997,0.6174,0.6169,0.5991,0.5902,0.5949,0.5908,0.5908,0.5822,0.5952,0.6083,0.6257,0.6571,0.6836,0.7058,0.7367,0.7632,0.7944,0.8208,0.8432,0.8608,0.8828,0.9043,0.9301,0.9476,0.9689,0.9864,0.9951,0.9994,0.9994,0.9994,0.9994,0.9994,0.9994,0.9994,0.9994,0.9994,0.9994,0.9994,0.9994,0.9975,0.9933,0.9904,0.9828,0.9705,0.9508,0.9271,0.8947,0.8713,0.8475,0.8251,0.8057,0.7927,0.7988,0.7988,0.7988,0.7988,0.7988,0.7988,0.7988,0.7988,0.7988,0.7988,0.7988,0.7988,0.7988,0.7988,0.7988,0.7988,0.7988,0.7988,0.7988,0.7988,0.7988,0.8283,0.8577,0.8825,0.9175,0.9426,0.9575,0.9624,0.9624,0.9624,0.9624,0.9624,0.9624,0.9624,0.9624,0.9624,0.9624,0.9624,0.9624,0.9624,0.9624,0.9624,0.9616,0.962,0.9612,0.9539,0.9437,0.9312,0.8997,0.8428,0.7827,0.7576,0.7436,0.7319,0.7095,0.695,0.6779,0.6632,0.6523,0.64,0.6388,0.646,0.6427,0.6459,0.6465,0.6405,0.6317,0.6222,0.6139,0.6002,0.5916,0.5919,0.605,0.618,0.6539,0.6849,0.7071,0.7337,0.7602,0.7867,0.8084,0.8304,0.8564,0.8784,0.8955,0.9213,0.9432,0.9646,0.982,0.9864,0.9864,0.9951,0.9994,0.9994,0.9994,0.9994,0.9994,0.9994,0.9994,0.9994,0.9994,0.9994,0.9994,0.999,0.9961,0.9894,0.9817,0.9618,0.9343,0.9045,0.8879,0.8641,0.8425,0.8223,0.8162,0.7988,0.7988,0.7988,0.7988,0.7988,0.7988,0.7988,0.7988,0.7988,0.7988,0.7988,0.7988,0.7988,0.7988,0.7988,0.7988,0.7988,0.7988,0.7988,0.7988,0.7988,0.8233,0.8482,0.8779,0.9126,0.9426,0.9624,0.9624,0.9624,0.9624,0.9624,0.9624,0.9624,0.9624,0.9624,0.9624,0.9624,0.9624,0.9624,0.9624,0.9624,0.9624,0.9624,0.9624,0.9624,0.9604,0.9579,0.9575,0.9129,0.8553,0.7975,0.7667,0.7529,0.7449,0.7273,0.706,0.6931,0.6799,0.6648,0.6599,0.6639,0.6783,0.6752,0.6781,0.6805,0.6786,0.6642,0.6397,0.6263,0.6031,0.5944,0.5997,0.6132,0.6263,0.6487,0.6713,0.6936,0.7245,0.7556,0.7808,0.8063,0.8272,0.852,0.8652,0.8784,0.8955,0.9087,0.9301,0.9602,0.9689,0.9781,0.982,0.9907,0.9994,0.9994,0.9951,0.9951,0.9994,0.9951,0.9864,0.9864,0.9994,0.9994,0.9864,0.9864,0.9845,0.9733,0.9559,0.9318,0.9026,0.8978,0.8796,0.8568,0.8394,0.8341]}]]